<?xml version="1.0" encoding="UTF-8" standalone="no" ?>
<gpx xmlns="http://www.topografix.com/GPX/1/1" xmlns:xsi="http://www.w3.org/2001/XMLSchema-instance" xsi:schemaLocation="http://www.topografix.com/GPX/1/1 http://www.topografix.com/GPX/1/1/gpx.xsd" version="1.1" creator="VisuGPX - https://www.visugpx.com">
  <metadata>
    <name>lundi 2016 03 14</name>
    <desc><![CDATA[rando du lundi]]></desc>
  </metadata>
  <trk>
    <name><![CDATA[Lundi 2016 03 14]]></name>
    <trkseg>
      <trkpt lat="48.85704" lon="2.34719">
        <ele>40.799999237061</ele>
        <time>2016-03-14T19:21:03.000Z</time>
      </trkpt>
      <trkpt lat="48.85706" lon="2.34708">
        <ele>40.799999237061</ele>
        <time>2016-03-14T19:21:16.000Z</time>
      </trkpt>
      <trkpt lat="48.85728" lon="2.34708">
        <ele>40.599998474121</ele>
        <time>2016-03-14T19:21:29.000Z</time>
      </trkpt>
      <trkpt lat="48.85746" lon="2.34701">
        <ele>39.599998474121</ele>
        <time>2016-03-14T19:21:32.000Z</time>
      </trkpt>
      <trkpt lat="48.85767" lon="2.34688">
        <ele>38.200000762939</ele>
        <time>2016-03-14T19:21:37.000Z</time>
      </trkpt>
      <trkpt lat="48.85784" lon="2.34674">
        <ele>38.400001525879</ele>
        <time>2016-03-14T19:21:41.000Z</time>
      </trkpt>
      <trkpt lat="48.85794" lon="2.34649">
        <ele>41.400001525879</ele>
        <time>2016-03-14T19:21:45.000Z</time>
      </trkpt>
      <trkpt lat="48.85806" lon="2.34622">
        <ele>45.799999237061</ele>
        <time>2016-03-14T19:21:50.000Z</time>
      </trkpt>
      <trkpt lat="48.8582" lon="2.34603">
        <ele>47.799999237061</ele>
        <time>2016-03-14T19:21:57.000Z</time>
      </trkpt>
      <trkpt lat="48.85822" lon="2.34599">
        <ele>48.200000762939</ele>
        <time>2016-03-14T19:22:02.000Z</time>
      </trkpt>
      <trkpt lat="48.85851" lon="2.34611">
        <ele>50</ele>
        <time>2016-03-14T19:22:08.000Z</time>
      </trkpt>
      <trkpt lat="48.85884" lon="2.34616">
        <ele>49.400001525879</ele>
        <time>2016-03-14T19:22:09.000Z</time>
      </trkpt>
      <trkpt lat="48.85891" lon="2.34612">
        <ele>49.400001525879</ele>
        <time>2016-03-14T19:22:12.000Z</time>
      </trkpt>
      <trkpt lat="48.859" lon="2.34584">
        <ele>50.799999237061</ele>
        <time>2016-03-14T19:22:15.000Z</time>
      </trkpt>
      <trkpt lat="48.85906" lon="2.34562">
        <ele>50.400001525879</ele>
        <time>2016-03-14T19:22:18.000Z</time>
      </trkpt>
      <trkpt lat="48.8592" lon="2.3454">
        <ele>50.200000762939</ele>
        <time>2016-03-14T19:22:22.000Z</time>
      </trkpt>
      <trkpt lat="48.85931" lon="2.34523">
        <ele>50.599998474121</ele>
        <time>2016-03-14T19:22:26.000Z</time>
      </trkpt>
      <trkpt lat="48.85933" lon="2.34515">
        <ele>50.799999237061</ele>
        <time>2016-03-14T19:22:28.000Z</time>
      </trkpt>
      <trkpt lat="48.85907" lon="2.34507">
        <ele>49.799999237061</ele>
        <time>2016-03-14T19:22:34.000Z</time>
      </trkpt>
      <trkpt lat="48.85892" lon="2.34507">
        <ele>49.200000762939</ele>
        <time>2016-03-14T19:22:37.000Z</time>
      </trkpt>
      <trkpt lat="48.85894" lon="2.34507">
        <ele>49.400001525879</ele>
        <time>2016-03-14T19:22:47.000Z</time>
      </trkpt>
      <trkpt lat="48.85916" lon="2.3449">
        <ele>50</ele>
        <time>2016-03-14T19:22:52.000Z</time>
      </trkpt>
      <trkpt lat="48.85939" lon="2.3447">
        <ele>51.400001525879</ele>
        <time>2016-03-14T19:22:56.000Z</time>
      </trkpt>
      <trkpt lat="48.85954" lon="2.34445">
        <ele>52</ele>
        <time>2016-03-14T19:23:01.000Z</time>
      </trkpt>
      <trkpt lat="48.85976" lon="2.34445">
        <ele>52.599998474121</ele>
        <time>2016-03-14T19:23:02.000Z</time>
      </trkpt>
      <trkpt lat="48.8601" lon="2.34442">
        <ele>53.400001525879</ele>
        <time>2016-03-14T19:23:04.000Z</time>
      </trkpt>
      <trkpt lat="48.86037" lon="2.34432">
        <ele>53.400001525879</ele>
        <time>2016-03-14T19:23:07.000Z</time>
      </trkpt>
      <trkpt lat="48.86051" lon="2.34432">
        <ele>52.799999237061</ele>
        <time>2016-03-14T19:23:08.000Z</time>
      </trkpt>
      <trkpt lat="48.86064" lon="2.34412">
        <ele>52</ele>
        <time>2016-03-14T19:23:13.000Z</time>
      </trkpt>
      <trkpt lat="48.86078" lon="2.34396">
        <ele>51.200000762939</ele>
        <time>2016-03-14T19:23:16.000Z</time>
      </trkpt>
      <trkpt lat="48.86094" lon="2.34373">
        <ele>50.799999237061</ele>
        <time>2016-03-14T19:23:20.000Z</time>
      </trkpt>
      <trkpt lat="48.86109" lon="2.3435">
        <ele>50.599998474121</ele>
        <time>2016-03-14T19:23:24.000Z</time>
      </trkpt>
      <trkpt lat="48.86109" lon="2.34344">
        <ele>50.599998474121</ele>
        <time>2016-03-14T19:23:25.000Z</time>
      </trkpt>
      <trkpt lat="48.86118" lon="2.34317">
        <ele>50.400001525879</ele>
        <time>2016-03-14T19:23:29.000Z</time>
      </trkpt>
      <trkpt lat="48.86115" lon="2.34278">
        <ele>49.599998474121</ele>
        <time>2016-03-14T19:23:34.000Z</time>
      </trkpt>
      <trkpt lat="48.86123" lon="2.34252">
        <ele>49.200000762939</ele>
        <time>2016-03-14T19:23:38.000Z</time>
      </trkpt>
      <trkpt lat="48.86129" lon="2.34224">
        <ele>49</ele>
        <time>2016-03-14T19:23:42.000Z</time>
      </trkpt>
      <trkpt lat="48.86136" lon="2.34196">
        <ele>48.799999237061</ele>
        <time>2016-03-14T19:23:46.000Z</time>
      </trkpt>
      <trkpt lat="48.86141" lon="2.34168">
        <ele>48.799999237061</ele>
        <time>2016-03-14T19:23:50.000Z</time>
      </trkpt>
      <trkpt lat="48.86141" lon="2.34139">
        <ele>48.200000762939</ele>
        <time>2016-03-14T19:23:54.000Z</time>
      </trkpt>
      <trkpt lat="48.86152" lon="2.34116">
        <ele>48</ele>
        <time>2016-03-14T19:23:57.000Z</time>
      </trkpt>
      <trkpt lat="48.86136" lon="2.34091">
        <ele>47.200000762939</ele>
        <time>2016-03-14T19:24:00.000Z</time>
      </trkpt>
      <trkpt lat="48.86141" lon="2.34057">
        <ele>47.599998474121</ele>
        <time>2016-03-14T19:24:05.000Z</time>
      </trkpt>
      <trkpt lat="48.86149" lon="2.34044">
        <ele>48</ele>
        <time>2016-03-14T19:24:07.000Z</time>
      </trkpt>
      <trkpt lat="48.86173" lon="2.34027">
        <ele>48.599998474121</ele>
        <time>2016-03-14T19:24:10.000Z</time>
      </trkpt>
      <trkpt lat="48.86185" lon="2.34006">
        <ele>48.799999237061</ele>
        <time>2016-03-14T19:24:13.000Z</time>
      </trkpt>
      <trkpt lat="48.86192" lon="2.33992">
        <ele>48.799999237061</ele>
        <time>2016-03-14T19:24:15.000Z</time>
      </trkpt>
      <trkpt lat="48.86203" lon="2.33964">
        <ele>47.599998474121</ele>
        <time>2016-03-14T19:24:19.000Z</time>
      </trkpt>
      <trkpt lat="48.86212" lon="2.33936">
        <ele>46.400001525879</ele>
        <time>2016-03-14T19:24:23.000Z</time>
      </trkpt>
      <trkpt lat="48.86215" lon="2.33931">
        <ele>46.400001525879</ele>
        <time>2016-03-14T19:24:24.000Z</time>
      </trkpt>
      <trkpt lat="48.86232" lon="2.33929">
        <ele>47</ele>
        <time>2016-03-14T19:24:34.000Z</time>
      </trkpt>
      <trkpt lat="48.8625" lon="2.3394">
        <ele>47.799999237061</ele>
        <time>2016-03-14T19:24:39.000Z</time>
      </trkpt>
      <trkpt lat="48.86252" lon="2.33941">
        <ele>48</ele>
        <time>2016-03-14T19:24:40.000Z</time>
      </trkpt>
      <trkpt lat="48.86262" lon="2.3393">
        <ele>48</ele>
        <time>2016-03-14T19:24:44.000Z</time>
      </trkpt>
      <trkpt lat="48.86282" lon="2.33924">
        <ele>48.200000762939</ele>
        <time>2016-03-14T19:24:48.000Z</time>
      </trkpt>
      <trkpt lat="48.86301" lon="2.33928">
        <ele>47.799999237061</ele>
        <time>2016-03-14T19:24:52.000Z</time>
      </trkpt>
      <trkpt lat="48.86318" lon="2.33935">
        <ele>47.599998474121</ele>
        <time>2016-03-14T19:24:58.000Z</time>
      </trkpt>
      <trkpt lat="48.8634" lon="2.33937">
        <ele>47.200000762939</ele>
        <time>2016-03-14T19:25:05.000Z</time>
      </trkpt>
      <trkpt lat="48.86357" lon="2.33956">
        <ele>47.599998474121</ele>
        <time>2016-03-14T19:25:11.000Z</time>
      </trkpt>
      <trkpt lat="48.86372" lon="2.33975">
        <ele>48.599998474121</ele>
        <time>2016-03-14T19:25:18.000Z</time>
      </trkpt>
      <trkpt lat="48.86393" lon="2.33983">
        <ele>49.400001525879</ele>
        <time>2016-03-14T19:25:24.000Z</time>
      </trkpt>
      <trkpt lat="48.86412" lon="2.33988">
        <ele>50</ele>
        <time>2016-03-14T19:25:28.000Z</time>
      </trkpt>
      <trkpt lat="48.86433" lon="2.33996">
        <ele>50.799999237061</ele>
        <time>2016-03-14T19:25:33.000Z</time>
      </trkpt>
      <trkpt lat="48.86451" lon="2.34002">
        <ele>50.599998474121</ele>
        <time>2016-03-14T19:25:39.000Z</time>
      </trkpt>
      <trkpt lat="48.8647" lon="2.34011">
        <ele>50.200000762939</ele>
        <time>2016-03-14T19:25:43.000Z</time>
      </trkpt>
      <trkpt lat="48.86488" lon="2.34022">
        <ele>49.799999237061</ele>
        <time>2016-03-14T19:25:48.000Z</time>
      </trkpt>
      <trkpt lat="48.86509" lon="2.34033">
        <ele>49.400001525879</ele>
        <time>2016-03-14T19:25:53.000Z</time>
      </trkpt>
      <trkpt lat="48.86526" lon="2.34042">
        <ele>49</ele>
        <time>2016-03-14T19:25:57.000Z</time>
      </trkpt>
      <trkpt lat="48.86544" lon="2.34055">
        <ele>49.200000762939</ele>
        <time>2016-03-14T19:26:02.000Z</time>
      </trkpt>
      <trkpt lat="48.8656" lon="2.34072">
        <ele>49.400001525879</ele>
        <time>2016-03-14T19:26:08.000Z</time>
      </trkpt>
      <trkpt lat="48.86572" lon="2.34096">
        <ele>49.200000762939</ele>
        <time>2016-03-14T19:26:14.000Z</time>
      </trkpt>
      <trkpt lat="48.86591" lon="2.34106">
        <ele>48.799999237061</ele>
        <time>2016-03-14T19:26:18.000Z</time>
      </trkpt>
      <trkpt lat="48.8661" lon="2.34122">
        <ele>48.599998474121</ele>
        <time>2016-03-14T19:26:21.000Z</time>
      </trkpt>
      <trkpt lat="48.86629" lon="2.34117">
        <ele>48.799999237061</ele>
        <time>2016-03-14T19:26:25.000Z</time>
      </trkpt>
      <trkpt lat="48.86636" lon="2.34113">
        <ele>49</ele>
        <time>2016-03-14T19:26:27.000Z</time>
      </trkpt>
      <trkpt lat="48.86641" lon="2.34109">
        <ele>49</ele>
        <time>2016-03-14T19:26:29.000Z</time>
      </trkpt>
      <trkpt lat="48.86639" lon="2.34089">
        <ele>49</ele>
        <time>2016-03-14T19:26:34.000Z</time>
      </trkpt>
      <trkpt lat="48.86648" lon="2.34063">
        <ele>49.400001525879</ele>
        <time>2016-03-14T19:26:39.000Z</time>
      </trkpt>
      <trkpt lat="48.86661" lon="2.34041">
        <ele>50</ele>
        <time>2016-03-14T19:26:43.000Z</time>
      </trkpt>
      <trkpt lat="48.86677" lon="2.34021">
        <ele>50.400001525879</ele>
        <time>2016-03-14T19:26:47.000Z</time>
      </trkpt>
      <trkpt lat="48.86691" lon="2.34002">
        <ele>50.799999237061</ele>
        <time>2016-03-14T19:26:51.000Z</time>
      </trkpt>
      <trkpt lat="48.86689" lon="2.3399">
        <ele>50.799999237061</ele>
        <time>2016-03-14T19:26:53.000Z</time>
      </trkpt>
      <trkpt lat="48.86689" lon="2.33953">
        <ele>49.400001525879</ele>
        <time>2016-03-14T19:26:58.000Z</time>
      </trkpt>
      <trkpt lat="48.86692" lon="2.33926">
        <ele>48.400001525879</ele>
        <time>2016-03-14T19:27:01.000Z</time>
      </trkpt>
      <trkpt lat="48.86702" lon="2.33905">
        <ele>48.200000762939</ele>
        <time>2016-03-14T19:27:04.000Z</time>
      </trkpt>
      <trkpt lat="48.86711" lon="2.33878">
        <ele>48.599998474121</ele>
        <time>2016-03-14T19:27:08.000Z</time>
      </trkpt>
      <trkpt lat="48.86716" lon="2.33847">
        <ele>49</ele>
        <time>2016-03-14T19:27:13.000Z</time>
      </trkpt>
      <trkpt lat="48.86704" lon="2.33807">
        <ele>49.599998474121</ele>
        <time>2016-03-14T19:27:18.000Z</time>
      </trkpt>
      <trkpt lat="48.86699" lon="2.33774">
        <ele>50.400001525879</ele>
        <time>2016-03-14T19:27:24.000Z</time>
      </trkpt>
      <trkpt lat="48.86691" lon="2.33749">
        <ele>51</ele>
        <time>2016-03-14T19:27:29.000Z</time>
      </trkpt>
      <trkpt lat="48.86686" lon="2.33724">
        <ele>51</ele>
        <time>2016-03-14T19:27:33.000Z</time>
      </trkpt>
      <trkpt lat="48.8669" lon="2.33697">
        <ele>51</ele>
        <time>2016-03-14T19:27:37.000Z</time>
      </trkpt>
      <trkpt lat="48.86694" lon="2.33672">
        <ele>51</ele>
        <time>2016-03-14T19:27:41.000Z</time>
      </trkpt>
      <trkpt lat="48.867" lon="2.33646">
        <ele>51</ele>
        <time>2016-03-14T19:27:45.000Z</time>
      </trkpt>
      <trkpt lat="48.86705" lon="2.33624">
        <ele>50.799999237061</ele>
        <time>2016-03-14T19:27:48.000Z</time>
      </trkpt>
      <trkpt lat="48.86715" lon="2.33593">
        <ele>50.200000762939</ele>
        <time>2016-03-14T19:27:53.000Z</time>
      </trkpt>
      <trkpt lat="48.86729" lon="2.33573">
        <ele>50</ele>
        <time>2016-03-14T19:27:57.000Z</time>
      </trkpt>
      <trkpt lat="48.86736" lon="2.33548">
        <ele>50</ele>
        <time>2016-03-14T19:28:01.000Z</time>
      </trkpt>
      <trkpt lat="48.8675" lon="2.33524">
        <ele>50</ele>
        <time>2016-03-14T19:28:05.000Z</time>
      </trkpt>
      <trkpt lat="48.86767" lon="2.33505">
        <ele>50</ele>
        <time>2016-03-14T19:28:09.000Z</time>
      </trkpt>
      <trkpt lat="48.86786" lon="2.33495">
        <ele>49.799999237061</ele>
        <time>2016-03-14T19:28:13.000Z</time>
      </trkpt>
      <trkpt lat="48.8679" lon="2.33493">
        <ele>49.799999237061</ele>
        <time>2016-03-14T19:28:14.000Z</time>
      </trkpt>
      <trkpt lat="48.868" lon="2.33488">
        <ele>49.799999237061</ele>
        <time>2016-03-14T19:28:17.000Z</time>
      </trkpt>
      <trkpt lat="48.8681" lon="2.33485">
        <ele>49.599998474121</ele>
        <time>2016-03-14T19:28:19.000Z</time>
      </trkpt>
      <trkpt lat="48.86829" lon="2.33486">
        <ele>49.400001525879</ele>
        <time>2016-03-14T19:28:22.000Z</time>
      </trkpt>
      <trkpt lat="48.86842" lon="2.3349">
        <ele>49.200000762939</ele>
        <time>2016-03-14T19:28:24.000Z</time>
      </trkpt>
      <trkpt lat="48.86855" lon="2.33496">
        <ele>49</ele>
        <time>2016-03-14T19:28:26.000Z</time>
      </trkpt>
      <trkpt lat="48.86845" lon="2.33525">
        <ele>48.400001525879</ele>
        <time>2016-03-14T19:28:36.000Z</time>
      </trkpt>
      <trkpt lat="48.86839" lon="2.33528">
        <ele>48.400001525879</ele>
        <time>2016-03-14T19:28:40.000Z</time>
      </trkpt>
      <trkpt lat="48.86849" lon="2.33534">
        <ele>48.200000762939</ele>
        <time>2016-03-14T19:28:46.000Z</time>
      </trkpt>
      <trkpt lat="48.86863" lon="2.33521">
        <ele>48.599998474121</ele>
        <time>2016-03-14T19:28:50.000Z</time>
      </trkpt>
      <trkpt lat="48.86864" lon="2.33507">
        <ele>48.799999237061</ele>
        <time>2016-03-14T19:28:53.000Z</time>
      </trkpt>
      <trkpt lat="48.86871" lon="2.3349">
        <ele>49</ele>
        <time>2016-03-14T19:28:57.000Z</time>
      </trkpt>
      <trkpt lat="48.86869" lon="2.33482">
        <ele>49.200000762939</ele>
        <time>2016-03-14T19:29:01.000Z</time>
      </trkpt>
      <trkpt lat="48.86867" lon="2.33477">
        <ele>49.400001525879</ele>
        <time>2016-03-14T19:29:03.000Z</time>
      </trkpt>
      <trkpt lat="48.86849" lon="2.33466">
        <ele>49.799999237061</ele>
        <time>2016-03-14T19:29:10.000Z</time>
      </trkpt>
      <trkpt lat="48.86835" lon="2.33484">
        <ele>49.400001525879</ele>
        <time>2016-03-14T19:29:13.000Z</time>
      </trkpt>
      <trkpt lat="48.86833" lon="2.33487">
        <ele>49.400001525879</ele>
        <time>2016-03-14T19:29:14.000Z</time>
      </trkpt>
      <trkpt lat="48.86823" lon="2.33488">
        <ele>49.599998474121</ele>
        <time>2016-03-14T19:29:21.000Z</time>
      </trkpt>
      <trkpt lat="48.86844" lon="2.33469">
        <ele>49.599998474121</ele>
        <time>2016-03-14T19:29:26.000Z</time>
      </trkpt>
      <trkpt lat="48.86847" lon="2.33466">
        <ele>49.799999237061</ele>
        <time>2016-03-14T19:29:27.000Z</time>
      </trkpt>
      <trkpt lat="48.86862" lon="2.33445">
        <ele>50.200000762939</ele>
        <time>2016-03-14T19:29:33.000Z</time>
      </trkpt>
      <trkpt lat="48.86854" lon="2.33423">
        <ele>50.799999237061</ele>
        <time>2016-03-14T19:29:38.000Z</time>
      </trkpt>
      <trkpt lat="48.86842" lon="2.33396">
        <ele>50.599998474121</ele>
        <time>2016-03-14T19:29:42.000Z</time>
      </trkpt>
      <trkpt lat="48.86817" lon="2.3336">
        <ele>49.799999237061</ele>
        <time>2016-03-14T19:29:47.000Z</time>
      </trkpt>
      <trkpt lat="48.86819" lon="2.33326">
        <ele>49.400001525879</ele>
        <time>2016-03-14T19:29:52.000Z</time>
      </trkpt>
      <trkpt lat="48.86825" lon="2.33299">
        <ele>48.799999237061</ele>
        <time>2016-03-14T19:29:56.000Z</time>
      </trkpt>
      <trkpt lat="48.86833" lon="2.33273">
        <ele>49.200000762939</ele>
        <time>2016-03-14T19:30:00.000Z</time>
      </trkpt>
      <trkpt lat="48.86842" lon="2.33249">
        <ele>49.400001525879</ele>
        <time>2016-03-14T19:30:04.000Z</time>
      </trkpt>
      <trkpt lat="48.86848" lon="2.33223">
        <ele>49.599998474121</ele>
        <time>2016-03-14T19:30:08.000Z</time>
      </trkpt>
      <trkpt lat="48.86857" lon="2.33196">
        <ele>50</ele>
        <time>2016-03-14T19:30:12.000Z</time>
      </trkpt>
      <trkpt lat="48.86855" lon="2.33166">
        <ele>50</ele>
        <time>2016-03-14T19:30:16.000Z</time>
      </trkpt>
      <trkpt lat="48.8685" lon="2.33135">
        <ele>50.200000762939</ele>
        <time>2016-03-14T19:30:20.000Z</time>
      </trkpt>
      <trkpt lat="48.86847" lon="2.33105">
        <ele>50.400001525879</ele>
        <time>2016-03-14T19:30:24.000Z</time>
      </trkpt>
      <trkpt lat="48.86849" lon="2.33076">
        <ele>50.400001525879</ele>
        <time>2016-03-14T19:30:28.000Z</time>
      </trkpt>
      <trkpt lat="48.86857" lon="2.33051">
        <ele>49.200000762939</ele>
        <time>2016-03-14T19:30:32.000Z</time>
      </trkpt>
      <trkpt lat="48.86864" lon="2.33022">
        <ele>47.599998474121</ele>
        <time>2016-03-14T19:30:37.000Z</time>
      </trkpt>
      <trkpt lat="48.86876" lon="2.32996">
        <ele>47.200000762939</ele>
        <time>2016-03-14T19:30:42.000Z</time>
      </trkpt>
      <trkpt lat="48.86889" lon="2.32974">
        <ele>48</ele>
        <time>2016-03-14T19:30:47.000Z</time>
      </trkpt>
      <trkpt lat="48.86901" lon="2.3296">
        <ele>48.599998474121</ele>
        <time>2016-03-14T19:30:51.000Z</time>
      </trkpt>
      <trkpt lat="48.86916" lon="2.32941">
        <ele>49.200000762939</ele>
        <time>2016-03-14T19:30:54.000Z</time>
      </trkpt>
      <trkpt lat="48.86924" lon="2.32911">
        <ele>49.400001525879</ele>
        <time>2016-03-14T19:31:00.000Z</time>
      </trkpt>
      <trkpt lat="48.86922" lon="2.32902">
        <ele>49.799999237061</ele>
        <time>2016-03-14T19:31:02.000Z</time>
      </trkpt>
      <trkpt lat="48.86926" lon="2.32872">
        <ele>50</ele>
        <time>2016-03-14T19:31:08.000Z</time>
      </trkpt>
      <trkpt lat="48.86928" lon="2.32869">
        <ele>50</ele>
        <time>2016-03-14T19:31:09.000Z</time>
      </trkpt>
      <trkpt lat="48.86945" lon="2.32855">
        <ele>50</ele>
        <time>2016-03-14T19:31:13.000Z</time>
      </trkpt>
      <trkpt lat="48.86961" lon="2.32839">
        <ele>49.599998474121</ele>
        <time>2016-03-14T19:31:16.000Z</time>
      </trkpt>
      <trkpt lat="48.86964" lon="2.32835">
        <ele>49.200000762939</ele>
        <time>2016-03-14T19:31:17.000Z</time>
      </trkpt>
      <trkpt lat="48.87006" lon="2.32842">
        <ele>48</ele>
        <time>2016-03-14T19:31:18.000Z</time>
      </trkpt>
      <trkpt lat="48.87019" lon="2.32839">
        <ele>47.400001525879</ele>
        <time>2016-03-14T19:31:21.000Z</time>
      </trkpt>
      <trkpt lat="48.87022" lon="2.32835">
        <ele>47.200000762939</ele>
        <time>2016-03-14T19:31:24.000Z</time>
      </trkpt>
      <trkpt lat="48.87022" lon="2.32831">
        <ele>47</ele>
        <time>2016-03-14T19:31:26.000Z</time>
      </trkpt>
      <trkpt lat="48.87021" lon="2.32831">
        <ele>47</ele>
        <time>2016-03-14T19:31:28.000Z</time>
      </trkpt>
      <trkpt lat="48.87014" lon="2.3283">
        <ele>47.400001525879</ele>
        <time>2016-03-14T19:31:33.000Z</time>
      </trkpt>
      <trkpt lat="48.87012" lon="2.328">
        <ele>47.400001525879</ele>
        <time>2016-03-14T19:31:44.000Z</time>
      </trkpt>
      <trkpt lat="48.87004" lon="2.32773">
        <ele>47.599998474121</ele>
        <time>2016-03-14T19:31:48.000Z</time>
      </trkpt>
      <trkpt lat="48.87006" lon="2.3274">
        <ele>47.400001525879</ele>
        <time>2016-03-14T19:31:53.000Z</time>
      </trkpt>
      <trkpt lat="48.87001" lon="2.32712">
        <ele>47.200000762939</ele>
        <time>2016-03-14T19:31:57.000Z</time>
      </trkpt>
      <trkpt lat="48.87007" lon="2.32685">
        <ele>47.599998474121</ele>
        <time>2016-03-14T19:32:01.000Z</time>
      </trkpt>
      <trkpt lat="48.87011" lon="2.32668">
        <ele>47.799999237061</ele>
        <time>2016-03-14T19:32:04.000Z</time>
      </trkpt>
      <trkpt lat="48.87022" lon="2.32641">
        <ele>47.400001525879</ele>
        <time>2016-03-14T19:32:09.000Z</time>
      </trkpt>
      <trkpt lat="48.8703" lon="2.32611">
        <ele>47</ele>
        <time>2016-03-14T19:32:15.000Z</time>
      </trkpt>
      <trkpt lat="48.87034" lon="2.32597">
        <ele>46.599998474121</ele>
        <time>2016-03-14T19:32:19.000Z</time>
      </trkpt>
      <trkpt lat="48.87052" lon="2.32595">
        <ele>46.799999237061</ele>
        <time>2016-03-14T19:32:29.000Z</time>
      </trkpt>
      <trkpt lat="48.87072" lon="2.326">
        <ele>47.400001525879</ele>
        <time>2016-03-14T19:32:34.000Z</time>
      </trkpt>
      <trkpt lat="48.87091" lon="2.32608">
        <ele>47.799999237061</ele>
        <time>2016-03-14T19:32:38.000Z</time>
      </trkpt>
      <trkpt lat="48.87114" lon="2.32615">
        <ele>48.200000762939</ele>
        <time>2016-03-14T19:32:42.000Z</time>
      </trkpt>
      <trkpt lat="48.87138" lon="2.32621">
        <ele>48</ele>
        <time>2016-03-14T19:32:46.000Z</time>
      </trkpt>
      <trkpt lat="48.87157" lon="2.32623">
        <ele>48.400001525879</ele>
        <time>2016-03-14T19:32:49.000Z</time>
      </trkpt>
      <trkpt lat="48.87181" lon="2.32628">
        <ele>49.200000762939</ele>
        <time>2016-03-14T19:32:53.000Z</time>
      </trkpt>
      <trkpt lat="48.87199" lon="2.32635">
        <ele>49.400001525879</ele>
        <time>2016-03-14T19:32:57.000Z</time>
      </trkpt>
      <trkpt lat="48.87215" lon="2.32637">
        <ele>49.400001525879</ele>
        <time>2016-03-14T19:33:00.000Z</time>
      </trkpt>
      <trkpt lat="48.87231" lon="2.32641">
        <ele>49.200000762939</ele>
        <time>2016-03-14T19:33:03.000Z</time>
      </trkpt>
      <trkpt lat="48.87245" lon="2.32643">
        <ele>49.200000762939</ele>
        <time>2016-03-14T19:33:06.000Z</time>
      </trkpt>
      <trkpt lat="48.8727" lon="2.32654">
        <ele>49</ele>
        <time>2016-03-14T19:33:11.000Z</time>
      </trkpt>
      <trkpt lat="48.87274" lon="2.32657">
        <ele>48.799999237061</ele>
        <time>2016-03-14T19:33:12.000Z</time>
      </trkpt>
      <trkpt lat="48.87283" lon="2.3266">
        <ele>48.799999237061</ele>
        <time>2016-03-14T19:33:15.000Z</time>
      </trkpt>
      <trkpt lat="48.87301" lon="2.32648">
        <ele>48.400001525879</ele>
        <time>2016-03-14T19:33:21.000Z</time>
      </trkpt>
      <trkpt lat="48.87304" lon="2.32654">
        <ele>48.599998474121</ele>
        <time>2016-03-14T19:33:23.000Z</time>
      </trkpt>
      <trkpt lat="48.873" lon="2.32661">
        <ele>48.599998474121</ele>
        <time>2016-03-14T19:33:24.000Z</time>
      </trkpt>
      <trkpt lat="48.87307" lon="2.32683">
        <ele>48.599998474121</ele>
        <time>2016-03-14T19:33:34.000Z</time>
      </trkpt>
      <trkpt lat="48.87309" lon="2.32683">
        <ele>48.599998474121</ele>
        <time>2016-03-14T19:33:35.000Z</time>
      </trkpt>
      <trkpt lat="48.87316" lon="2.32685">
        <ele>48.400001525879</ele>
        <time>2016-03-14T19:33:41.000Z</time>
      </trkpt>
      <trkpt lat="48.87294" lon="2.32693">
        <ele>49</ele>
        <time>2016-03-14T19:33:45.000Z</time>
      </trkpt>
      <trkpt lat="48.87299" lon="2.32675">
        <ele>48.599998474121</ele>
        <time>2016-03-14T19:33:49.000Z</time>
      </trkpt>
      <trkpt lat="48.87318" lon="2.32653">
        <ele>48.400001525879</ele>
        <time>2016-03-14T19:33:53.000Z</time>
      </trkpt>
      <trkpt lat="48.87331" lon="2.32631">
        <ele>48.200000762939</ele>
        <time>2016-03-14T19:33:56.000Z</time>
      </trkpt>
      <trkpt lat="48.87345" lon="2.32606">
        <ele>49.200000762939</ele>
        <time>2016-03-14T19:33:59.000Z</time>
      </trkpt>
      <trkpt lat="48.87358" lon="2.32578">
        <ele>49.799999237061</ele>
        <time>2016-03-14T19:34:03.000Z</time>
      </trkpt>
      <trkpt lat="48.87369" lon="2.32548">
        <ele>48</ele>
        <time>2016-03-14T19:34:07.000Z</time>
      </trkpt>
      <trkpt lat="48.87377" lon="2.32519">
        <ele>46.599998474121</ele>
        <time>2016-03-14T19:34:11.000Z</time>
      </trkpt>
      <trkpt lat="48.87385" lon="2.32492">
        <ele>45.200000762939</ele>
        <time>2016-03-14T19:34:15.000Z</time>
      </trkpt>
      <trkpt lat="48.87392" lon="2.32462">
        <ele>44</ele>
        <time>2016-03-14T19:34:19.000Z</time>
      </trkpt>
      <trkpt lat="48.87396" lon="2.3244">
        <ele>43.799999237061</ele>
        <time>2016-03-14T19:34:22.000Z</time>
      </trkpt>
      <trkpt lat="48.874" lon="2.32412">
        <ele>44</ele>
        <time>2016-03-14T19:34:26.000Z</time>
      </trkpt>
      <trkpt lat="48.874" lon="2.32393">
        <ele>43.400001525879</ele>
        <time>2016-03-14T19:34:29.000Z</time>
      </trkpt>
      <trkpt lat="48.87399" lon="2.32373">
        <ele>43</ele>
        <time>2016-03-14T19:34:32.000Z</time>
      </trkpt>
      <trkpt lat="48.87401" lon="2.32342">
        <ele>43</ele>
        <time>2016-03-14T19:34:37.000Z</time>
      </trkpt>
      <trkpt lat="48.87409" lon="2.32311">
        <ele>43</ele>
        <time>2016-03-14T19:34:42.000Z</time>
      </trkpt>
      <trkpt lat="48.87409" lon="2.32299">
        <ele>43</ele>
        <time>2016-03-14T19:34:44.000Z</time>
      </trkpt>
      <trkpt lat="48.87413" lon="2.32268">
        <ele>44.200000762939</ele>
        <time>2016-03-14T19:34:49.000Z</time>
      </trkpt>
      <trkpt lat="48.87411" lon="2.32248">
        <ele>45</ele>
        <time>2016-03-14T19:34:52.000Z</time>
      </trkpt>
      <trkpt lat="48.87415" lon="2.32216">
        <ele>46.200000762939</ele>
        <time>2016-03-14T19:34:57.000Z</time>
      </trkpt>
      <trkpt lat="48.87416" lon="2.3221">
        <ele>46.400001525879</ele>
        <time>2016-03-14T19:34:58.000Z</time>
      </trkpt>
      <trkpt lat="48.87421" lon="2.32188">
        <ele>47.400001525879</ele>
        <time>2016-03-14T19:35:01.000Z</time>
      </trkpt>
      <trkpt lat="48.87427" lon="2.32162">
        <ele>48.599998474121</ele>
        <time>2016-03-14T19:35:05.000Z</time>
      </trkpt>
      <trkpt lat="48.87434" lon="2.32136">
        <ele>48.400001525879</ele>
        <time>2016-03-14T19:35:09.000Z</time>
      </trkpt>
      <trkpt lat="48.87438" lon="2.32108">
        <ele>48.200000762939</ele>
        <time>2016-03-14T19:35:13.000Z</time>
      </trkpt>
      <trkpt lat="48.87439" lon="2.32078">
        <ele>48</ele>
        <time>2016-03-14T19:35:18.000Z</time>
      </trkpt>
      <trkpt lat="48.87443" lon="2.32054">
        <ele>47.200000762939</ele>
        <time>2016-03-14T19:35:22.000Z</time>
      </trkpt>
      <trkpt lat="48.87445" lon="2.32021">
        <ele>46.400001525879</ele>
        <time>2016-03-14T19:35:28.000Z</time>
      </trkpt>
      <trkpt lat="48.87451" lon="2.31998">
        <ele>46</ele>
        <time>2016-03-14T19:35:35.000Z</time>
      </trkpt>
      <trkpt lat="48.8745" lon="2.31986">
        <ele>46</ele>
        <time>2016-03-14T19:35:42.000Z</time>
      </trkpt>
      <trkpt lat="48.87453" lon="2.31985">
        <ele>46</ele>
        <time>2016-03-14T19:35:46.000Z</time>
      </trkpt>
      <trkpt lat="48.87455" lon="2.31985">
        <ele>46</ele>
        <time>2016-03-14T19:35:47.000Z</time>
      </trkpt>
      <trkpt lat="48.8748" lon="2.3198">
        <ele>46</ele>
        <time>2016-03-14T19:36:09.000Z</time>
      </trkpt>
      <trkpt lat="48.87495" lon="2.31964">
        <ele>45.799999237061</ele>
        <time>2016-03-14T19:36:15.000Z</time>
      </trkpt>
      <trkpt lat="48.87509" lon="2.31946">
        <ele>45.200000762939</ele>
        <time>2016-03-14T19:36:20.000Z</time>
      </trkpt>
      <trkpt lat="48.87526" lon="2.31928">
        <ele>44.200000762939</ele>
        <time>2016-03-14T19:36:25.000Z</time>
      </trkpt>
      <trkpt lat="48.87549" lon="2.3192">
        <ele>43.799999237061</ele>
        <time>2016-03-14T19:36:29.000Z</time>
      </trkpt>
      <trkpt lat="48.87563" lon="2.319">
        <ele>44</ele>
        <time>2016-03-14T19:36:35.000Z</time>
      </trkpt>
      <trkpt lat="48.87569" lon="2.31873">
        <ele>45</ele>
        <time>2016-03-14T19:36:41.000Z</time>
      </trkpt>
      <trkpt lat="48.87564" lon="2.31842">
        <ele>46.799999237061</ele>
        <time>2016-03-14T19:36:47.000Z</time>
      </trkpt>
      <trkpt lat="48.87556" lon="2.31817">
        <ele>47.599998474121</ele>
        <time>2016-03-14T19:36:51.000Z</time>
      </trkpt>
      <trkpt lat="48.87546" lon="2.31789">
        <ele>47.799999237061</ele>
        <time>2016-03-14T19:36:55.000Z</time>
      </trkpt>
      <trkpt lat="48.87539" lon="2.31761">
        <ele>48</ele>
        <time>2016-03-14T19:36:59.000Z</time>
      </trkpt>
      <trkpt lat="48.87532" lon="2.31734">
        <ele>48.400001525879</ele>
        <time>2016-03-14T19:37:03.000Z</time>
      </trkpt>
      <trkpt lat="48.87527" lon="2.31706">
        <ele>48.200000762939</ele>
        <time>2016-03-14T19:37:07.000Z</time>
      </trkpt>
      <trkpt lat="48.87526" lon="2.31681">
        <ele>48.200000762939</ele>
        <time>2016-03-14T19:37:11.000Z</time>
      </trkpt>
      <trkpt lat="48.87526" lon="2.31653">
        <ele>48</ele>
        <time>2016-03-14T19:37:16.000Z</time>
      </trkpt>
      <trkpt lat="48.87517" lon="2.31636">
        <ele>48</ele>
        <time>2016-03-14T19:37:20.000Z</time>
      </trkpt>
      <trkpt lat="48.87511" lon="2.31611">
        <ele>48</ele>
        <time>2016-03-14T19:37:28.000Z</time>
      </trkpt>
      <trkpt lat="48.87508" lon="2.31609">
        <ele>48</ele>
        <time>2016-03-14T19:37:29.000Z</time>
      </trkpt>
      <trkpt lat="48.87512" lon="2.31595">
        <ele>48</ele>
        <time>2016-03-14T19:37:33.000Z</time>
      </trkpt>
      <trkpt lat="48.87525" lon="2.31573">
        <ele>48.200000762939</ele>
        <time>2016-03-14T19:37:41.000Z</time>
      </trkpt>
      <trkpt lat="48.87529" lon="2.31565">
        <ele>48.599998474121</ele>
        <time>2016-03-14T19:37:45.000Z</time>
      </trkpt>
      <trkpt lat="48.87543" lon="2.31543">
        <ele>49.400001525879</ele>
        <time>2016-03-14T19:37:56.000Z</time>
      </trkpt>
      <trkpt lat="48.8754" lon="2.31529">
        <ele>49.599998474121</ele>
        <time>2016-03-14T19:38:02.000Z</time>
      </trkpt>
      <trkpt lat="48.87543" lon="2.31515">
        <ele>50</ele>
        <time>2016-03-14T19:38:07.000Z</time>
      </trkpt>
      <trkpt lat="48.87541" lon="2.31504">
        <ele>50.200000762939</ele>
        <time>2016-03-14T19:38:11.000Z</time>
      </trkpt>
      <trkpt lat="48.87525" lon="2.31483">
        <ele>50.200000762939</ele>
        <time>2016-03-14T19:38:16.000Z</time>
      </trkpt>
      <trkpt lat="48.8751" lon="2.31465">
        <ele>50.599998474121</ele>
        <time>2016-03-14T19:38:23.000Z</time>
      </trkpt>
      <trkpt lat="48.87507" lon="2.3144">
        <ele>50.799999237061</ele>
        <time>2016-03-14T19:38:32.000Z</time>
      </trkpt>
      <trkpt lat="48.87514" lon="2.31411">
        <ele>51</ele>
        <time>2016-03-14T19:38:40.000Z</time>
      </trkpt>
      <trkpt lat="48.87529" lon="2.31388">
        <ele>50.599998474121</ele>
        <time>2016-03-14T19:38:46.000Z</time>
      </trkpt>
      <trkpt lat="48.8755" lon="2.31368">
        <ele>50.799999237061</ele>
        <time>2016-03-14T19:38:51.000Z</time>
      </trkpt>
      <trkpt lat="48.87571" lon="2.31356">
        <ele>51.799999237061</ele>
        <time>2016-03-14T19:38:55.000Z</time>
      </trkpt>
      <trkpt lat="48.87591" lon="2.31343">
        <ele>53</ele>
        <time>2016-03-14T19:39:00.000Z</time>
      </trkpt>
      <trkpt lat="48.8761" lon="2.31326">
        <ele>54</ele>
        <time>2016-03-14T19:39:04.000Z</time>
      </trkpt>
      <trkpt lat="48.87617" lon="2.31289">
        <ele>54.599998474121</ele>
        <time>2016-03-14T19:39:12.000Z</time>
      </trkpt>
      <trkpt lat="48.87629" lon="2.31265">
        <ele>54.799999237061</ele>
        <time>2016-03-14T19:39:20.000Z</time>
      </trkpt>
      <trkpt lat="48.87644" lon="2.31245">
        <ele>55</ele>
        <time>2016-03-14T19:39:27.000Z</time>
      </trkpt>
      <trkpt lat="48.87653" lon="2.31221">
        <ele>55</ele>
        <time>2016-03-14T19:39:36.000Z</time>
      </trkpt>
      <trkpt lat="48.8766" lon="2.31193">
        <ele>56.400001525879</ele>
        <time>2016-03-14T19:39:43.000Z</time>
      </trkpt>
      <trkpt lat="48.87665" lon="2.31162">
        <ele>58.400001525879</ele>
        <time>2016-03-14T19:39:50.000Z</time>
      </trkpt>
      <trkpt lat="48.87666" lon="2.31135">
        <ele>58.200000762939</ele>
        <time>2016-03-14T19:39:56.000Z</time>
      </trkpt>
      <trkpt lat="48.87677" lon="2.31112">
        <ele>59.799999237061</ele>
        <time>2016-03-14T19:40:04.000Z</time>
      </trkpt>
      <trkpt lat="48.87682" lon="2.31085">
        <ele>61</ele>
        <time>2016-03-14T19:40:14.000Z</time>
      </trkpt>
      <trkpt lat="48.87701" lon="2.31071">
        <ele>61</ele>
        <time>2016-03-14T19:40:19.000Z</time>
      </trkpt>
      <trkpt lat="48.87719" lon="2.31058">
        <ele>59.400001525879</ele>
        <time>2016-03-14T19:40:24.000Z</time>
      </trkpt>
      <trkpt lat="48.87741" lon="2.31052">
        <ele>58.200000762939</ele>
        <time>2016-03-14T19:40:28.000Z</time>
      </trkpt>
      <trkpt lat="48.87738" lon="2.31024">
        <ele>57</ele>
        <time>2016-03-14T19:40:38.000Z</time>
      </trkpt>
      <trkpt lat="48.87739" lon="2.31021">
        <ele>56.799999237061</ele>
        <time>2016-03-14T19:40:39.000Z</time>
      </trkpt>
      <trkpt lat="48.87746" lon="2.31009">
        <ele>56.400001525879</ele>
        <time>2016-03-14T19:40:43.000Z</time>
      </trkpt>
      <trkpt lat="48.87753" lon="2.30986">
        <ele>55.599998474121</ele>
        <time>2016-03-14T19:40:49.000Z</time>
      </trkpt>
      <trkpt lat="48.87751" lon="2.30976">
        <ele>55.200000762939</ele>
        <time>2016-03-14T19:40:53.000Z</time>
      </trkpt>
      <trkpt lat="48.8774" lon="2.30958">
        <ele>55</ele>
        <time>2016-03-14T19:41:16.000Z</time>
      </trkpt>
      <trkpt lat="48.87736" lon="2.30931">
        <ele>55.400001525879</ele>
        <time>2016-03-14T19:41:21.000Z</time>
      </trkpt>
      <trkpt lat="48.87735" lon="2.30898">
        <ele>56.200000762939</ele>
        <time>2016-03-14T19:41:27.000Z</time>
      </trkpt>
      <trkpt lat="48.87737" lon="2.30868">
        <ele>57.599998474121</ele>
        <time>2016-03-14T19:41:32.000Z</time>
      </trkpt>
      <trkpt lat="48.87733" lon="2.30838">
        <ele>58.799999237061</ele>
        <time>2016-03-14T19:41:36.000Z</time>
      </trkpt>
      <trkpt lat="48.87731" lon="2.30811">
        <ele>59.200000762939</ele>
        <time>2016-03-14T19:41:40.000Z</time>
      </trkpt>
      <trkpt lat="48.87733" lon="2.3078">
        <ele>59.599998474121</ele>
        <time>2016-03-14T19:41:45.000Z</time>
      </trkpt>
      <trkpt lat="48.87734" lon="2.30748">
        <ele>59.599998474121</ele>
        <time>2016-03-14T19:41:50.000Z</time>
      </trkpt>
      <trkpt lat="48.87732" lon="2.30727">
        <ele>58.799999237061</ele>
        <time>2016-03-14T19:41:53.000Z</time>
      </trkpt>
      <trkpt lat="48.87732" lon="2.30695">
        <ele>57.799999237061</ele>
        <time>2016-03-14T19:41:58.000Z</time>
      </trkpt>
      <trkpt lat="48.87733" lon="2.30688">
        <ele>57.799999237061</ele>
        <time>2016-03-14T19:41:59.000Z</time>
      </trkpt>
      <trkpt lat="48.87737" lon="2.30656">
        <ele>57.400001525879</ele>
        <time>2016-03-14T19:42:03.000Z</time>
      </trkpt>
      <trkpt lat="48.87739" lon="2.3065">
        <ele>57.599998474121</ele>
        <time>2016-03-14T19:42:04.000Z</time>
      </trkpt>
      <trkpt lat="48.87743" lon="2.30636">
        <ele>58.200000762939</ele>
        <time>2016-03-14T19:42:06.000Z</time>
      </trkpt>
      <trkpt lat="48.87752" lon="2.30612">
        <ele>58</ele>
        <time>2016-03-14T19:42:10.000Z</time>
      </trkpt>
      <trkpt lat="48.87764" lon="2.30586">
        <ele>57.799999237061</ele>
        <time>2016-03-14T19:42:15.000Z</time>
      </trkpt>
      <trkpt lat="48.87778" lon="2.30564">
        <ele>57.599998474121</ele>
        <time>2016-03-14T19:42:20.000Z</time>
      </trkpt>
      <trkpt lat="48.87791" lon="2.30541">
        <ele>56.200000762939</ele>
        <time>2016-03-14T19:42:26.000Z</time>
      </trkpt>
      <trkpt lat="48.87793" lon="2.30538">
        <ele>56</ele>
        <time>2016-03-14T19:42:27.000Z</time>
      </trkpt>
      <trkpt lat="48.87796" lon="2.30522">
        <ele>55.799999237061</ele>
        <time>2016-03-14T19:42:31.000Z</time>
      </trkpt>
      <trkpt lat="48.87798" lon="2.30494">
        <ele>56.799999237061</ele>
        <time>2016-03-14T19:42:37.000Z</time>
      </trkpt>
      <trkpt lat="48.8779" lon="2.30469">
        <ele>57.599998474121</ele>
        <time>2016-03-14T19:42:42.000Z</time>
      </trkpt>
      <trkpt lat="48.87779" lon="2.30445">
        <ele>58.400001525879</ele>
        <time>2016-03-14T19:42:47.000Z</time>
      </trkpt>
      <trkpt lat="48.87767" lon="2.30419">
        <ele>58.599998474121</ele>
        <time>2016-03-14T19:42:52.000Z</time>
      </trkpt>
      <trkpt lat="48.87754" lon="2.30394">
        <ele>58.799999237061</ele>
        <time>2016-03-14T19:42:57.000Z</time>
      </trkpt>
      <trkpt lat="48.87741" lon="2.30371">
        <ele>58.200000762939</ele>
        <time>2016-03-14T19:43:01.000Z</time>
      </trkpt>
      <trkpt lat="48.87731" lon="2.30346">
        <ele>57.599998474121</ele>
        <time>2016-03-14T19:43:05.000Z</time>
      </trkpt>
      <trkpt lat="48.87718" lon="2.30323">
        <ele>57.400001525879</ele>
        <time>2016-03-14T19:43:09.000Z</time>
      </trkpt>
      <trkpt lat="48.87705" lon="2.30298">
        <ele>58.400001525879</ele>
        <time>2016-03-14T19:43:13.000Z</time>
      </trkpt>
      <trkpt lat="48.87695" lon="2.30273">
        <ele>59.200000762939</ele>
        <time>2016-03-14T19:43:17.000Z</time>
      </trkpt>
      <trkpt lat="48.87684" lon="2.30246">
        <ele>60.200000762939</ele>
        <time>2016-03-14T19:43:22.000Z</time>
      </trkpt>
      <trkpt lat="48.87678" lon="2.30229">
        <ele>61</ele>
        <time>2016-03-14T19:43:25.000Z</time>
      </trkpt>
      <trkpt lat="48.87666" lon="2.30202">
        <ele>62.400001525879</ele>
        <time>2016-03-14T19:43:30.000Z</time>
      </trkpt>
      <trkpt lat="48.87664" lon="2.30197">
        <ele>62.799999237061</ele>
        <time>2016-03-14T19:43:31.000Z</time>
      </trkpt>
      <trkpt lat="48.87659" lon="2.30167">
        <ele>64</ele>
        <time>2016-03-14T19:43:35.000Z</time>
      </trkpt>
      <trkpt lat="48.87663" lon="2.3016">
        <ele>64</ele>
        <time>2016-03-14T19:43:36.000Z</time>
      </trkpt>
      <trkpt lat="48.87669" lon="2.30133">
        <ele>64.199996948242</ele>
        <time>2016-03-14T19:43:40.000Z</time>
      </trkpt>
      <trkpt lat="48.87673" lon="2.30119">
        <ele>64.400001525879</ele>
        <time>2016-03-14T19:43:43.000Z</time>
      </trkpt>
      <trkpt lat="48.87677" lon="2.3011">
        <ele>64.599998474121</ele>
        <time>2016-03-14T19:43:45.000Z</time>
      </trkpt>
      <trkpt lat="48.87681" lon="2.30094">
        <ele>64.800003051758</ele>
        <time>2016-03-14T19:43:49.000Z</time>
      </trkpt>
      <trkpt lat="48.87683" lon="2.30084">
        <ele>65</ele>
        <time>2016-03-14T19:43:51.000Z</time>
      </trkpt>
      <trkpt lat="48.87686" lon="2.30071">
        <ele>65</ele>
        <time>2016-03-14T19:43:54.000Z</time>
      </trkpt>
      <trkpt lat="48.87696" lon="2.30046">
        <ele>63.799999237061</ele>
        <time>2016-03-14T19:44:01.000Z</time>
      </trkpt>
      <trkpt lat="48.87713" lon="2.30031">
        <ele>62.799999237061</ele>
        <time>2016-03-14T19:44:06.000Z</time>
      </trkpt>
      <trkpt lat="48.87725" lon="2.30007">
        <ele>61.599998474121</ele>
        <time>2016-03-14T19:44:13.000Z</time>
      </trkpt>
      <trkpt lat="48.87736" lon="2.29981">
        <ele>60.400001525879</ele>
        <time>2016-03-14T19:44:20.000Z</time>
      </trkpt>
      <trkpt lat="48.87748" lon="2.29954">
        <ele>58.799999237061</ele>
        <time>2016-03-14T19:44:27.000Z</time>
      </trkpt>
      <trkpt lat="48.87762" lon="2.29934">
        <ele>56.799999237061</ele>
        <time>2016-03-14T19:44:32.000Z</time>
      </trkpt>
      <trkpt lat="48.87766" lon="2.29901">
        <ele>55</ele>
        <time>2016-03-14T19:44:37.000Z</time>
      </trkpt>
      <trkpt lat="48.87776" lon="2.29874">
        <ele>52.599998474121</ele>
        <time>2016-03-14T19:44:43.000Z</time>
      </trkpt>
      <trkpt lat="48.87788" lon="2.29848">
        <ele>50.799999237061</ele>
        <time>2016-03-14T19:44:47.000Z</time>
      </trkpt>
      <trkpt lat="48.87794" lon="2.29822">
        <ele>50.200000762939</ele>
        <time>2016-03-14T19:44:55.000Z</time>
      </trkpt>
      <trkpt lat="48.87799" lon="2.29792">
        <ele>51</ele>
        <time>2016-03-14T19:45:04.000Z</time>
      </trkpt>
      <trkpt lat="48.87814" lon="2.29769">
        <ele>51.200000762939</ele>
        <time>2016-03-14T19:45:10.000Z</time>
      </trkpt>
      <trkpt lat="48.87825" lon="2.29743">
        <ele>51.400001525879</ele>
        <time>2016-03-14T19:45:16.000Z</time>
      </trkpt>
      <trkpt lat="48.87827" lon="2.29714">
        <ele>51</ele>
        <time>2016-03-14T19:45:20.000Z</time>
      </trkpt>
      <trkpt lat="48.87826" lon="2.29683">
        <ele>50.599998474121</ele>
        <time>2016-03-14T19:45:24.000Z</time>
      </trkpt>
      <trkpt lat="48.87832" lon="2.29651">
        <ele>50.599998474121</ele>
        <time>2016-03-14T19:45:28.000Z</time>
      </trkpt>
      <trkpt lat="48.87831" lon="2.29622">
        <ele>50.799999237061</ele>
        <time>2016-03-14T19:45:32.000Z</time>
      </trkpt>
      <trkpt lat="48.87826" lon="2.29589">
        <ele>50.599998474121</ele>
        <time>2016-03-14T19:45:38.000Z</time>
      </trkpt>
      <trkpt lat="48.8783" lon="2.29561">
        <ele>50.400001525879</ele>
        <time>2016-03-14T19:45:43.000Z</time>
      </trkpt>
      <trkpt lat="48.87838" lon="2.29529">
        <ele>50.799999237061</ele>
        <time>2016-03-14T19:45:48.000Z</time>
      </trkpt>
      <trkpt lat="48.87844" lon="2.295">
        <ele>51.400001525879</ele>
        <time>2016-03-14T19:45:52.000Z</time>
      </trkpt>
      <trkpt lat="48.87851" lon="2.29472">
        <ele>50.799999237061</ele>
        <time>2016-03-14T19:45:56.000Z</time>
      </trkpt>
      <trkpt lat="48.87859" lon="2.29441">
        <ele>49.599998474121</ele>
        <time>2016-03-14T19:46:01.000Z</time>
      </trkpt>
      <trkpt lat="48.87867" lon="2.29411">
        <ele>49.200000762939</ele>
        <time>2016-03-14T19:46:06.000Z</time>
      </trkpt>
      <trkpt lat="48.87872" lon="2.2939">
        <ele>49.200000762939</ele>
        <time>2016-03-14T19:46:09.000Z</time>
      </trkpt>
      <trkpt lat="48.87874" lon="2.29374">
        <ele>49</ele>
        <time>2016-03-14T19:46:11.000Z</time>
      </trkpt>
      <trkpt lat="48.87879" lon="2.29344">
        <ele>48.799999237061</ele>
        <time>2016-03-14T19:46:15.000Z</time>
      </trkpt>
      <trkpt lat="48.87881" lon="2.29326">
        <ele>48.599998474121</ele>
        <time>2016-03-14T19:46:17.000Z</time>
      </trkpt>
      <trkpt lat="48.87882" lon="2.29312">
        <ele>48.799999237061</ele>
        <time>2016-03-14T19:46:19.000Z</time>
      </trkpt>
      <trkpt lat="48.87888" lon="2.29285">
        <ele>49.400001525879</ele>
        <time>2016-03-14T19:46:23.000Z</time>
      </trkpt>
      <trkpt lat="48.87897" lon="2.29262">
        <ele>48.200000762939</ele>
        <time>2016-03-14T19:46:26.000Z</time>
      </trkpt>
      <trkpt lat="48.87904" lon="2.29231">
        <ele>47.599998474121</ele>
        <time>2016-03-14T19:46:30.000Z</time>
      </trkpt>
      <trkpt lat="48.87909" lon="2.29203">
        <ele>47.799999237061</ele>
        <time>2016-03-14T19:46:34.000Z</time>
      </trkpt>
      <trkpt lat="48.87912" lon="2.29193">
        <ele>47.400001525879</ele>
        <time>2016-03-14T19:46:36.000Z</time>
      </trkpt>
      <trkpt lat="48.87916" lon="2.29185">
        <ele>47</ele>
        <time>2016-03-14T19:46:38.000Z</time>
      </trkpt>
      <trkpt lat="48.87923" lon="2.29172">
        <ele>46.200000762939</ele>
        <time>2016-03-14T19:46:42.000Z</time>
      </trkpt>
      <trkpt lat="48.87929" lon="2.29145">
        <ele>45.599998474121</ele>
        <time>2016-03-14T19:46:47.000Z</time>
      </trkpt>
      <trkpt lat="48.87934" lon="2.29133">
        <ele>45.799999237061</ele>
        <time>2016-03-14T19:46:49.000Z</time>
      </trkpt>
      <trkpt lat="48.87941" lon="2.29108">
        <ele>46.400001525879</ele>
        <time>2016-03-14T19:46:53.000Z</time>
      </trkpt>
      <trkpt lat="48.87947" lon="2.29077">
        <ele>47</ele>
        <time>2016-03-14T19:46:57.000Z</time>
      </trkpt>
      <trkpt lat="48.87955" lon="2.29048">
        <ele>47.400001525879</ele>
        <time>2016-03-14T19:47:01.000Z</time>
      </trkpt>
      <trkpt lat="48.87961" lon="2.29019">
        <ele>47.799999237061</ele>
        <time>2016-03-14T19:47:05.000Z</time>
      </trkpt>
      <trkpt lat="48.87963" lon="2.28988">
        <ele>47.799999237061</ele>
        <time>2016-03-14T19:47:09.000Z</time>
      </trkpt>
      <trkpt lat="48.87965" lon="2.28954">
        <ele>48.200000762939</ele>
        <time>2016-03-14T19:47:14.000Z</time>
      </trkpt>
      <trkpt lat="48.87964" lon="2.28923">
        <ele>48.400001525879</ele>
        <time>2016-03-14T19:47:19.000Z</time>
      </trkpt>
      <trkpt lat="48.87969" lon="2.28891">
        <ele>48.599998474121</ele>
        <time>2016-03-14T19:47:24.000Z</time>
      </trkpt>
      <trkpt lat="48.87969" lon="2.2888">
        <ele>48.599998474121</ele>
        <time>2016-03-14T19:47:26.000Z</time>
      </trkpt>
      <trkpt lat="48.87973" lon="2.28864">
        <ele>48.799999237061</ele>
        <time>2016-03-14T19:47:29.000Z</time>
      </trkpt>
      <trkpt lat="48.87981" lon="2.28839">
        <ele>48.599998474121</ele>
        <time>2016-03-14T19:47:34.000Z</time>
      </trkpt>
      <trkpt lat="48.87982" lon="2.28834">
        <ele>48.400001525879</ele>
        <time>2016-03-14T19:47:35.000Z</time>
      </trkpt>
      <trkpt lat="48.87985" lon="2.28819">
        <ele>48.400001525879</ele>
        <time>2016-03-14T19:47:39.000Z</time>
      </trkpt>
      <trkpt lat="48.87994" lon="2.28793">
        <ele>48.200000762939</ele>
        <time>2016-03-14T19:47:45.000Z</time>
      </trkpt>
      <trkpt lat="48.87999" lon="2.28788">
        <ele>48</ele>
        <time>2016-03-14T19:47:46.000Z</time>
      </trkpt>
      <trkpt lat="48.88014" lon="2.28765">
        <ele>48</ele>
        <time>2016-03-14T19:47:52.000Z</time>
      </trkpt>
      <trkpt lat="48.88027" lon="2.28739">
        <ele>47.400001525879</ele>
        <time>2016-03-14T19:47:58.000Z</time>
      </trkpt>
      <trkpt lat="48.88035" lon="2.2871">
        <ele>45.799999237061</ele>
        <time>2016-03-14T19:48:03.000Z</time>
      </trkpt>
      <trkpt lat="48.88042" lon="2.28682">
        <ele>44.400001525879</ele>
        <time>2016-03-14T19:48:07.000Z</time>
      </trkpt>
      <trkpt lat="48.88039" lon="2.28651">
        <ele>44.200000762939</ele>
        <time>2016-03-14T19:48:11.000Z</time>
      </trkpt>
      <trkpt lat="48.88039" lon="2.28617">
        <ele>43.799999237061</ele>
        <time>2016-03-14T19:48:16.000Z</time>
      </trkpt>
      <trkpt lat="48.88044" lon="2.2859">
        <ele>43.799999237061</ele>
        <time>2016-03-14T19:48:20.000Z</time>
      </trkpt>
      <trkpt lat="48.88044" lon="2.2856">
        <ele>45.400001525879</ele>
        <time>2016-03-14T19:48:24.000Z</time>
      </trkpt>
      <trkpt lat="48.88046" lon="2.28553">
        <ele>46</ele>
        <time>2016-03-14T19:48:25.000Z</time>
      </trkpt>
      <trkpt lat="48.88051" lon="2.28529">
        <ele>47.599998474121</ele>
        <time>2016-03-14T19:48:29.000Z</time>
      </trkpt>
      <trkpt lat="48.88054" lon="2.28511">
        <ele>47.400001525879</ele>
        <time>2016-03-14T19:48:32.000Z</time>
      </trkpt>
      <trkpt lat="48.88061" lon="2.28484">
        <ele>48.200000762939</ele>
        <time>2016-03-14T19:48:37.000Z</time>
      </trkpt>
      <trkpt lat="48.8807" lon="2.28466">
        <ele>50.200000762939</ele>
        <time>2016-03-14T19:48:41.000Z</time>
      </trkpt>
      <trkpt lat="48.88071" lon="2.28457">
        <ele>50.799999237061</ele>
        <time>2016-03-14T19:48:47.000Z</time>
      </trkpt>
      <trkpt lat="48.88072" lon="2.28456">
        <ele>50.599998474121</ele>
        <time>2016-03-14T19:48:48.000Z</time>
      </trkpt>
      <trkpt lat="48.88075" lon="2.28456">
        <ele>50</ele>
        <time>2016-03-14T19:48:52.000Z</time>
      </trkpt>
      <trkpt lat="48.88079" lon="2.28452">
        <ele>49</ele>
        <time>2016-03-14T19:48:57.000Z</time>
      </trkpt>
      <trkpt lat="48.88077" lon="2.28448">
        <ele>49.400001525879</ele>
        <time>2016-03-14T19:49:01.000Z</time>
      </trkpt>
      <trkpt lat="48.88099" lon="2.28453">
        <ele>43.799999237061</ele>
        <time>2016-03-14T19:49:13.000Z</time>
      </trkpt>
      <trkpt lat="48.88105" lon="2.28461">
        <ele>42.200000762939</ele>
        <time>2016-03-14T19:49:22.000Z</time>
      </trkpt>
      <trkpt lat="48.88102" lon="2.28454">
        <ele>43</ele>
        <time>2016-03-14T19:49:41.000Z</time>
      </trkpt>
      <trkpt lat="48.88106" lon="2.28459">
        <ele>42</ele>
        <time>2016-03-14T19:49:55.000Z</time>
      </trkpt>
      <trkpt lat="48.88099" lon="2.28464">
        <ele>43.799999237061</ele>
        <time>2016-03-14T19:50:48.000Z</time>
      </trkpt>
      <trkpt lat="48.88092" lon="2.28465">
        <ele>45.599998474121</ele>
        <time>2016-03-14T19:50:52.000Z</time>
      </trkpt>
      <trkpt lat="48.88088" lon="2.2846">
        <ele>46.599998474121</ele>
        <time>2016-03-14T19:51:14.000Z</time>
      </trkpt>
      <trkpt lat="48.88087" lon="2.28457">
        <ele>46.799999237061</ele>
        <time>2016-03-14T19:51:21.000Z</time>
      </trkpt>
      <trkpt lat="48.88089" lon="2.28451">
        <ele>46.400001525879</ele>
        <time>2016-03-14T19:51:37.000Z</time>
      </trkpt>
      <trkpt lat="48.88089" lon="2.28441">
        <ele>46.400001525879</ele>
        <time>2016-03-14T19:51:59.000Z</time>
      </trkpt>
      <trkpt lat="48.88103" lon="2.28421">
        <ele>42.799999237061</ele>
        <time>2016-03-14T19:52:12.000Z</time>
      </trkpt>
      <trkpt lat="48.88105" lon="2.28417">
        <ele>42.400001525879</ele>
        <time>2016-03-14T19:52:14.000Z</time>
      </trkpt>
      <trkpt lat="48.88114" lon="2.28391">
        <ele>41.799999237061</ele>
        <time>2016-03-14T19:52:23.000Z</time>
      </trkpt>
      <trkpt lat="48.88109" lon="2.2836">
        <ele>40.200000762939</ele>
        <time>2016-03-14T19:52:30.000Z</time>
      </trkpt>
      <trkpt lat="48.88113" lon="2.28329">
        <ele>39</ele>
        <time>2016-03-14T19:52:36.000Z</time>
      </trkpt>
      <trkpt lat="48.88118" lon="2.28299">
        <ele>39</ele>
        <time>2016-03-14T19:52:42.000Z</time>
      </trkpt>
      <trkpt lat="48.88124" lon="2.28269">
        <ele>39</ele>
        <time>2016-03-14T19:52:48.000Z</time>
      </trkpt>
      <trkpt lat="48.8813" lon="2.28241">
        <ele>38.200000762939</ele>
        <time>2016-03-14T19:52:53.000Z</time>
      </trkpt>
      <trkpt lat="48.88137" lon="2.28214">
        <ele>39.400001525879</ele>
        <time>2016-03-14T19:52:59.000Z</time>
      </trkpt>
      <trkpt lat="48.88144" lon="2.28202">
        <ele>39.799999237061</ele>
        <time>2016-03-14T19:53:02.000Z</time>
      </trkpt>
      <trkpt lat="48.88147" lon="2.28199">
        <ele>39.799999237061</ele>
        <time>2016-03-14T19:53:04.000Z</time>
      </trkpt>
      <trkpt lat="48.88152" lon="2.28196">
        <ele>39.599998474121</ele>
        <time>2016-03-14T19:53:08.000Z</time>
      </trkpt>
      <trkpt lat="48.88155" lon="2.28167">
        <ele>40.400001525879</ele>
        <time>2016-03-14T19:53:18.000Z</time>
      </trkpt>
      <trkpt lat="48.88158" lon="2.2814">
        <ele>41.200000762939</ele>
        <time>2016-03-14T19:53:24.000Z</time>
      </trkpt>
      <trkpt lat="48.88163" lon="2.2811">
        <ele>43.400001525879</ele>
        <time>2016-03-14T19:53:30.000Z</time>
      </trkpt>
      <trkpt lat="48.88171" lon="2.28077">
        <ele>46.200000762939</ele>
        <time>2016-03-14T19:53:35.000Z</time>
      </trkpt>
      <trkpt lat="48.88176" lon="2.28051">
        <ele>46.400001525879</ele>
        <time>2016-03-14T19:53:39.000Z</time>
      </trkpt>
      <trkpt lat="48.88184" lon="2.28025">
        <ele>47.200000762939</ele>
        <time>2016-03-14T19:53:43.000Z</time>
      </trkpt>
      <trkpt lat="48.88193" lon="2.27999">
        <ele>48</ele>
        <time>2016-03-14T19:53:47.000Z</time>
      </trkpt>
      <trkpt lat="48.882" lon="2.27972">
        <ele>47.200000762939</ele>
        <time>2016-03-14T19:53:51.000Z</time>
      </trkpt>
      <trkpt lat="48.88207" lon="2.27944">
        <ele>46.200000762939</ele>
        <time>2016-03-14T19:53:55.000Z</time>
      </trkpt>
      <trkpt lat="48.88213" lon="2.27914">
        <ele>44.200000762939</ele>
        <time>2016-03-14T19:53:59.000Z</time>
      </trkpt>
      <trkpt lat="48.8822" lon="2.27885">
        <ele>44</ele>
        <time>2016-03-14T19:54:03.000Z</time>
      </trkpt>
      <trkpt lat="48.88225" lon="2.27862">
        <ele>43.799999237061</ele>
        <time>2016-03-14T19:54:06.000Z</time>
      </trkpt>
      <trkpt lat="48.88232" lon="2.27831">
        <ele>43</ele>
        <time>2016-03-14T19:54:10.000Z</time>
      </trkpt>
      <trkpt lat="48.8824" lon="2.27803">
        <ele>42.599998474121</ele>
        <time>2016-03-14T19:54:14.000Z</time>
      </trkpt>
      <trkpt lat="48.88246" lon="2.27777">
        <ele>43.200000762939</ele>
        <time>2016-03-14T19:54:18.000Z</time>
      </trkpt>
      <trkpt lat="48.88252" lon="2.27745">
        <ele>44.200000762939</ele>
        <time>2016-03-14T19:54:23.000Z</time>
      </trkpt>
      <trkpt lat="48.88253" lon="2.27739">
        <ele>44.400001525879</ele>
        <time>2016-03-14T19:54:24.000Z</time>
      </trkpt>
      <trkpt lat="48.88258" lon="2.27707">
        <ele>45.200000762939</ele>
        <time>2016-03-14T19:54:29.000Z</time>
      </trkpt>
      <trkpt lat="48.88263" lon="2.27675">
        <ele>45.799999237061</ele>
        <time>2016-03-14T19:54:33.000Z</time>
      </trkpt>
      <trkpt lat="48.88268" lon="2.27646">
        <ele>46.799999237061</ele>
        <time>2016-03-14T19:54:37.000Z</time>
      </trkpt>
      <trkpt lat="48.88271" lon="2.2764">
        <ele>47</ele>
        <time>2016-03-14T19:54:38.000Z</time>
      </trkpt>
      <trkpt lat="48.88273" lon="2.27609">
        <ele>48.599998474121</ele>
        <time>2016-03-14T19:54:42.000Z</time>
      </trkpt>
      <trkpt lat="48.88274" lon="2.27602">
        <ele>48.799999237061</ele>
        <time>2016-03-14T19:54:43.000Z</time>
      </trkpt>
      <trkpt lat="48.88281" lon="2.27572">
        <ele>49.599998474121</ele>
        <time>2016-03-14T19:54:47.000Z</time>
      </trkpt>
      <trkpt lat="48.88291" lon="2.27542">
        <ele>49.599998474121</ele>
        <time>2016-03-14T19:54:51.000Z</time>
      </trkpt>
      <trkpt lat="48.88299" lon="2.27512">
        <ele>49.799999237061</ele>
        <time>2016-03-14T19:54:55.000Z</time>
      </trkpt>
      <trkpt lat="48.88305" lon="2.27484">
        <ele>48.400001525879</ele>
        <time>2016-03-14T19:54:59.000Z</time>
      </trkpt>
      <trkpt lat="48.88313" lon="2.27453">
        <ele>45.599998474121</ele>
        <time>2016-03-14T19:55:03.000Z</time>
      </trkpt>
      <trkpt lat="48.88321" lon="2.27422">
        <ele>44.599998474121</ele>
        <time>2016-03-14T19:55:07.000Z</time>
      </trkpt>
      <trkpt lat="48.88329" lon="2.27396">
        <ele>43.599998474121</ele>
        <time>2016-03-14T19:55:11.000Z</time>
      </trkpt>
      <trkpt lat="48.8834" lon="2.27372">
        <ele>43.599998474121</ele>
        <time>2016-03-14T19:55:16.000Z</time>
      </trkpt>
      <trkpt lat="48.88358" lon="2.27367">
        <ele>43.599998474121</ele>
        <time>2016-03-14T19:55:23.000Z</time>
      </trkpt>
      <trkpt lat="48.88365" lon="2.27359">
        <ele>44.200000762939</ele>
        <time>2016-03-14T19:55:25.000Z</time>
      </trkpt>
      <trkpt lat="48.88374" lon="2.2735">
        <ele>44.599998474121</ele>
        <time>2016-03-14T19:55:28.000Z</time>
      </trkpt>
      <trkpt lat="48.88394" lon="2.27349">
        <ele>44.200000762939</ele>
        <time>2016-03-14T19:55:34.000Z</time>
      </trkpt>
      <trkpt lat="48.88414" lon="2.27359">
        <ele>43.599998474121</ele>
        <time>2016-03-14T19:55:39.000Z</time>
      </trkpt>
      <trkpt lat="48.88432" lon="2.27369">
        <ele>43.200000762939</ele>
        <time>2016-03-14T19:55:44.000Z</time>
      </trkpt>
      <trkpt lat="48.88437" lon="2.27373">
        <ele>43.200000762939</ele>
        <time>2016-03-14T19:55:46.000Z</time>
      </trkpt>
      <trkpt lat="48.88454" lon="2.27383">
        <ele>42.400001525879</ele>
        <time>2016-03-14T19:55:51.000Z</time>
      </trkpt>
      <trkpt lat="48.88475" lon="2.27391">
        <ele>41.400001525879</ele>
        <time>2016-03-14T19:55:56.000Z</time>
      </trkpt>
      <trkpt lat="48.88494" lon="2.274">
        <ele>40.400001525879</ele>
        <time>2016-03-14T19:56:00.000Z</time>
      </trkpt>
      <trkpt lat="48.88515" lon="2.27409">
        <ele>39.400001525879</ele>
        <time>2016-03-14T19:56:04.000Z</time>
      </trkpt>
      <trkpt lat="48.88534" lon="2.27421">
        <ele>39</ele>
        <time>2016-03-14T19:56:08.000Z</time>
      </trkpt>
      <trkpt lat="48.88551" lon="2.27432">
        <ele>39.200000762939</ele>
        <time>2016-03-14T19:56:12.000Z</time>
      </trkpt>
      <trkpt lat="48.88559" lon="2.27436">
        <ele>39.200000762939</ele>
        <time>2016-03-14T19:56:14.000Z</time>
      </trkpt>
      <trkpt lat="48.88577" lon="2.27448">
        <ele>39.200000762939</ele>
        <time>2016-03-14T19:56:18.000Z</time>
      </trkpt>
      <trkpt lat="48.88597" lon="2.27459">
        <ele>39.200000762939</ele>
        <time>2016-03-14T19:56:23.000Z</time>
      </trkpt>
      <trkpt lat="48.88615" lon="2.27471">
        <ele>39.200000762939</ele>
        <time>2016-03-14T19:56:28.000Z</time>
      </trkpt>
      <trkpt lat="48.88632" lon="2.27473">
        <ele>38.799999237061</ele>
        <time>2016-03-14T19:56:31.000Z</time>
      </trkpt>
      <trkpt lat="48.88646" lon="2.2748">
        <ele>38.599998474121</ele>
        <time>2016-03-14T19:56:34.000Z</time>
      </trkpt>
      <trkpt lat="48.88658" lon="2.27486">
        <ele>38.400001525879</ele>
        <time>2016-03-14T19:56:37.000Z</time>
      </trkpt>
      <trkpt lat="48.88676" lon="2.27495">
        <ele>38.400001525879</ele>
        <time>2016-03-14T19:56:41.000Z</time>
      </trkpt>
      <trkpt lat="48.88693" lon="2.27505">
        <ele>38.400001525879</ele>
        <time>2016-03-14T19:56:45.000Z</time>
      </trkpt>
      <trkpt lat="48.88712" lon="2.27517">
        <ele>38</ele>
        <time>2016-03-14T19:56:50.000Z</time>
      </trkpt>
      <trkpt lat="48.8873" lon="2.27526">
        <ele>38</ele>
        <time>2016-03-14T19:56:55.000Z</time>
      </trkpt>
      <trkpt lat="48.88749" lon="2.27542">
        <ele>38</ele>
        <time>2016-03-14T19:57:00.000Z</time>
      </trkpt>
      <trkpt lat="48.88753" lon="2.27543">
        <ele>38</ele>
        <time>2016-03-14T19:57:01.000Z</time>
      </trkpt>
      <trkpt lat="48.88773" lon="2.27549">
        <ele>38</ele>
        <time>2016-03-14T19:57:06.000Z</time>
      </trkpt>
      <trkpt lat="48.8878" lon="2.2755">
        <ele>38</ele>
        <time>2016-03-14T19:57:08.000Z</time>
      </trkpt>
      <trkpt lat="48.88786" lon="2.2755">
        <ele>38.200000762939</ele>
        <time>2016-03-14T19:57:10.000Z</time>
      </trkpt>
      <trkpt lat="48.88795" lon="2.2755">
        <ele>38.200000762939</ele>
        <time>2016-03-14T19:57:13.000Z</time>
      </trkpt>
      <trkpt lat="48.88808" lon="2.27533">
        <ele>38.400001525879</ele>
        <time>2016-03-14T19:57:19.000Z</time>
      </trkpt>
      <trkpt lat="48.88822" lon="2.27507">
        <ele>38.599998474121</ele>
        <time>2016-03-14T19:57:24.000Z</time>
      </trkpt>
      <trkpt lat="48.88836" lon="2.27481">
        <ele>38.799999237061</ele>
        <time>2016-03-14T19:57:28.000Z</time>
      </trkpt>
      <trkpt lat="48.8885" lon="2.27456">
        <ele>39.400001525879</ele>
        <time>2016-03-14T19:57:32.000Z</time>
      </trkpt>
      <trkpt lat="48.88865" lon="2.27429">
        <ele>39.799999237061</ele>
        <time>2016-03-14T19:57:36.000Z</time>
      </trkpt>
      <trkpt lat="48.88878" lon="2.27401">
        <ele>39.200000762939</ele>
        <time>2016-03-14T19:57:40.000Z</time>
      </trkpt>
      <trkpt lat="48.8889" lon="2.27379">
        <ele>38.400001525879</ele>
        <time>2016-03-14T19:57:43.000Z</time>
      </trkpt>
      <trkpt lat="48.889" lon="2.27359">
        <ele>38</ele>
        <time>2016-03-14T19:57:46.000Z</time>
      </trkpt>
      <trkpt lat="48.88915" lon="2.27335">
        <ele>38</ele>
        <time>2016-03-14T19:57:50.000Z</time>
      </trkpt>
      <trkpt lat="48.88921" lon="2.27325">
        <ele>37.799999237061</ele>
        <time>2016-03-14T19:57:52.000Z</time>
      </trkpt>
      <trkpt lat="48.88932" lon="2.27301">
        <ele>37.799999237061</ele>
        <time>2016-03-14T19:57:57.000Z</time>
      </trkpt>
      <trkpt lat="48.88942" lon="2.27282">
        <ele>38</ele>
        <time>2016-03-14T19:58:01.000Z</time>
      </trkpt>
      <trkpt lat="48.88948" lon="2.27272">
        <ele>38</ele>
        <time>2016-03-14T19:58:03.000Z</time>
      </trkpt>
      <trkpt lat="48.88955" lon="2.27256">
        <ele>38.200000762939</ele>
        <time>2016-03-14T19:58:06.000Z</time>
      </trkpt>
      <trkpt lat="48.88963" lon="2.27241">
        <ele>38.200000762939</ele>
        <time>2016-03-14T19:58:09.000Z</time>
      </trkpt>
      <trkpt lat="48.88975" lon="2.27218">
        <ele>37.799999237061</ele>
        <time>2016-03-14T19:58:13.000Z</time>
      </trkpt>
      <trkpt lat="48.88981" lon="2.27206">
        <ele>37.599998474121</ele>
        <time>2016-03-14T19:58:15.000Z</time>
      </trkpt>
      <trkpt lat="48.88993" lon="2.27185">
        <ele>35.599998474121</ele>
        <time>2016-03-14T19:58:19.000Z</time>
      </trkpt>
      <trkpt lat="48.89002" lon="2.27167">
        <ele>34</ele>
        <time>2016-03-14T19:58:22.000Z</time>
      </trkpt>
      <trkpt lat="48.89014" lon="2.27144">
        <ele>33.400001525879</ele>
        <time>2016-03-14T19:58:26.000Z</time>
      </trkpt>
      <trkpt lat="48.89027" lon="2.27121">
        <ele>33</ele>
        <time>2016-03-14T19:58:30.000Z</time>
      </trkpt>
      <trkpt lat="48.89042" lon="2.27097">
        <ele>33.200000762939</ele>
        <time>2016-03-14T19:58:35.000Z</time>
      </trkpt>
      <trkpt lat="48.89054" lon="2.27077">
        <ele>32.599998474121</ele>
        <time>2016-03-14T19:58:40.000Z</time>
      </trkpt>
      <trkpt lat="48.89059" lon="2.27071">
        <ele>32.799999237061</ele>
        <time>2016-03-14T19:58:42.000Z</time>
      </trkpt>
      <trkpt lat="48.8907" lon="2.27056">
        <ele>33</ele>
        <time>2016-03-14T19:58:47.000Z</time>
      </trkpt>
      <trkpt lat="48.89074" lon="2.27049">
        <ele>33.200000762939</ele>
        <time>2016-03-14T19:58:49.000Z</time>
      </trkpt>
      <trkpt lat="48.8909" lon="2.27032">
        <ele>33</ele>
        <time>2016-03-14T19:58:54.000Z</time>
      </trkpt>
      <trkpt lat="48.89106" lon="2.27015">
        <ele>32.799999237061</ele>
        <time>2016-03-14T19:58:58.000Z</time>
      </trkpt>
      <trkpt lat="48.89123" lon="2.26998">
        <ele>33.200000762939</ele>
        <time>2016-03-14T19:59:02.000Z</time>
      </trkpt>
      <trkpt lat="48.89141" lon="2.26978">
        <ele>34</ele>
        <time>2016-03-14T19:59:06.000Z</time>
      </trkpt>
      <trkpt lat="48.8916" lon="2.26959">
        <ele>34.599998474121</ele>
        <time>2016-03-14T19:59:10.000Z</time>
      </trkpt>
      <trkpt lat="48.89178" lon="2.26941">
        <ele>33.200000762939</ele>
        <time>2016-03-14T19:59:14.000Z</time>
      </trkpt>
      <trkpt lat="48.89197" lon="2.26922">
        <ele>32.200000762939</ele>
        <time>2016-03-14T19:59:18.000Z</time>
      </trkpt>
      <trkpt lat="48.89215" lon="2.26901">
        <ele>32.799999237061</ele>
        <time>2016-03-14T19:59:22.000Z</time>
      </trkpt>
      <trkpt lat="48.89234" lon="2.26881">
        <ele>33.400001525879</ele>
        <time>2016-03-14T19:59:26.000Z</time>
      </trkpt>
      <trkpt lat="48.89253" lon="2.26862">
        <ele>34.400001525879</ele>
        <time>2016-03-14T19:59:30.000Z</time>
      </trkpt>
      <trkpt lat="48.89272" lon="2.26844">
        <ele>35.599998474121</ele>
        <time>2016-03-14T19:59:34.000Z</time>
      </trkpt>
      <trkpt lat="48.89289" lon="2.26825">
        <ele>35.599998474121</ele>
        <time>2016-03-14T19:59:38.000Z</time>
      </trkpt>
      <trkpt lat="48.89293" lon="2.26821">
        <ele>35.599998474121</ele>
        <time>2016-03-14T19:59:39.000Z</time>
      </trkpt>
      <trkpt lat="48.89311" lon="2.26804">
        <ele>35.400001525879</ele>
        <time>2016-03-14T19:59:43.000Z</time>
      </trkpt>
      <trkpt lat="48.89329" lon="2.26786">
        <ele>34.799999237061</ele>
        <time>2016-03-14T19:59:47.000Z</time>
      </trkpt>
      <trkpt lat="48.89348" lon="2.26772">
        <ele>33.799999237061</ele>
        <time>2016-03-14T19:59:50.000Z</time>
      </trkpt>
      <trkpt lat="48.89366" lon="2.26755">
        <ele>32.799999237061</ele>
        <time>2016-03-14T19:59:54.000Z</time>
      </trkpt>
      <trkpt lat="48.89374" lon="2.26749">
        <ele>32.400001525879</ele>
        <time>2016-03-14T19:59:56.000Z</time>
      </trkpt>
      <trkpt lat="48.89389" lon="2.26741">
        <ele>31.60000038147</ele>
        <time>2016-03-14T20:00:00.000Z</time>
      </trkpt>
      <trkpt lat="48.89401" lon="2.2673">
        <ele>31</ele>
        <time>2016-03-14T20:00:04.000Z</time>
      </trkpt>
      <trkpt lat="48.8941" lon="2.26722">
        <ele>30.60000038147</ele>
        <time>2016-03-14T20:00:09.000Z</time>
      </trkpt>
      <trkpt lat="48.89416" lon="2.26716">
        <ele>30.60000038147</ele>
        <time>2016-03-14T20:00:15.000Z</time>
      </trkpt>
      <trkpt lat="48.89429" lon="2.26699">
        <ele>31.799999237061</ele>
        <time>2016-03-14T20:00:28.000Z</time>
      </trkpt>
      <trkpt lat="48.89445" lon="2.26681">
        <ele>33.599998474121</ele>
        <time>2016-03-14T20:00:33.000Z</time>
      </trkpt>
      <trkpt lat="48.89462" lon="2.26665">
        <ele>35.200000762939</ele>
        <time>2016-03-14T20:00:38.000Z</time>
      </trkpt>
      <trkpt lat="48.89478" lon="2.2665">
        <ele>37</ele>
        <time>2016-03-14T20:00:43.000Z</time>
      </trkpt>
      <trkpt lat="48.89495" lon="2.26632">
        <ele>38.599998474121</ele>
        <time>2016-03-14T20:00:48.000Z</time>
      </trkpt>
      <trkpt lat="48.89509" lon="2.26613">
        <ele>37.599998474121</ele>
        <time>2016-03-14T20:00:54.000Z</time>
      </trkpt>
      <trkpt lat="48.89514" lon="2.26586">
        <ele>36.400001525879</ele>
        <time>2016-03-14T20:01:01.000Z</time>
      </trkpt>
      <trkpt lat="48.89515" lon="2.26556">
        <ele>35.400001525879</ele>
        <time>2016-03-14T20:01:07.000Z</time>
      </trkpt>
      <trkpt lat="48.89503" lon="2.26532">
        <ele>35</ele>
        <time>2016-03-14T20:01:12.000Z</time>
      </trkpt>
      <trkpt lat="48.89493" lon="2.26508">
        <ele>34.599998474121</ele>
        <time>2016-03-14T20:01:19.000Z</time>
      </trkpt>
      <trkpt lat="48.89478" lon="2.26483">
        <ele>33.799999237061</ele>
        <time>2016-03-14T20:01:24.000Z</time>
      </trkpt>
      <trkpt lat="48.89464" lon="2.26465">
        <ele>32.799999237061</ele>
        <time>2016-03-14T20:01:27.000Z</time>
      </trkpt>
      <trkpt lat="48.89451" lon="2.26442">
        <ele>31.60000038147</ele>
        <time>2016-03-14T20:01:30.000Z</time>
      </trkpt>
      <trkpt lat="48.89439" lon="2.26419">
        <ele>30.60000038147</ele>
        <time>2016-03-14T20:01:33.000Z</time>
      </trkpt>
      <trkpt lat="48.89426" lon="2.26397">
        <ele>29.60000038147</ele>
        <time>2016-03-14T20:01:36.000Z</time>
      </trkpt>
      <trkpt lat="48.89413" lon="2.26375">
        <ele>29.39999961853</ele>
        <time>2016-03-14T20:01:39.000Z</time>
      </trkpt>
      <trkpt lat="48.89399" lon="2.26354">
        <ele>29</ele>
        <time>2016-03-14T20:01:42.000Z</time>
      </trkpt>
      <trkpt lat="48.89384" lon="2.2633">
        <ele>28.60000038147</ele>
        <time>2016-03-14T20:01:45.000Z</time>
      </trkpt>
      <trkpt lat="48.89369" lon="2.26306">
        <ele>27.799999237061</ele>
        <time>2016-03-14T20:01:48.000Z</time>
      </trkpt>
      <trkpt lat="48.89356" lon="2.26284">
        <ele>27</ele>
        <time>2016-03-14T20:01:51.000Z</time>
      </trkpt>
      <trkpt lat="48.89341" lon="2.26266">
        <ele>26.60000038147</ele>
        <time>2016-03-14T20:01:54.000Z</time>
      </trkpt>
      <trkpt lat="48.89329" lon="2.26256">
        <ele>26.60000038147</ele>
        <time>2016-03-14T20:01:56.000Z</time>
      </trkpt>
      <trkpt lat="48.89313" lon="2.26239">
        <ele>25.39999961853</ele>
        <time>2016-03-14T20:02:00.000Z</time>
      </trkpt>
      <trkpt lat="48.89309" lon="2.26236">
        <ele>25</ele>
        <time>2016-03-14T20:02:01.000Z</time>
      </trkpt>
      <trkpt lat="48.89289" lon="2.26222">
        <ele>23.200000762939</ele>
        <time>2016-03-14T20:02:05.000Z</time>
      </trkpt>
      <trkpt lat="48.8927" lon="2.26212">
        <ele>22</ele>
        <time>2016-03-14T20:02:09.000Z</time>
      </trkpt>
      <trkpt lat="48.89265" lon="2.2621">
        <ele>22.200000762939</ele>
        <time>2016-03-14T20:02:10.000Z</time>
      </trkpt>
      <trkpt lat="48.89249" lon="2.26226">
        <ele>26.200000762939</ele>
        <time>2016-03-14T20:02:15.000Z</time>
      </trkpt>
      <trkpt lat="48.89241" lon="2.26237">
        <ele>26.799999237061</ele>
        <time>2016-03-14T20:02:17.000Z</time>
      </trkpt>
      <trkpt lat="48.8923" lon="2.26253">
        <ele>28</ele>
        <time>2016-03-14T20:02:20.000Z</time>
      </trkpt>
      <trkpt lat="48.89219" lon="2.26278">
        <ele>29.39999961853</ele>
        <time>2016-03-14T20:02:24.000Z</time>
      </trkpt>
      <trkpt lat="48.89224" lon="2.26301">
        <ele>29.60000038147</ele>
        <time>2016-03-14T20:02:28.000Z</time>
      </trkpt>
      <trkpt lat="48.89236" lon="2.26323">
        <ele>30.200000762939</ele>
        <time>2016-03-14T20:02:32.000Z</time>
      </trkpt>
      <trkpt lat="48.89247" lon="2.26345">
        <ele>30.200000762939</ele>
        <time>2016-03-14T20:02:36.000Z</time>
      </trkpt>
      <trkpt lat="48.89259" lon="2.26368">
        <ele>30</ele>
        <time>2016-03-14T20:02:40.000Z</time>
      </trkpt>
      <trkpt lat="48.8927" lon="2.26389">
        <ele>29.799999237061</ele>
        <time>2016-03-14T20:02:44.000Z</time>
      </trkpt>
      <trkpt lat="48.89276" lon="2.264">
        <ele>29.60000038147</ele>
        <time>2016-03-14T20:02:46.000Z</time>
      </trkpt>
      <trkpt lat="48.89289" lon="2.26422">
        <ele>30.60000038147</ele>
        <time>2016-03-14T20:02:50.000Z</time>
      </trkpt>
      <trkpt lat="48.89304" lon="2.26441">
        <ele>32.799999237061</ele>
        <time>2016-03-14T20:02:54.000Z</time>
      </trkpt>
      <trkpt lat="48.89316" lon="2.26462">
        <ele>34.400001525879</ele>
        <time>2016-03-14T20:02:58.000Z</time>
      </trkpt>
      <trkpt lat="48.89318" lon="2.26467">
        <ele>34.599998474121</ele>
        <time>2016-03-14T20:02:59.000Z</time>
      </trkpt>
      <trkpt lat="48.89333" lon="2.26492">
        <ele>36.400001525879</ele>
        <time>2016-03-14T20:03:04.000Z</time>
      </trkpt>
      <trkpt lat="48.89348" lon="2.26517">
        <ele>37.599998474121</ele>
        <time>2016-03-14T20:03:08.000Z</time>
      </trkpt>
      <trkpt lat="48.89361" lon="2.2654">
        <ele>38</ele>
        <time>2016-03-14T20:03:12.000Z</time>
      </trkpt>
      <trkpt lat="48.89363" lon="2.26546">
        <ele>37.799999237061</ele>
        <time>2016-03-14T20:03:13.000Z</time>
      </trkpt>
      <trkpt lat="48.89373" lon="2.2657">
        <ele>36.799999237061</ele>
        <time>2016-03-14T20:03:17.000Z</time>
      </trkpt>
      <trkpt lat="48.89384" lon="2.26597">
        <ele>35.799999237061</ele>
        <time>2016-03-14T20:03:21.000Z</time>
      </trkpt>
      <trkpt lat="48.89392" lon="2.26617">
        <ele>35</ele>
        <time>2016-03-14T20:03:25.000Z</time>
      </trkpt>
      <trkpt lat="48.894" lon="2.26642">
        <ele>33.799999237061</ele>
        <time>2016-03-14T20:03:30.000Z</time>
      </trkpt>
      <trkpt lat="48.89401" lon="2.26645">
        <ele>33.599998474121</ele>
        <time>2016-03-14T20:03:31.000Z</time>
      </trkpt>
      <trkpt lat="48.89403" lon="2.26649">
        <ele>33.400001525879</ele>
        <time>2016-03-14T20:03:33.000Z</time>
      </trkpt>
      <trkpt lat="48.89406" lon="2.26674">
        <ele>32.200000762939</ele>
        <time>2016-03-14T20:04:23.000Z</time>
      </trkpt>
      <trkpt lat="48.89422" lon="2.2669">
        <ele>32</ele>
        <time>2016-03-14T20:04:35.000Z</time>
      </trkpt>
      <trkpt lat="48.89426" lon="2.26691">
        <ele>32.200000762939</ele>
        <time>2016-03-14T20:04:37.000Z</time>
      </trkpt>
      <trkpt lat="48.89445" lon="2.26675">
        <ele>33.799999237061</ele>
        <time>2016-03-14T20:04:42.000Z</time>
      </trkpt>
      <trkpt lat="48.89464" lon="2.26657">
        <ele>35.599998474121</ele>
        <time>2016-03-14T20:04:46.000Z</time>
      </trkpt>
      <trkpt lat="48.89482" lon="2.26638">
        <ele>37.799999237061</ele>
        <time>2016-03-14T20:04:50.000Z</time>
      </trkpt>
      <trkpt lat="48.89498" lon="2.26621">
        <ele>38.200000762939</ele>
        <time>2016-03-14T20:04:53.000Z</time>
      </trkpt>
      <trkpt lat="48.89514" lon="2.26606">
        <ele>37.200000762939</ele>
        <time>2016-03-14T20:04:56.000Z</time>
      </trkpt>
      <trkpt lat="48.89532" lon="2.26599">
        <ele>36.599998474121</ele>
        <time>2016-03-14T20:05:00.000Z</time>
      </trkpt>
      <trkpt lat="48.8954" lon="2.26619">
        <ele>37.200000762939</ele>
        <time>2016-03-14T20:05:04.000Z</time>
      </trkpt>
      <trkpt lat="48.89543" lon="2.26625">
        <ele>37.400001525879</ele>
        <time>2016-03-14T20:05:05.000Z</time>
      </trkpt>
      <trkpt lat="48.89553" lon="2.26651">
        <ele>38.200000762939</ele>
        <time>2016-03-14T20:05:09.000Z</time>
      </trkpt>
      <trkpt lat="48.89556" lon="2.26659">
        <ele>38.400001525879</ele>
        <time>2016-03-14T20:05:10.000Z</time>
      </trkpt>
      <trkpt lat="48.89564" lon="2.26687">
        <ele>38.200000762939</ele>
        <time>2016-03-14T20:05:13.000Z</time>
      </trkpt>
      <trkpt lat="48.89572" lon="2.26711">
        <ele>37.799999237061</ele>
        <time>2016-03-14T20:05:16.000Z</time>
      </trkpt>
      <trkpt lat="48.89583" lon="2.26741">
        <ele>37.200000762939</ele>
        <time>2016-03-14T20:05:20.000Z</time>
      </trkpt>
      <trkpt lat="48.89589" lon="2.26758">
        <ele>37.200000762939</ele>
        <time>2016-03-14T20:05:22.000Z</time>
      </trkpt>
      <trkpt lat="48.89598" lon="2.26785">
        <ele>37.400001525879</ele>
        <time>2016-03-14T20:05:25.000Z</time>
      </trkpt>
      <trkpt lat="48.89607" lon="2.26812">
        <ele>37.799999237061</ele>
        <time>2016-03-14T20:05:28.000Z</time>
      </trkpt>
      <trkpt lat="48.89617" lon="2.26838">
        <ele>38.799999237061</ele>
        <time>2016-03-14T20:05:31.000Z</time>
      </trkpt>
      <trkpt lat="48.89626" lon="2.26864">
        <ele>39</ele>
        <time>2016-03-14T20:05:34.000Z</time>
      </trkpt>
      <trkpt lat="48.89637" lon="2.2689">
        <ele>39</ele>
        <time>2016-03-14T20:05:37.000Z</time>
      </trkpt>
      <trkpt lat="48.89647" lon="2.26915">
        <ele>39.200000762939</ele>
        <time>2016-03-14T20:05:40.000Z</time>
      </trkpt>
      <trkpt lat="48.89659" lon="2.26945">
        <ele>38.200000762939</ele>
        <time>2016-03-14T20:05:44.000Z</time>
      </trkpt>
      <trkpt lat="48.89665" lon="2.2696">
        <ele>37.799999237061</ele>
        <time>2016-03-14T20:05:46.000Z</time>
      </trkpt>
      <trkpt lat="48.89675" lon="2.26984">
        <ele>37.200000762939</ele>
        <time>2016-03-14T20:05:50.000Z</time>
      </trkpt>
      <trkpt lat="48.89684" lon="2.27011">
        <ele>36.599998474121</ele>
        <time>2016-03-14T20:05:55.000Z</time>
      </trkpt>
      <trkpt lat="48.89695" lon="2.27037">
        <ele>36</ele>
        <time>2016-03-14T20:05:59.000Z</time>
      </trkpt>
      <trkpt lat="48.89704" lon="2.27061">
        <ele>35.400001525879</ele>
        <time>2016-03-14T20:06:03.000Z</time>
      </trkpt>
      <trkpt lat="48.89715" lon="2.27091">
        <ele>34</ele>
        <time>2016-03-14T20:06:08.000Z</time>
      </trkpt>
      <trkpt lat="48.8972" lon="2.27103">
        <ele>33.400001525879</ele>
        <time>2016-03-14T20:06:10.000Z</time>
      </trkpt>
      <trkpt lat="48.89731" lon="2.27132">
        <ele>32.200000762939</ele>
        <time>2016-03-14T20:06:15.000Z</time>
      </trkpt>
      <trkpt lat="48.89741" lon="2.27157">
        <ele>31.799999237061</ele>
        <time>2016-03-14T20:06:20.000Z</time>
      </trkpt>
      <trkpt lat="48.89752" lon="2.27183">
        <ele>31.200000762939</ele>
        <time>2016-03-14T20:06:23.000Z</time>
      </trkpt>
      <trkpt lat="48.89752" lon="2.27194">
        <ele>31</ele>
        <time>2016-03-14T20:06:24.000Z</time>
      </trkpt>
      <trkpt lat="48.89753" lon="2.27222">
        <ele>30.39999961853</ele>
        <time>2016-03-14T20:06:28.000Z</time>
      </trkpt>
      <trkpt lat="48.8974" lon="2.27237">
        <ele>29.799999237061</ele>
        <time>2016-03-14T20:06:35.000Z</time>
      </trkpt>
      <trkpt lat="48.89739" lon="2.27237">
        <ele>29.799999237061</ele>
        <time>2016-03-14T20:06:36.000Z</time>
      </trkpt>
      <trkpt lat="48.89733" lon="2.27233">
        <ele>29.799999237061</ele>
        <time>2016-03-14T20:06:40.000Z</time>
      </trkpt>
      <trkpt lat="48.89731" lon="2.27231">
        <ele>29.799999237061</ele>
        <time>2016-03-14T20:06:41.000Z</time>
      </trkpt>
      <trkpt lat="48.8972" lon="2.27207">
        <ele>30.200000762939</ele>
        <time>2016-03-14T20:06:49.000Z</time>
      </trkpt>
      <trkpt lat="48.89708" lon="2.27185">
        <ele>30.60000038147</ele>
        <time>2016-03-14T20:06:55.000Z</time>
      </trkpt>
      <trkpt lat="48.89694" lon="2.2716">
        <ele>31.200000762939</ele>
        <time>2016-03-14T20:07:00.000Z</time>
      </trkpt>
      <trkpt lat="48.89681" lon="2.27138">
        <ele>31.200000762939</ele>
        <time>2016-03-14T20:07:05.000Z</time>
      </trkpt>
      <trkpt lat="48.89669" lon="2.27113">
        <ele>31.200000762939</ele>
        <time>2016-03-14T20:07:10.000Z</time>
      </trkpt>
      <trkpt lat="48.89658" lon="2.27091">
        <ele>31.200000762939</ele>
        <time>2016-03-14T20:07:14.000Z</time>
      </trkpt>
      <trkpt lat="48.89645" lon="2.27069">
        <ele>31</ele>
        <time>2016-03-14T20:07:18.000Z</time>
      </trkpt>
      <trkpt lat="48.89626" lon="2.27045">
        <ele>30.799999237061</ele>
        <time>2016-03-14T20:07:22.000Z</time>
      </trkpt>
      <trkpt lat="48.89611" lon="2.27028">
        <ele>30.39999961853</ele>
        <time>2016-03-14T20:07:25.000Z</time>
      </trkpt>
      <trkpt lat="48.89596" lon="2.27006">
        <ele>30.200000762939</ele>
        <time>2016-03-14T20:07:29.000Z</time>
      </trkpt>
      <trkpt lat="48.89589" lon="2.26995">
        <ele>30.200000762939</ele>
        <time>2016-03-14T20:07:31.000Z</time>
      </trkpt>
      <trkpt lat="48.89576" lon="2.26973">
        <ele>30.39999961853</ele>
        <time>2016-03-14T20:07:35.000Z</time>
      </trkpt>
      <trkpt lat="48.89571" lon="2.2697">
        <ele>30.200000762939</ele>
        <time>2016-03-14T20:07:36.000Z</time>
      </trkpt>
      <trkpt lat="48.89565" lon="2.26959">
        <ele>30.39999961853</ele>
        <time>2016-03-14T20:07:38.000Z</time>
      </trkpt>
      <trkpt lat="48.8955" lon="2.26936">
        <ele>30.39999961853</ele>
        <time>2016-03-14T20:07:42.000Z</time>
      </trkpt>
      <trkpt lat="48.89536" lon="2.2691">
        <ele>30.799999237061</ele>
        <time>2016-03-14T20:07:45.000Z</time>
      </trkpt>
      <trkpt lat="48.89523" lon="2.26887">
        <ele>31</ele>
        <time>2016-03-14T20:07:48.000Z</time>
      </trkpt>
      <trkpt lat="48.89508" lon="2.26862">
        <ele>31.39999961853</ele>
        <time>2016-03-14T20:07:52.000Z</time>
      </trkpt>
      <trkpt lat="48.89494" lon="2.26836">
        <ele>32</ele>
        <time>2016-03-14T20:07:56.000Z</time>
      </trkpt>
      <trkpt lat="48.89482" lon="2.26814">
        <ele>31.799999237061</ele>
        <time>2016-03-14T20:08:00.000Z</time>
      </trkpt>
      <trkpt lat="48.89473" lon="2.268">
        <ele>31.39999961853</ele>
        <time>2016-03-14T20:08:03.000Z</time>
      </trkpt>
      <trkpt lat="48.89465" lon="2.26784">
        <ele>31</ele>
        <time>2016-03-14T20:08:06.000Z</time>
      </trkpt>
      <trkpt lat="48.89461" lon="2.26774">
        <ele>30.799999237061</ele>
        <time>2016-03-14T20:08:08.000Z</time>
      </trkpt>
      <trkpt lat="48.89448" lon="2.2675">
        <ele>30.60000038147</ele>
        <time>2016-03-14T20:08:13.000Z</time>
      </trkpt>
      <trkpt lat="48.89437" lon="2.2673">
        <ele>30.60000038147</ele>
        <time>2016-03-14T20:08:18.000Z</time>
      </trkpt>
      <trkpt lat="48.89433" lon="2.26722">
        <ele>31</ele>
        <time>2016-03-14T20:08:22.000Z</time>
      </trkpt>
      <trkpt lat="48.8943" lon="2.26699">
        <ele>31.799999237061</ele>
        <time>2016-03-14T20:09:21.000Z</time>
      </trkpt>
      <trkpt lat="48.89431" lon="2.26697">
        <ele>32</ele>
        <time>2016-03-14T20:09:22.000Z</time>
      </trkpt>
      <trkpt lat="48.89447" lon="2.26679">
        <ele>33.799999237061</ele>
        <time>2016-03-14T20:09:29.000Z</time>
      </trkpt>
      <trkpt lat="48.89466" lon="2.26667">
        <ele>35.400001525879</ele>
        <time>2016-03-14T20:09:35.000Z</time>
      </trkpt>
      <trkpt lat="48.89484" lon="2.26653">
        <ele>37.200000762939</ele>
        <time>2016-03-14T20:09:41.000Z</time>
      </trkpt>
      <trkpt lat="48.89499" lon="2.26636">
        <ele>38.599998474121</ele>
        <time>2016-03-14T20:09:47.000Z</time>
      </trkpt>
      <trkpt lat="48.89514" lon="2.26617">
        <ele>37.599998474121</ele>
        <time>2016-03-14T20:09:53.000Z</time>
      </trkpt>
      <trkpt lat="48.89529" lon="2.26598">
        <ele>36.599998474121</ele>
        <time>2016-03-14T20:10:00.000Z</time>
      </trkpt>
      <trkpt lat="48.89547" lon="2.26588">
        <ele>35.799999237061</ele>
        <time>2016-03-14T20:10:07.000Z</time>
      </trkpt>
      <trkpt lat="48.89562" lon="2.26574">
        <ele>34.799999237061</ele>
        <time>2016-03-14T20:10:13.000Z</time>
      </trkpt>
      <trkpt lat="48.89578" lon="2.26556">
        <ele>33.799999237061</ele>
        <time>2016-03-14T20:10:19.000Z</time>
      </trkpt>
      <trkpt lat="48.89596" lon="2.26539">
        <ele>33.200000762939</ele>
        <time>2016-03-14T20:10:25.000Z</time>
      </trkpt>
      <trkpt lat="48.89613" lon="2.26522">
        <ele>32.599998474121</ele>
        <time>2016-03-14T20:10:31.000Z</time>
      </trkpt>
      <trkpt lat="48.89629" lon="2.26507">
        <ele>32.599998474121</ele>
        <time>2016-03-14T20:10:36.000Z</time>
      </trkpt>
      <trkpt lat="48.89645" lon="2.26492">
        <ele>33.200000762939</ele>
        <time>2016-03-14T20:10:41.000Z</time>
      </trkpt>
      <trkpt lat="48.89662" lon="2.26475">
        <ele>33.200000762939</ele>
        <time>2016-03-14T20:10:47.000Z</time>
      </trkpt>
      <trkpt lat="48.8968" lon="2.26457">
        <ele>34</ele>
        <time>2016-03-14T20:10:53.000Z</time>
      </trkpt>
      <trkpt lat="48.89695" lon="2.2644">
        <ele>34.799999237061</ele>
        <time>2016-03-14T20:10:58.000Z</time>
      </trkpt>
      <trkpt lat="48.89709" lon="2.26417">
        <ele>36.200000762939</ele>
        <time>2016-03-14T20:11:04.000Z</time>
      </trkpt>
      <trkpt lat="48.89724" lon="2.26401">
        <ele>38.599998474121</ele>
        <time>2016-03-14T20:11:09.000Z</time>
      </trkpt>
      <trkpt lat="48.89744" lon="2.26386">
        <ele>41.400001525879</ele>
        <time>2016-03-14T20:11:14.000Z</time>
      </trkpt>
      <trkpt lat="48.89763" lon="2.2637">
        <ele>43.599998474121</ele>
        <time>2016-03-14T20:11:19.000Z</time>
      </trkpt>
      <trkpt lat="48.89782" lon="2.26353">
        <ele>44.799999237061</ele>
        <time>2016-03-14T20:11:24.000Z</time>
      </trkpt>
      <trkpt lat="48.89797" lon="2.26337">
        <ele>45.200000762939</ele>
        <time>2016-03-14T20:11:28.000Z</time>
      </trkpt>
      <trkpt lat="48.89815" lon="2.26317">
        <ele>46</ele>
        <time>2016-03-14T20:11:33.000Z</time>
      </trkpt>
      <trkpt lat="48.8983" lon="2.26301">
        <ele>46.599998474121</ele>
        <time>2016-03-14T20:11:37.000Z</time>
      </trkpt>
      <trkpt lat="48.89844" lon="2.26283">
        <ele>46.799999237061</ele>
        <time>2016-03-14T20:11:41.000Z</time>
      </trkpt>
      <trkpt lat="48.8986" lon="2.26268">
        <ele>46.599998474121</ele>
        <time>2016-03-14T20:11:45.000Z</time>
      </trkpt>
      <trkpt lat="48.89876" lon="2.26254">
        <ele>46.599998474121</ele>
        <time>2016-03-14T20:11:49.000Z</time>
      </trkpt>
      <trkpt lat="48.89884" lon="2.26245">
        <ele>46.599998474121</ele>
        <time>2016-03-14T20:11:51.000Z</time>
      </trkpt>
      <trkpt lat="48.89903" lon="2.26223">
        <ele>46.799999237061</ele>
        <time>2016-03-14T20:11:55.000Z</time>
      </trkpt>
      <trkpt lat="48.89918" lon="2.26206">
        <ele>46.599998474121</ele>
        <time>2016-03-14T20:11:58.000Z</time>
      </trkpt>
      <trkpt lat="48.89934" lon="2.26189">
        <ele>46.200000762939</ele>
        <time>2016-03-14T20:12:01.000Z</time>
      </trkpt>
      <trkpt lat="48.8995" lon="2.26169">
        <ele>46</ele>
        <time>2016-03-14T20:12:05.000Z</time>
      </trkpt>
      <trkpt lat="48.89961" lon="2.26157">
        <ele>45.599998474121</ele>
        <time>2016-03-14T20:12:08.000Z</time>
      </trkpt>
      <trkpt lat="48.89977" lon="2.2614">
        <ele>45.200000762939</ele>
        <time>2016-03-14T20:12:12.000Z</time>
      </trkpt>
      <trkpt lat="48.89986" lon="2.26133">
        <ele>45</ele>
        <time>2016-03-14T20:12:14.000Z</time>
      </trkpt>
      <trkpt lat="48.90003" lon="2.26115">
        <ele>45.599998474121</ele>
        <time>2016-03-14T20:12:18.000Z</time>
      </trkpt>
      <trkpt lat="48.9002" lon="2.26097">
        <ele>46.599998474121</ele>
        <time>2016-03-14T20:12:22.000Z</time>
      </trkpt>
      <trkpt lat="48.90034" lon="2.26088">
        <ele>47.200000762939</ele>
        <time>2016-03-14T20:12:25.000Z</time>
      </trkpt>
      <trkpt lat="48.90048" lon="2.26086">
        <ele>47</ele>
        <time>2016-03-14T20:12:30.000Z</time>
      </trkpt>
      <trkpt lat="48.90048" lon="2.26085">
        <ele>47</ele>
        <time>2016-03-14T20:12:31.000Z</time>
      </trkpt>
      <trkpt lat="48.90058" lon="2.26072">
        <ele>46.599998474121</ele>
        <time>2016-03-14T20:12:55.000Z</time>
      </trkpt>
      <trkpt lat="48.90075" lon="2.26055">
        <ele>46.599998474121</ele>
        <time>2016-03-14T20:12:59.000Z</time>
      </trkpt>
      <trkpt lat="48.90089" lon="2.26042">
        <ele>45.200000762939</ele>
        <time>2016-03-14T20:13:02.000Z</time>
      </trkpt>
      <trkpt lat="48.90106" lon="2.26024">
        <ele>42.799999237061</ele>
        <time>2016-03-14T20:13:05.000Z</time>
      </trkpt>
      <trkpt lat="48.90124" lon="2.26007">
        <ele>41.599998474121</ele>
        <time>2016-03-14T20:13:08.000Z</time>
      </trkpt>
      <trkpt lat="48.90142" lon="2.25987">
        <ele>41.400001525879</ele>
        <time>2016-03-14T20:13:11.000Z</time>
      </trkpt>
      <trkpt lat="48.90159" lon="2.25965">
        <ele>41.200000762939</ele>
        <time>2016-03-14T20:13:14.000Z</time>
      </trkpt>
      <trkpt lat="48.90177" lon="2.25945">
        <ele>42.200000762939</ele>
        <time>2016-03-14T20:13:17.000Z</time>
      </trkpt>
      <trkpt lat="48.90194" lon="2.25928">
        <ele>42.799999237061</ele>
        <time>2016-03-14T20:13:20.000Z</time>
      </trkpt>
      <trkpt lat="48.90211" lon="2.25913">
        <ele>43</ele>
        <time>2016-03-14T20:13:23.000Z</time>
      </trkpt>
      <trkpt lat="48.90222" lon="2.25901">
        <ele>43</ele>
        <time>2016-03-14T20:13:26.000Z</time>
      </trkpt>
      <trkpt lat="48.90239" lon="2.25885">
        <ele>43</ele>
        <time>2016-03-14T20:13:30.000Z</time>
      </trkpt>
      <trkpt lat="48.90247" lon="2.25876">
        <ele>43</ele>
        <time>2016-03-14T20:13:32.000Z</time>
      </trkpt>
      <trkpt lat="48.90266" lon="2.25859">
        <ele>43</ele>
        <time>2016-03-14T20:13:36.000Z</time>
      </trkpt>
      <trkpt lat="48.90284" lon="2.25842">
        <ele>43.400001525879</ele>
        <time>2016-03-14T20:13:40.000Z</time>
      </trkpt>
      <trkpt lat="48.90302" lon="2.25824">
        <ele>43.599998474121</ele>
        <time>2016-03-14T20:13:44.000Z</time>
      </trkpt>
      <trkpt lat="48.9032" lon="2.25806">
        <ele>44.200000762939</ele>
        <time>2016-03-14T20:13:48.000Z</time>
      </trkpt>
      <trkpt lat="48.90338" lon="2.2579">
        <ele>44.400001525879</ele>
        <time>2016-03-14T20:13:52.000Z</time>
      </trkpt>
      <trkpt lat="48.90357" lon="2.25772">
        <ele>44.400001525879</ele>
        <time>2016-03-14T20:13:56.000Z</time>
      </trkpt>
      <trkpt lat="48.90376" lon="2.25752">
        <ele>44.400001525879</ele>
        <time>2016-03-14T20:14:00.000Z</time>
      </trkpt>
      <trkpt lat="48.90391" lon="2.25736">
        <ele>45</ele>
        <time>2016-03-14T20:14:03.000Z</time>
      </trkpt>
      <trkpt lat="48.90401" lon="2.25726">
        <ele>45.599998474121</ele>
        <time>2016-03-14T20:14:05.000Z</time>
      </trkpt>
      <trkpt lat="48.90417" lon="2.25712">
        <ele>46.200000762939</ele>
        <time>2016-03-14T20:14:08.000Z</time>
      </trkpt>
      <trkpt lat="48.90437" lon="2.25693">
        <ele>47.200000762939</ele>
        <time>2016-03-14T20:14:12.000Z</time>
      </trkpt>
      <trkpt lat="48.90452" lon="2.2568">
        <ele>47.400001525879</ele>
        <time>2016-03-14T20:14:15.000Z</time>
      </trkpt>
      <trkpt lat="48.90473" lon="2.25666">
        <ele>46</ele>
        <time>2016-03-14T20:14:19.000Z</time>
      </trkpt>
      <trkpt lat="48.90478" lon="2.25662">
        <ele>45.799999237061</ele>
        <time>2016-03-14T20:14:20.000Z</time>
      </trkpt>
      <trkpt lat="48.90495" lon="2.25646">
        <ele>44.799999237061</ele>
        <time>2016-03-14T20:14:24.000Z</time>
      </trkpt>
      <trkpt lat="48.90499" lon="2.25643">
        <ele>44.400001525879</ele>
        <time>2016-03-14T20:14:25.000Z</time>
      </trkpt>
      <trkpt lat="48.90516" lon="2.25628">
        <ele>44.799999237061</ele>
        <time>2016-03-14T20:14:30.000Z</time>
      </trkpt>
      <trkpt lat="48.90533" lon="2.25626">
        <ele>44.799999237061</ele>
        <time>2016-03-14T20:14:36.000Z</time>
      </trkpt>
      <trkpt lat="48.90535" lon="2.25627">
        <ele>44.799999237061</ele>
        <time>2016-03-14T20:14:37.000Z</time>
      </trkpt>
      <trkpt lat="48.90535" lon="2.25627">
        <ele>44.799999237061</ele>
        <time>2016-03-14T20:14:38.000Z</time>
      </trkpt>
      <trkpt lat="48.90534" lon="2.25618">
        <ele>45.200000762939</ele>
        <time>2016-03-14T20:15:14.000Z</time>
      </trkpt>
      <trkpt lat="48.90547" lon="2.25596">
        <ele>46.400001525879</ele>
        <time>2016-03-14T20:15:20.000Z</time>
      </trkpt>
      <trkpt lat="48.90546" lon="2.25569">
        <ele>46.799999237061</ele>
        <time>2016-03-14T20:15:25.000Z</time>
      </trkpt>
      <trkpt lat="48.90543" lon="2.25541">
        <ele>46.799999237061</ele>
        <time>2016-03-14T20:15:30.000Z</time>
      </trkpt>
      <trkpt lat="48.90546" lon="2.25513">
        <ele>46.799999237061</ele>
        <time>2016-03-14T20:15:34.000Z</time>
      </trkpt>
      <trkpt lat="48.90551" lon="2.2548">
        <ele>46.400001525879</ele>
        <time>2016-03-14T20:15:39.000Z</time>
      </trkpt>
      <trkpt lat="48.90556" lon="2.25447">
        <ele>45.200000762939</ele>
        <time>2016-03-14T20:15:44.000Z</time>
      </trkpt>
      <trkpt lat="48.90561" lon="2.25414">
        <ele>45.400001525879</ele>
        <time>2016-03-14T20:15:49.000Z</time>
      </trkpt>
      <trkpt lat="48.90566" lon="2.25383">
        <ele>46.200000762939</ele>
        <time>2016-03-14T20:15:54.000Z</time>
      </trkpt>
      <trkpt lat="48.9057" lon="2.25364">
        <ele>46.400001525879</ele>
        <time>2016-03-14T20:15:57.000Z</time>
      </trkpt>
      <trkpt lat="48.90575" lon="2.25331">
        <ele>46</ele>
        <time>2016-03-14T20:16:02.000Z</time>
      </trkpt>
      <trkpt lat="48.90577" lon="2.25298">
        <ele>46</ele>
        <time>2016-03-14T20:16:07.000Z</time>
      </trkpt>
      <trkpt lat="48.90579" lon="2.25269">
        <ele>45.599998474121</ele>
        <time>2016-03-14T20:16:11.000Z</time>
      </trkpt>
      <trkpt lat="48.90581" lon="2.25262">
        <ele>45.599998474121</ele>
        <time>2016-03-14T20:16:12.000Z</time>
      </trkpt>
      <trkpt lat="48.90584" lon="2.25248">
        <ele>45.200000762939</ele>
        <time>2016-03-14T20:16:14.000Z</time>
      </trkpt>
      <trkpt lat="48.90589" lon="2.2522">
        <ele>45</ele>
        <time>2016-03-14T20:16:18.000Z</time>
      </trkpt>
      <trkpt lat="48.90593" lon="2.25187">
        <ele>45</ele>
        <time>2016-03-14T20:16:23.000Z</time>
      </trkpt>
      <trkpt lat="48.90594" lon="2.25165">
        <ele>45</ele>
        <time>2016-03-14T20:16:26.000Z</time>
      </trkpt>
      <trkpt lat="48.90593" lon="2.25151">
        <ele>44.799999237061</ele>
        <time>2016-03-14T20:16:28.000Z</time>
      </trkpt>
      <trkpt lat="48.90594" lon="2.25137">
        <ele>44.599998474121</ele>
        <time>2016-03-14T20:16:30.000Z</time>
      </trkpt>
      <trkpt lat="48.90597" lon="2.25109">
        <ele>44.799999237061</ele>
        <time>2016-03-14T20:16:34.000Z</time>
      </trkpt>
      <trkpt lat="48.906" lon="2.25086">
        <ele>44.799999237061</ele>
        <time>2016-03-14T20:16:37.000Z</time>
      </trkpt>
      <trkpt lat="48.90601" lon="2.25071">
        <ele>45</ele>
        <time>2016-03-14T20:16:39.000Z</time>
      </trkpt>
      <trkpt lat="48.90608" lon="2.25039">
        <ele>45</ele>
        <time>2016-03-14T20:16:43.000Z</time>
      </trkpt>
      <trkpt lat="48.90613" lon="2.25004">
        <ele>45</ele>
        <time>2016-03-14T20:16:47.000Z</time>
      </trkpt>
      <trkpt lat="48.90617" lon="2.24971">
        <ele>44.799999237061</ele>
        <time>2016-03-14T20:16:51.000Z</time>
      </trkpt>
      <trkpt lat="48.90621" lon="2.24938">
        <ele>44.400001525879</ele>
        <time>2016-03-14T20:16:55.000Z</time>
      </trkpt>
      <trkpt lat="48.90625" lon="2.24916">
        <ele>44.599998474121</ele>
        <time>2016-03-14T20:16:58.000Z</time>
      </trkpt>
      <trkpt lat="48.90631" lon="2.24889">
        <ele>44.799999237061</ele>
        <time>2016-03-14T20:17:02.000Z</time>
      </trkpt>
      <trkpt lat="48.90636" lon="2.24879">
        <ele>45</ele>
        <time>2016-03-14T20:17:04.000Z</time>
      </trkpt>
      <trkpt lat="48.90646" lon="2.24867">
        <ele>45.400001525879</ele>
        <time>2016-03-14T20:17:08.000Z</time>
      </trkpt>
      <trkpt lat="48.9066" lon="2.2485">
        <ele>46.400001525879</ele>
        <time>2016-03-14T20:17:16.000Z</time>
      </trkpt>
      <trkpt lat="48.90662" lon="2.24831">
        <ele>46.599998474121</ele>
        <time>2016-03-14T20:17:21.000Z</time>
      </trkpt>
      <trkpt lat="48.90663" lon="2.24824">
        <ele>46.799999237061</ele>
        <time>2016-03-14T20:17:24.000Z</time>
      </trkpt>
      <trkpt lat="48.90679" lon="2.24811">
        <ele>47.599998474121</ele>
        <time>2016-03-14T20:17:30.000Z</time>
      </trkpt>
      <trkpt lat="48.90698" lon="2.24798">
        <ele>48.200000762939</ele>
        <time>2016-03-14T20:17:36.000Z</time>
      </trkpt>
      <trkpt lat="48.90717" lon="2.24789">
        <ele>47.799999237061</ele>
        <time>2016-03-14T20:17:41.000Z</time>
      </trkpt>
      <trkpt lat="48.90735" lon="2.24781">
        <ele>47.599998474121</ele>
        <time>2016-03-14T20:17:45.000Z</time>
      </trkpt>
      <trkpt lat="48.90752" lon="2.2477">
        <ele>47.200000762939</ele>
        <time>2016-03-14T20:17:49.000Z</time>
      </trkpt>
      <trkpt lat="48.90769" lon="2.24758">
        <ele>47</ele>
        <time>2016-03-14T20:17:53.000Z</time>
      </trkpt>
      <trkpt lat="48.90787" lon="2.24747">
        <ele>46.599998474121</ele>
        <time>2016-03-14T20:17:57.000Z</time>
      </trkpt>
      <trkpt lat="48.90805" lon="2.24738">
        <ele>45.400001525879</ele>
        <time>2016-03-14T20:18:02.000Z</time>
      </trkpt>
      <trkpt lat="48.90825" lon="2.24724">
        <ele>44.200000762939</ele>
        <time>2016-03-14T20:18:07.000Z</time>
      </trkpt>
      <trkpt lat="48.90843" lon="2.24715">
        <ele>42.799999237061</ele>
        <time>2016-03-14T20:18:11.000Z</time>
      </trkpt>
      <trkpt lat="48.90857" lon="2.24705">
        <ele>41.599998474121</ele>
        <time>2016-03-14T20:18:15.000Z</time>
      </trkpt>
      <trkpt lat="48.9087" lon="2.24693">
        <ele>40.599998474121</ele>
        <time>2016-03-14T20:18:19.000Z</time>
      </trkpt>
      <trkpt lat="48.90886" lon="2.2469">
        <ele>40.400001525879</ele>
        <time>2016-03-14T20:18:25.000Z</time>
      </trkpt>
      <trkpt lat="48.90889" lon="2.24686">
        <ele>40.400001525879</ele>
        <time>2016-03-14T20:18:27.000Z</time>
      </trkpt>
      <trkpt lat="48.90891" lon="2.24682">
        <ele>40.200000762939</ele>
        <time>2016-03-14T20:18:32.000Z</time>
      </trkpt>
      <trkpt lat="48.90895" lon="2.24676">
        <ele>40.200000762939</ele>
        <time>2016-03-14T20:18:37.000Z</time>
      </trkpt>
      <trkpt lat="48.90907" lon="2.2468">
        <ele>40.599998474121</ele>
        <time>2016-03-14T20:18:54.000Z</time>
      </trkpt>
      <trkpt lat="48.90908" lon="2.24682">
        <ele>40.799999237061</ele>
        <time>2016-03-14T20:19:53.000Z</time>
      </trkpt>
      <trkpt lat="48.90903" lon="2.24689">
        <ele>40.799999237061</ele>
        <time>2016-03-14T20:20:35.000Z</time>
      </trkpt>
      <trkpt lat="48.90901" lon="2.24685">
        <ele>40.599998474121</ele>
        <time>2016-03-14T20:21:29.000Z</time>
      </trkpt>
      <trkpt lat="48.90905" lon="2.24684">
        <ele>40.599998474121</ele>
        <time>2016-03-14T20:21:46.000Z</time>
      </trkpt>
      <trkpt lat="48.90906" lon="2.24682">
        <ele>40.599998474121</ele>
        <time>2016-03-14T20:21:50.000Z</time>
      </trkpt>
      <trkpt lat="48.90919" lon="2.24693">
        <ele>41.200000762939</ele>
        <time>2016-03-14T20:22:07.000Z</time>
      </trkpt>
      <trkpt lat="48.90931" lon="2.24699">
        <ele>41.599998474121</ele>
        <time>2016-03-14T20:22:11.000Z</time>
      </trkpt>
      <trkpt lat="48.90939" lon="2.24721">
        <ele>42.400001525879</ele>
        <time>2016-03-14T20:22:18.000Z</time>
      </trkpt>
      <trkpt lat="48.90939" lon="2.24751">
        <ele>43.200000762939</ele>
        <time>2016-03-14T20:22:24.000Z</time>
      </trkpt>
      <trkpt lat="48.90941" lon="2.24782">
        <ele>43.799999237061</ele>
        <time>2016-03-14T20:22:32.000Z</time>
      </trkpt>
      <trkpt lat="48.90931" lon="2.24806">
        <ele>44.599998474121</ele>
        <time>2016-03-14T20:22:40.000Z</time>
      </trkpt>
      <trkpt lat="48.90924" lon="2.24834">
        <ele>45.200000762939</ele>
        <time>2016-03-14T20:22:46.000Z</time>
      </trkpt>
      <trkpt lat="48.90919" lon="2.24861">
        <ele>44.799999237061</ele>
        <time>2016-03-14T20:22:51.000Z</time>
      </trkpt>
      <trkpt lat="48.90912" lon="2.24888">
        <ele>44.200000762939</ele>
        <time>2016-03-14T20:22:56.000Z</time>
      </trkpt>
      <trkpt lat="48.90906" lon="2.24916">
        <ele>43.799999237061</ele>
        <time>2016-03-14T20:23:01.000Z</time>
      </trkpt>
      <trkpt lat="48.90903" lon="2.24947">
        <ele>43</ele>
        <time>2016-03-14T20:23:06.000Z</time>
      </trkpt>
      <trkpt lat="48.90892" lon="2.24977">
        <ele>42.599998474121</ele>
        <time>2016-03-14T20:23:11.000Z</time>
      </trkpt>
      <trkpt lat="48.90884" lon="2.25004">
        <ele>42.799999237061</ele>
        <time>2016-03-14T20:23:15.000Z</time>
      </trkpt>
      <trkpt lat="48.90882" lon="2.25041">
        <ele>44.200000762939</ele>
        <time>2016-03-14T20:23:20.000Z</time>
      </trkpt>
      <trkpt lat="48.90877" lon="2.25067">
        <ele>44.400001525879</ele>
        <time>2016-03-14T20:23:24.000Z</time>
      </trkpt>
      <trkpt lat="48.90877" lon="2.25073">
        <ele>44.400001525879</ele>
        <time>2016-03-14T20:23:25.000Z</time>
      </trkpt>
      <trkpt lat="48.90876" lon="2.25084">
        <ele>44.400001525879</ele>
        <time>2016-03-14T20:23:27.000Z</time>
      </trkpt>
      <trkpt lat="48.90874" lon="2.25109">
        <ele>44.599998474121</ele>
        <time>2016-03-14T20:23:31.000Z</time>
      </trkpt>
      <trkpt lat="48.90872" lon="2.25112">
        <ele>44.599998474121</ele>
        <time>2016-03-14T20:23:32.000Z</time>
      </trkpt>
      <trkpt lat="48.9088" lon="2.25133">
        <ele>45</ele>
        <time>2016-03-14T20:23:39.000Z</time>
      </trkpt>
      <trkpt lat="48.90871" lon="2.2512">
        <ele>44.599998474121</ele>
        <time>2016-03-14T20:23:48.000Z</time>
      </trkpt>
      <trkpt lat="48.90862" lon="2.25112">
        <ele>44.400001525879</ele>
        <time>2016-03-14T20:23:51.000Z</time>
      </trkpt>
      <trkpt lat="48.90845" lon="2.25094">
        <ele>44.200000762939</ele>
        <time>2016-03-14T20:23:56.000Z</time>
      </trkpt>
      <trkpt lat="48.90828" lon="2.25072">
        <ele>43.799999237061</ele>
        <time>2016-03-14T20:24:01.000Z</time>
      </trkpt>
      <trkpt lat="48.90812" lon="2.25053">
        <ele>43.400001525879</ele>
        <time>2016-03-14T20:24:05.000Z</time>
      </trkpt>
      <trkpt lat="48.90797" lon="2.25036">
        <ele>43</ele>
        <time>2016-03-14T20:24:08.000Z</time>
      </trkpt>
      <trkpt lat="48.90783" lon="2.25018">
        <ele>42.599998474121</ele>
        <time>2016-03-14T20:24:11.000Z</time>
      </trkpt>
      <trkpt lat="48.90765" lon="2.24998">
        <ele>42.400001525879</ele>
        <time>2016-03-14T20:24:14.000Z</time>
      </trkpt>
      <trkpt lat="48.90748" lon="2.24977">
        <ele>43.400001525879</ele>
        <time>2016-03-14T20:24:17.000Z</time>
      </trkpt>
      <trkpt lat="48.90733" lon="2.24957">
        <ele>44.400001525879</ele>
        <time>2016-03-14T20:24:20.000Z</time>
      </trkpt>
      <trkpt lat="48.90716" lon="2.24937">
        <ele>45.400001525879</ele>
        <time>2016-03-14T20:24:23.000Z</time>
      </trkpt>
      <trkpt lat="48.90711" lon="2.24932">
        <ele>45.799999237061</ele>
        <time>2016-03-14T20:24:24.000Z</time>
      </trkpt>
      <trkpt lat="48.90696" lon="2.24913">
        <ele>46.599998474121</ele>
        <time>2016-03-14T20:24:27.000Z</time>
      </trkpt>
      <trkpt lat="48.9068" lon="2.2489">
        <ele>46.799999237061</ele>
        <time>2016-03-14T20:24:31.000Z</time>
      </trkpt>
      <trkpt lat="48.90669" lon="2.24875">
        <ele>46.400001525879</ele>
        <time>2016-03-14T20:24:34.000Z</time>
      </trkpt>
      <trkpt lat="48.90664" lon="2.24868">
        <ele>46.200000762939</ele>
        <time>2016-03-14T20:24:36.000Z</time>
      </trkpt>
      <trkpt lat="48.9066" lon="2.24843">
        <ele>46.400001525879</ele>
        <time>2016-03-14T20:24:43.000Z</time>
      </trkpt>
      <trkpt lat="48.90659" lon="2.24835">
        <ele>46.400001525879</ele>
        <time>2016-03-14T20:24:45.000Z</time>
      </trkpt>
      <trkpt lat="48.90656" lon="2.24822">
        <ele>46.400001525879</ele>
        <time>2016-03-14T20:24:49.000Z</time>
      </trkpt>
      <trkpt lat="48.90649" lon="2.24805">
        <ele>46</ele>
        <time>2016-03-14T20:24:56.000Z</time>
      </trkpt>
      <trkpt lat="48.90648" lon="2.24802">
        <ele>46</ele>
        <time>2016-03-14T20:24:57.000Z</time>
      </trkpt>
      <trkpt lat="48.90646" lon="2.24797">
        <ele>45.799999237061</ele>
        <time>2016-03-14T20:25:01.000Z</time>
      </trkpt>
      <trkpt lat="48.90645" lon="2.24798">
        <ele>45.799999237061</ele>
        <time>2016-03-14T20:25:02.000Z</time>
      </trkpt>
      <trkpt lat="48.90628" lon="2.24782">
        <ele>45</ele>
        <time>2016-03-14T20:25:10.000Z</time>
      </trkpt>
      <trkpt lat="48.90618" lon="2.24755">
        <ele>44.599998474121</ele>
        <time>2016-03-14T20:25:15.000Z</time>
      </trkpt>
      <trkpt lat="48.90605" lon="2.24725">
        <ele>43.200000762939</ele>
        <time>2016-03-14T20:25:20.000Z</time>
      </trkpt>
      <trkpt lat="48.90596" lon="2.24698">
        <ele>42.400001525879</ele>
        <time>2016-03-14T20:25:24.000Z</time>
      </trkpt>
      <trkpt lat="48.90588" lon="2.24668">
        <ele>41.400001525879</ele>
        <time>2016-03-14T20:25:28.000Z</time>
      </trkpt>
      <trkpt lat="48.9058" lon="2.24636">
        <ele>41</ele>
        <time>2016-03-14T20:25:32.000Z</time>
      </trkpt>
      <trkpt lat="48.90574" lon="2.24608">
        <ele>41</ele>
        <time>2016-03-14T20:25:36.000Z</time>
      </trkpt>
      <trkpt lat="48.90568" lon="2.24581">
        <ele>41</ele>
        <time>2016-03-14T20:25:40.000Z</time>
      </trkpt>
      <trkpt lat="48.9056" lon="2.24557">
        <ele>41.200000762939</ele>
        <time>2016-03-14T20:25:44.000Z</time>
      </trkpt>
      <trkpt lat="48.90551" lon="2.2453">
        <ele>41.599998474121</ele>
        <time>2016-03-14T20:25:48.000Z</time>
      </trkpt>
      <trkpt lat="48.90543" lon="2.24499">
        <ele>42.200000762939</ele>
        <time>2016-03-14T20:25:52.000Z</time>
      </trkpt>
      <trkpt lat="48.90535" lon="2.24469">
        <ele>41.400001525879</ele>
        <time>2016-03-14T20:25:55.000Z</time>
      </trkpt>
      <trkpt lat="48.9053" lon="2.24442">
        <ele>40.799999237061</ele>
        <time>2016-03-14T20:25:58.000Z</time>
      </trkpt>
      <trkpt lat="48.90526" lon="2.24412">
        <ele>40</ele>
        <time>2016-03-14T20:26:02.000Z</time>
      </trkpt>
      <trkpt lat="48.9052" lon="2.24385">
        <ele>40.400001525879</ele>
        <time>2016-03-14T20:26:06.000Z</time>
      </trkpt>
      <trkpt lat="48.90512" lon="2.24357">
        <ele>41.200000762939</ele>
        <time>2016-03-14T20:26:10.000Z</time>
      </trkpt>
      <trkpt lat="48.90505" lon="2.24326">
        <ele>41.799999237061</ele>
        <time>2016-03-14T20:26:14.000Z</time>
      </trkpt>
      <trkpt lat="48.90494" lon="2.24293">
        <ele>42.200000762939</ele>
        <time>2016-03-14T20:26:18.000Z</time>
      </trkpt>
      <trkpt lat="48.90487" lon="2.24266">
        <ele>43</ele>
        <time>2016-03-14T20:26:21.000Z</time>
      </trkpt>
      <trkpt lat="48.90481" lon="2.2424">
        <ele>43.599998474121</ele>
        <time>2016-03-14T20:26:24.000Z</time>
      </trkpt>
      <trkpt lat="48.90472" lon="2.24208">
        <ele>43.599998474121</ele>
        <time>2016-03-14T20:26:28.000Z</time>
      </trkpt>
      <trkpt lat="48.90467" lon="2.24177">
        <ele>43.400001525879</ele>
        <time>2016-03-14T20:26:31.000Z</time>
      </trkpt>
      <trkpt lat="48.90466" lon="2.2417">
        <ele>43.200000762939</ele>
        <time>2016-03-14T20:26:32.000Z</time>
      </trkpt>
      <trkpt lat="48.9046" lon="2.24141">
        <ele>43</ele>
        <time>2016-03-14T20:26:36.000Z</time>
      </trkpt>
      <trkpt lat="48.90455" lon="2.24112">
        <ele>42.799999237061</ele>
        <time>2016-03-14T20:26:40.000Z</time>
      </trkpt>
      <trkpt lat="48.90448" lon="2.24082">
        <ele>42.799999237061</ele>
        <time>2016-03-14T20:26:45.000Z</time>
      </trkpt>
      <trkpt lat="48.90445" lon="2.24072">
        <ele>42.799999237061</ele>
        <time>2016-03-14T20:26:47.000Z</time>
      </trkpt>
      <trkpt lat="48.90446" lon="2.24051">
        <ele>42.400001525879</ele>
        <time>2016-03-14T20:26:52.000Z</time>
      </trkpt>
      <trkpt lat="48.9045" lon="2.24027">
        <ele>42</ele>
        <time>2016-03-14T20:27:17.000Z</time>
      </trkpt>
      <trkpt lat="48.90452" lon="2.24026">
        <ele>42</ele>
        <time>2016-03-14T20:27:18.000Z</time>
      </trkpt>
      <trkpt lat="48.90471" lon="2.24014">
        <ele>41</ele>
        <time>2016-03-14T20:27:26.000Z</time>
      </trkpt>
      <trkpt lat="48.90473" lon="2.24008">
        <ele>40.599998474121</ele>
        <time>2016-03-14T20:27:28.000Z</time>
      </trkpt>
      <trkpt lat="48.90472" lon="2.23991">
        <ele>40.400001525879</ele>
        <time>2016-03-14T20:27:32.000Z</time>
      </trkpt>
      <trkpt lat="48.90468" lon="2.23963">
        <ele>39.799999237061</ele>
        <time>2016-03-14T20:27:41.000Z</time>
      </trkpt>
      <trkpt lat="48.90467" lon="2.23958">
        <ele>39.799999237061</ele>
        <time>2016-03-14T20:27:43.000Z</time>
      </trkpt>
      <trkpt lat="48.90472" lon="2.2395">
        <ele>39.400001525879</ele>
        <time>2016-03-14T20:27:47.000Z</time>
      </trkpt>
      <trkpt lat="48.90492" lon="2.23941">
        <ele>39.400001525879</ele>
        <time>2016-03-14T20:27:54.000Z</time>
      </trkpt>
      <trkpt lat="48.90501" lon="2.23931">
        <ele>39.599998474121</ele>
        <time>2016-03-14T20:27:59.000Z</time>
      </trkpt>
      <trkpt lat="48.90494" lon="2.23905">
        <ele>40.200000762939</ele>
        <time>2016-03-14T20:28:12.000Z</time>
      </trkpt>
      <trkpt lat="48.90481" lon="2.23887">
        <ele>40.599998474121</ele>
        <time>2016-03-14T20:28:22.000Z</time>
      </trkpt>
      <trkpt lat="48.90474" lon="2.23861">
        <ele>41.200000762939</ele>
        <time>2016-03-14T20:28:27.000Z</time>
      </trkpt>
      <trkpt lat="48.90472" lon="2.2383">
        <ele>42</ele>
        <time>2016-03-14T20:28:33.000Z</time>
      </trkpt>
      <trkpt lat="48.90469" lon="2.238">
        <ele>42</ele>
        <time>2016-03-14T20:28:41.000Z</time>
      </trkpt>
      <trkpt lat="48.90463" lon="2.23771">
        <ele>42</ele>
        <time>2016-03-14T20:28:46.000Z</time>
      </trkpt>
      <trkpt lat="48.90461" lon="2.23741">
        <ele>41.799999237061</ele>
        <time>2016-03-14T20:28:50.000Z</time>
      </trkpt>
      <trkpt lat="48.90454" lon="2.23706">
        <ele>41.799999237061</ele>
        <time>2016-03-14T20:28:57.000Z</time>
      </trkpt>
      <trkpt lat="48.90452" lon="2.23679">
        <ele>41.799999237061</ele>
        <time>2016-03-14T20:29:00.000Z</time>
      </trkpt>
      <trkpt lat="48.90451" lon="2.23646">
        <ele>41.599998474121</ele>
        <time>2016-03-14T20:29:04.000Z</time>
      </trkpt>
      <trkpt lat="48.90443" lon="2.2362">
        <ele>41.400001525879</ele>
        <time>2016-03-14T20:29:08.000Z</time>
      </trkpt>
      <trkpt lat="48.90439" lon="2.2361">
        <ele>41.400001525879</ele>
        <time>2016-03-14T20:29:10.000Z</time>
      </trkpt>
      <trkpt lat="48.90434" lon="2.23583">
        <ele>41</ele>
        <time>2016-03-14T20:29:15.000Z</time>
      </trkpt>
      <trkpt lat="48.90431" lon="2.23565">
        <ele>41.200000762939</ele>
        <time>2016-03-14T20:29:20.000Z</time>
      </trkpt>
      <trkpt lat="48.90416" lon="2.23543">
        <ele>41.200000762939</ele>
        <time>2016-03-14T20:29:25.000Z</time>
      </trkpt>
      <trkpt lat="48.90408" lon="2.23518">
        <ele>41.400001525879</ele>
        <time>2016-03-14T20:29:30.000Z</time>
      </trkpt>
      <trkpt lat="48.90403" lon="2.23491">
        <ele>41.400001525879</ele>
        <time>2016-03-14T20:29:34.000Z</time>
      </trkpt>
      <trkpt lat="48.90394" lon="2.23463">
        <ele>40.799999237061</ele>
        <time>2016-03-14T20:29:39.000Z</time>
      </trkpt>
      <trkpt lat="48.90388" lon="2.23437">
        <ele>40.200000762939</ele>
        <time>2016-03-14T20:29:44.000Z</time>
      </trkpt>
      <trkpt lat="48.90383" lon="2.2341">
        <ele>39.400001525879</ele>
        <time>2016-03-14T20:29:49.000Z</time>
      </trkpt>
      <trkpt lat="48.90375" lon="2.23384">
        <ele>39.799999237061</ele>
        <time>2016-03-14T20:29:54.000Z</time>
      </trkpt>
      <trkpt lat="48.9037" lon="2.23353">
        <ele>40.400001525879</ele>
        <time>2016-03-14T20:29:59.000Z</time>
      </trkpt>
      <trkpt lat="48.90367" lon="2.23325">
        <ele>40.400001525879</ele>
        <time>2016-03-14T20:30:03.000Z</time>
      </trkpt>
      <trkpt lat="48.90362" lon="2.23296">
        <ele>40.400001525879</ele>
        <time>2016-03-14T20:30:08.000Z</time>
      </trkpt>
      <trkpt lat="48.90357" lon="2.23267">
        <ele>40.200000762939</ele>
        <time>2016-03-14T20:30:13.000Z</time>
      </trkpt>
      <trkpt lat="48.90352" lon="2.23239">
        <ele>40</ele>
        <time>2016-03-14T20:30:18.000Z</time>
      </trkpt>
      <trkpt lat="48.90346" lon="2.23212">
        <ele>39.799999237061</ele>
        <time>2016-03-14T20:30:23.000Z</time>
      </trkpt>
      <trkpt lat="48.90341" lon="2.23182">
        <ele>39.400001525879</ele>
        <time>2016-03-14T20:30:28.000Z</time>
      </trkpt>
      <trkpt lat="48.90334" lon="2.23154">
        <ele>39.200000762939</ele>
        <time>2016-03-14T20:30:33.000Z</time>
      </trkpt>
      <trkpt lat="48.90328" lon="2.23122">
        <ele>38.799999237061</ele>
        <time>2016-03-14T20:30:38.000Z</time>
      </trkpt>
      <trkpt lat="48.90325" lon="2.23093">
        <ele>38.599998474121</ele>
        <time>2016-03-14T20:30:42.000Z</time>
      </trkpt>
      <trkpt lat="48.90324" lon="2.23062">
        <ele>38.799999237061</ele>
        <time>2016-03-14T20:30:46.000Z</time>
      </trkpt>
      <trkpt lat="48.90317" lon="2.23036">
        <ele>39.400001525879</ele>
        <time>2016-03-14T20:30:50.000Z</time>
      </trkpt>
      <trkpt lat="48.9031" lon="2.23006">
        <ele>39.400001525879</ele>
        <time>2016-03-14T20:30:55.000Z</time>
      </trkpt>
      <trkpt lat="48.90302" lon="2.22979">
        <ele>40</ele>
        <time>2016-03-14T20:30:59.000Z</time>
      </trkpt>
      <trkpt lat="48.90295" lon="2.22952">
        <ele>41</ele>
        <time>2016-03-14T20:31:03.000Z</time>
      </trkpt>
      <trkpt lat="48.90289" lon="2.22934">
        <ele>41.799999237061</ele>
        <time>2016-03-14T20:31:06.000Z</time>
      </trkpt>
      <trkpt lat="48.90282" lon="2.22908">
        <ele>42.599998474121</ele>
        <time>2016-03-14T20:31:10.000Z</time>
      </trkpt>
      <trkpt lat="48.90274" lon="2.22883">
        <ele>43.400001525879</ele>
        <time>2016-03-14T20:31:14.000Z</time>
      </trkpt>
      <trkpt lat="48.90269" lon="2.22848">
        <ele>43.799999237061</ele>
        <time>2016-03-14T20:31:19.000Z</time>
      </trkpt>
      <trkpt lat="48.90264" lon="2.22815">
        <ele>43.599998474121</ele>
        <time>2016-03-14T20:31:24.000Z</time>
      </trkpt>
      <trkpt lat="48.90261" lon="2.22793">
        <ele>42.799999237061</ele>
        <time>2016-03-14T20:31:29.000Z</time>
      </trkpt>
      <trkpt lat="48.90258" lon="2.22775">
        <ele>42.200000762939</ele>
        <time>2016-03-14T20:31:33.000Z</time>
      </trkpt>
      <trkpt lat="48.90253" lon="2.22754">
        <ele>41.599998474121</ele>
        <time>2016-03-14T20:31:37.000Z</time>
      </trkpt>
      <trkpt lat="48.9025" lon="2.22749">
        <ele>41.400001525879</ele>
        <time>2016-03-14T20:31:38.000Z</time>
      </trkpt>
      <trkpt lat="48.90244" lon="2.22735">
        <ele>41.599998474121</ele>
        <time>2016-03-14T20:31:41.000Z</time>
      </trkpt>
      <trkpt lat="48.90238" lon="2.22714">
        <ele>42.200000762939</ele>
        <time>2016-03-14T20:31:46.000Z</time>
      </trkpt>
      <trkpt lat="48.90232" lon="2.22686">
        <ele>42.799999237061</ele>
        <time>2016-03-14T20:31:51.000Z</time>
      </trkpt>
      <trkpt lat="48.90226" lon="2.22657">
        <ele>43.200000762939</ele>
        <time>2016-03-14T20:31:56.000Z</time>
      </trkpt>
      <trkpt lat="48.90221" lon="2.22626">
        <ele>43.599998474121</ele>
        <time>2016-03-14T20:32:02.000Z</time>
      </trkpt>
      <trkpt lat="48.90214" lon="2.22598">
        <ele>44.200000762939</ele>
        <time>2016-03-14T20:32:07.000Z</time>
      </trkpt>
      <trkpt lat="48.90203" lon="2.22569">
        <ele>45.200000762939</ele>
        <time>2016-03-14T20:32:12.000Z</time>
      </trkpt>
      <trkpt lat="48.90194" lon="2.22545">
        <ele>46.200000762939</ele>
        <time>2016-03-14T20:32:16.000Z</time>
      </trkpt>
      <trkpt lat="48.90184" lon="2.22515">
        <ele>47.400001525879</ele>
        <time>2016-03-14T20:32:21.000Z</time>
      </trkpt>
      <trkpt lat="48.90174" lon="2.22486">
        <ele>48.599998474121</ele>
        <time>2016-03-14T20:32:26.000Z</time>
      </trkpt>
      <trkpt lat="48.90166" lon="2.22461">
        <ele>48.799999237061</ele>
        <time>2016-03-14T20:32:30.000Z</time>
      </trkpt>
      <trkpt lat="48.90163" lon="2.22451">
        <ele>48.599998474121</ele>
        <time>2016-03-14T20:32:32.000Z</time>
      </trkpt>
      <trkpt lat="48.90155" lon="2.22423">
        <ele>48.400001525879</ele>
        <time>2016-03-14T20:32:37.000Z</time>
      </trkpt>
      <trkpt lat="48.90142" lon="2.22398">
        <ele>48.799999237061</ele>
        <time>2016-03-14T20:32:41.000Z</time>
      </trkpt>
      <trkpt lat="48.90139" lon="2.22393">
        <ele>48.799999237061</ele>
        <time>2016-03-14T20:32:42.000Z</time>
      </trkpt>
      <trkpt lat="48.90127" lon="2.22371">
        <ele>49.200000762939</ele>
        <time>2016-03-14T20:32:46.000Z</time>
      </trkpt>
      <trkpt lat="48.90118" lon="2.22347">
        <ele>49.599998474121</ele>
        <time>2016-03-14T20:32:50.000Z</time>
      </trkpt>
      <trkpt lat="48.9011" lon="2.22322">
        <ele>49.599998474121</ele>
        <time>2016-03-14T20:32:54.000Z</time>
      </trkpt>
      <trkpt lat="48.90101" lon="2.22297">
        <ele>50</ele>
        <time>2016-03-14T20:32:58.000Z</time>
      </trkpt>
      <trkpt lat="48.90091" lon="2.2227">
        <ele>50.400001525879</ele>
        <time>2016-03-14T20:33:02.000Z</time>
      </trkpt>
      <trkpt lat="48.90078" lon="2.22242">
        <ele>50.799999237061</ele>
        <time>2016-03-14T20:33:06.000Z</time>
      </trkpt>
      <trkpt lat="48.90074" lon="2.22236">
        <ele>50.599998474121</ele>
        <time>2016-03-14T20:33:07.000Z</time>
      </trkpt>
      <trkpt lat="48.90055" lon="2.22216">
        <ele>50.599998474121</ele>
        <time>2016-03-14T20:33:11.000Z</time>
      </trkpt>
      <trkpt lat="48.90035" lon="2.22196">
        <ele>50.599998474121</ele>
        <time>2016-03-14T20:33:15.000Z</time>
      </trkpt>
      <trkpt lat="48.90034" lon="2.22189">
        <ele>50.200000762939</ele>
        <time>2016-03-14T20:33:16.000Z</time>
      </trkpt>
      <trkpt lat="48.9003" lon="2.22151">
        <ele>48.400001525879</ele>
        <time>2016-03-14T20:33:21.000Z</time>
      </trkpt>
      <trkpt lat="48.90018" lon="2.22125">
        <ele>47.799999237061</ele>
        <time>2016-03-14T20:33:27.000Z</time>
      </trkpt>
      <trkpt lat="48.90004" lon="2.2211">
        <ele>47.799999237061</ele>
        <time>2016-03-14T20:33:52.000Z</time>
      </trkpt>
      <trkpt lat="48.89986" lon="2.2211">
        <ele>48.599998474121</ele>
        <time>2016-03-14T20:33:59.000Z</time>
      </trkpt>
      <trkpt lat="48.89967" lon="2.22108">
        <ele>49</ele>
        <time>2016-03-14T20:34:05.000Z</time>
      </trkpt>
      <trkpt lat="48.8996" lon="2.22108">
        <ele>49.200000762939</ele>
        <time>2016-03-14T20:34:08.000Z</time>
      </trkpt>
      <trkpt lat="48.89968" lon="2.2211">
        <ele>49</ele>
        <time>2016-03-14T20:34:13.000Z</time>
      </trkpt>
      <trkpt lat="48.89987" lon="2.22118">
        <ele>48.799999237061</ele>
        <time>2016-03-14T20:34:18.000Z</time>
      </trkpt>
      <trkpt lat="48.90004" lon="2.22115">
        <ele>48</ele>
        <time>2016-03-14T20:34:27.000Z</time>
      </trkpt>
      <trkpt lat="48.90015" lon="2.22124">
        <ele>48</ele>
        <time>2016-03-14T20:34:46.000Z</time>
      </trkpt>
      <trkpt lat="48.90019" lon="2.2212">
        <ele>47.599998474121</ele>
        <time>2016-03-14T20:34:51.000Z</time>
      </trkpt>
      <trkpt lat="48.90031" lon="2.22144">
        <ele>48.200000762939</ele>
        <time>2016-03-14T20:35:00.000Z</time>
      </trkpt>
      <trkpt lat="48.90042" lon="2.22169">
        <ele>48.799999237061</ele>
        <time>2016-03-14T20:35:05.000Z</time>
      </trkpt>
      <trkpt lat="48.90053" lon="2.22193">
        <ele>49</ele>
        <time>2016-03-14T20:35:09.000Z</time>
      </trkpt>
      <trkpt lat="48.9007" lon="2.22218">
        <ele>49.599998474121</ele>
        <time>2016-03-14T20:35:13.000Z</time>
      </trkpt>
      <trkpt lat="48.90082" lon="2.22232">
        <ele>49.799999237061</ele>
        <time>2016-03-14T20:35:15.000Z</time>
      </trkpt>
      <trkpt lat="48.90094" lon="2.2226">
        <ele>50.200000762939</ele>
        <time>2016-03-14T20:35:18.000Z</time>
      </trkpt>
      <trkpt lat="48.901" lon="2.22293">
        <ele>50</ele>
        <time>2016-03-14T20:35:22.000Z</time>
      </trkpt>
      <trkpt lat="48.90103" lon="2.22302">
        <ele>50</ele>
        <time>2016-03-14T20:35:23.000Z</time>
      </trkpt>
      <trkpt lat="48.90112" lon="2.22328">
        <ele>49.599998474121</ele>
        <time>2016-03-14T20:35:26.000Z</time>
      </trkpt>
      <trkpt lat="48.90122" lon="2.22356">
        <ele>49.400001525879</ele>
        <time>2016-03-14T20:35:29.000Z</time>
      </trkpt>
      <trkpt lat="48.90135" lon="2.22385">
        <ele>49</ele>
        <time>2016-03-14T20:35:32.000Z</time>
      </trkpt>
      <trkpt lat="48.90147" lon="2.22413">
        <ele>48.599998474121</ele>
        <time>2016-03-14T20:35:35.000Z</time>
      </trkpt>
      <trkpt lat="48.90157" lon="2.22441">
        <ele>48.799999237061</ele>
        <time>2016-03-14T20:35:38.000Z</time>
      </trkpt>
      <trkpt lat="48.90169" lon="2.22469">
        <ele>48.799999237061</ele>
        <time>2016-03-14T20:35:41.000Z</time>
      </trkpt>
      <trkpt lat="48.90173" lon="2.22478">
        <ele>48.799999237061</ele>
        <time>2016-03-14T20:35:42.000Z</time>
      </trkpt>
      <trkpt lat="48.90186" lon="2.22505">
        <ele>47.799999237061</ele>
        <time>2016-03-14T20:35:46.000Z</time>
      </trkpt>
      <trkpt lat="48.90188" lon="2.22511">
        <ele>47.400001525879</ele>
        <time>2016-03-14T20:35:47.000Z</time>
      </trkpt>
      <trkpt lat="48.90193" lon="2.22525">
        <ele>47</ele>
        <time>2016-03-14T20:35:51.000Z</time>
      </trkpt>
      <trkpt lat="48.90188" lon="2.22518">
        <ele>47.200000762939</ele>
        <time>2016-03-14T20:35:56.000Z</time>
      </trkpt>
      <trkpt lat="48.90187" lon="2.22517">
        <ele>47.200000762939</ele>
        <time>2016-03-14T20:35:57.000Z</time>
      </trkpt>
      <trkpt lat="48.90182" lon="2.22508">
        <ele>47.799999237061</ele>
        <time>2016-03-14T20:36:01.000Z</time>
      </trkpt>
      <trkpt lat="48.90175" lon="2.22496">
        <ele>48.400001525879</ele>
        <time>2016-03-14T20:36:05.000Z</time>
      </trkpt>
      <trkpt lat="48.90167" lon="2.22488">
        <ele>48.799999237061</ele>
        <time>2016-03-14T20:36:08.000Z</time>
      </trkpt>
      <trkpt lat="48.90148" lon="2.22497">
        <ele>49</ele>
        <time>2016-03-14T20:36:15.000Z</time>
      </trkpt>
      <trkpt lat="48.90144" lon="2.22501">
        <ele>48.799999237061</ele>
        <time>2016-03-14T20:36:17.000Z</time>
      </trkpt>
      <trkpt lat="48.90129" lon="2.22511">
        <ele>49</ele>
        <time>2016-03-14T20:36:25.000Z</time>
      </trkpt>
      <trkpt lat="48.90124" lon="2.22505">
        <ele>49.200000762939</ele>
        <time>2016-03-14T20:36:29.000Z</time>
      </trkpt>
      <trkpt lat="48.90109" lon="2.22482">
        <ele>50.200000762939</ele>
        <time>2016-03-14T20:36:38.000Z</time>
      </trkpt>
      <trkpt lat="48.90093" lon="2.22459">
        <ele>50.799999237061</ele>
        <time>2016-03-14T20:36:43.000Z</time>
      </trkpt>
      <trkpt lat="48.90077" lon="2.22432">
        <ele>51.599998474121</ele>
        <time>2016-03-14T20:36:47.000Z</time>
      </trkpt>
      <trkpt lat="48.90063" lon="2.22408">
        <ele>52.200000762939</ele>
        <time>2016-03-14T20:36:51.000Z</time>
      </trkpt>
      <trkpt lat="48.90057" lon="2.22396">
        <ele>52.599998474121</ele>
        <time>2016-03-14T20:36:53.000Z</time>
      </trkpt>
      <trkpt lat="48.90046" lon="2.22377">
        <ele>53.200000762939</ele>
        <time>2016-03-14T20:36:57.000Z</time>
      </trkpt>
      <trkpt lat="48.90038" lon="2.22367">
        <ele>53.599998474121</ele>
        <time>2016-03-14T20:37:01.000Z</time>
      </trkpt>
      <trkpt lat="48.90037" lon="2.22366">
        <ele>53.599998474121</ele>
        <time>2016-03-14T20:37:02.000Z</time>
      </trkpt>
      <trkpt lat="48.90029" lon="2.22355">
        <ele>54</ele>
        <time>2016-03-14T20:37:34.000Z</time>
      </trkpt>
      <trkpt lat="48.90015" lon="2.22332">
        <ele>54.599998474121</ele>
        <time>2016-03-14T20:37:39.000Z</time>
      </trkpt>
      <trkpt lat="48.90012" lon="2.22326">
        <ele>54.599998474121</ele>
        <time>2016-03-14T20:37:40.000Z</time>
      </trkpt>
      <trkpt lat="48.90002" lon="2.22303">
        <ele>54.200000762939</ele>
        <time>2016-03-14T20:37:43.000Z</time>
      </trkpt>
      <trkpt lat="48.89994" lon="2.22287">
        <ele>54</ele>
        <time>2016-03-14T20:37:45.000Z</time>
      </trkpt>
      <trkpt lat="48.8998" lon="2.22263">
        <ele>53.400001525879</ele>
        <time>2016-03-14T20:37:48.000Z</time>
      </trkpt>
      <trkpt lat="48.89971" lon="2.22248">
        <ele>53.200000762939</ele>
        <time>2016-03-14T20:37:50.000Z</time>
      </trkpt>
      <trkpt lat="48.89958" lon="2.22224">
        <ele>52.400001525879</ele>
        <time>2016-03-14T20:37:53.000Z</time>
      </trkpt>
      <trkpt lat="48.89945" lon="2.22202">
        <ele>51.599998474121</ele>
        <time>2016-03-14T20:37:56.000Z</time>
      </trkpt>
      <trkpt lat="48.8993" lon="2.22176">
        <ele>51.200000762939</ele>
        <time>2016-03-14T20:38:00.000Z</time>
      </trkpt>
      <trkpt lat="48.89912" lon="2.22156">
        <ele>51.599998474121</ele>
        <time>2016-03-14T20:38:05.000Z</time>
      </trkpt>
      <trkpt lat="48.89898" lon="2.22135">
        <ele>52.400001525879</ele>
        <time>2016-03-14T20:38:10.000Z</time>
      </trkpt>
      <trkpt lat="48.89888" lon="2.22115">
        <ele>53.400001525879</ele>
        <time>2016-03-14T20:38:14.000Z</time>
      </trkpt>
      <trkpt lat="48.89881" lon="2.22099">
        <ele>53.799999237061</ele>
        <time>2016-03-14T20:38:17.000Z</time>
      </trkpt>
      <trkpt lat="48.89879" lon="2.22078">
        <ele>53.400001525879</ele>
        <time>2016-03-14T20:38:23.000Z</time>
      </trkpt>
      <trkpt lat="48.89878" lon="2.22076">
        <ele>53.400001525879</ele>
        <time>2016-03-14T20:38:24.000Z</time>
      </trkpt>
      <trkpt lat="48.89865" lon="2.22051">
        <ele>53</ele>
        <time>2016-03-14T20:38:31.000Z</time>
      </trkpt>
      <trkpt lat="48.89863" lon="2.22047">
        <ele>53</ele>
        <time>2016-03-14T20:38:32.000Z</time>
      </trkpt>
      <trkpt lat="48.8985" lon="2.22022">
        <ele>52.200000762939</ele>
        <time>2016-03-14T20:38:39.000Z</time>
      </trkpt>
      <trkpt lat="48.89836" lon="2.22005">
        <ele>51.400001525879</ele>
        <time>2016-03-14T20:38:46.000Z</time>
      </trkpt>
      <trkpt lat="48.89819" lon="2.2199">
        <ele>50.799999237061</ele>
        <time>2016-03-14T20:38:54.000Z</time>
      </trkpt>
      <trkpt lat="48.89817" lon="2.2196">
        <ele>49.799999237061</ele>
        <time>2016-03-14T20:39:00.000Z</time>
      </trkpt>
      <trkpt lat="48.89814" lon="2.21933">
        <ele>48.599998474121</ele>
        <time>2016-03-14T20:39:07.000Z</time>
      </trkpt>
      <trkpt lat="48.89824" lon="2.21907">
        <ele>47.599998474121</ele>
        <time>2016-03-14T20:39:14.000Z</time>
      </trkpt>
      <trkpt lat="48.89831" lon="2.21877">
        <ele>47.799999237061</ele>
        <time>2016-03-14T20:39:21.000Z</time>
      </trkpt>
      <trkpt lat="48.8983" lon="2.21848">
        <ele>47</ele>
        <time>2016-03-14T20:39:25.000Z</time>
      </trkpt>
      <trkpt lat="48.89809" lon="2.21841">
        <ele>48.200000762939</ele>
        <time>2016-03-14T20:39:29.000Z</time>
      </trkpt>
      <trkpt lat="48.8979" lon="2.21824">
        <ele>49.200000762939</ele>
        <time>2016-03-14T20:39:34.000Z</time>
      </trkpt>
      <trkpt lat="48.89774" lon="2.21809">
        <ele>50.400001525879</ele>
        <time>2016-03-14T20:39:40.000Z</time>
      </trkpt>
      <trkpt lat="48.89772" lon="2.21806">
        <ele>50.599998474121</ele>
        <time>2016-03-14T20:39:43.000Z</time>
      </trkpt>
      <trkpt lat="48.89769" lon="2.21808">
        <ele>50.400001525879</ele>
        <time>2016-03-14T20:39:49.000Z</time>
      </trkpt>
      <trkpt lat="48.89765" lon="2.21808">
        <ele>50.400001525879</ele>
        <time>2016-03-14T20:39:54.000Z</time>
      </trkpt>
      <trkpt lat="48.89757" lon="2.21834">
        <ele>50.400001525879</ele>
        <time>2016-03-14T20:40:01.000Z</time>
      </trkpt>
      <trkpt lat="48.89751" lon="2.2186">
        <ele>50</ele>
        <time>2016-03-14T20:40:05.000Z</time>
      </trkpt>
      <trkpt lat="48.89743" lon="2.21887">
        <ele>49.799999237061</ele>
        <time>2016-03-14T20:40:09.000Z</time>
      </trkpt>
      <trkpt lat="48.89737" lon="2.21914">
        <ele>50.599998474121</ele>
        <time>2016-03-14T20:40:13.000Z</time>
      </trkpt>
      <trkpt lat="48.89729" lon="2.21943">
        <ele>52.400001525879</ele>
        <time>2016-03-14T20:40:17.000Z</time>
      </trkpt>
      <trkpt lat="48.89722" lon="2.21968">
        <ele>52.599998474121</ele>
        <time>2016-03-14T20:40:20.000Z</time>
      </trkpt>
      <trkpt lat="48.89714" lon="2.21998">
        <ele>52.599998474121</ele>
        <time>2016-03-14T20:40:24.000Z</time>
      </trkpt>
      <trkpt lat="48.89711" lon="2.22005">
        <ele>53</ele>
        <time>2016-03-14T20:40:25.000Z</time>
      </trkpt>
      <trkpt lat="48.89702" lon="2.22038">
        <ele>53</ele>
        <time>2016-03-14T20:40:29.000Z</time>
      </trkpt>
      <trkpt lat="48.89698" lon="2.22051">
        <ele>52.599998474121</ele>
        <time>2016-03-14T20:40:31.000Z</time>
      </trkpt>
      <trkpt lat="48.89691" lon="2.22074">
        <ele>52</ele>
        <time>2016-03-14T20:40:35.000Z</time>
      </trkpt>
      <trkpt lat="48.89684" lon="2.22099">
        <ele>52.400001525879</ele>
        <time>2016-03-14T20:40:41.000Z</time>
      </trkpt>
      <trkpt lat="48.89677" lon="2.22126">
        <ele>52.599998474121</ele>
        <time>2016-03-14T20:40:47.000Z</time>
      </trkpt>
      <trkpt lat="48.89672" lon="2.22154">
        <ele>53</ele>
        <time>2016-03-14T20:40:53.000Z</time>
      </trkpt>
      <trkpt lat="48.89671" lon="2.2219">
        <ele>54.400001525879</ele>
        <time>2016-03-14T20:40:59.000Z</time>
      </trkpt>
      <trkpt lat="48.89673" lon="2.22221">
        <ele>55.799999237061</ele>
        <time>2016-03-14T20:41:03.000Z</time>
      </trkpt>
      <trkpt lat="48.89666" lon="2.22251">
        <ele>57</ele>
        <time>2016-03-14T20:41:08.000Z</time>
      </trkpt>
      <trkpt lat="48.89654" lon="2.22272">
        <ele>58.200000762939</ele>
        <time>2016-03-14T20:41:13.000Z</time>
      </trkpt>
      <trkpt lat="48.89642" lon="2.22299">
        <ele>59.200000762939</ele>
        <time>2016-03-14T20:41:19.000Z</time>
      </trkpt>
      <trkpt lat="48.89629" lon="2.22324">
        <ele>59.599998474121</ele>
        <time>2016-03-14T20:41:25.000Z</time>
      </trkpt>
      <trkpt lat="48.89617" lon="2.22345">
        <ele>59.400001525879</ele>
        <time>2016-03-14T20:41:30.000Z</time>
      </trkpt>
      <trkpt lat="48.89607" lon="2.22371">
        <ele>58.400001525879</ele>
        <time>2016-03-14T20:41:35.000Z</time>
      </trkpt>
      <trkpt lat="48.89593" lon="2.22398">
        <ele>58</ele>
        <time>2016-03-14T20:41:40.000Z</time>
      </trkpt>
      <trkpt lat="48.89585" lon="2.22423">
        <ele>57.799999237061</ele>
        <time>2016-03-14T20:41:44.000Z</time>
      </trkpt>
      <trkpt lat="48.89576" lon="2.22454">
        <ele>58.799999237061</ele>
        <time>2016-03-14T20:41:49.000Z</time>
      </trkpt>
      <trkpt lat="48.89568" lon="2.2248">
        <ele>58.799999237061</ele>
        <time>2016-03-14T20:41:53.000Z</time>
      </trkpt>
      <trkpt lat="48.89559" lon="2.22506">
        <ele>58.599998474121</ele>
        <time>2016-03-14T20:41:57.000Z</time>
      </trkpt>
      <trkpt lat="48.89549" lon="2.22532">
        <ele>58.799999237061</ele>
        <time>2016-03-14T20:42:01.000Z</time>
      </trkpt>
      <trkpt lat="48.89541" lon="2.2256">
        <ele>59</ele>
        <time>2016-03-14T20:42:05.000Z</time>
      </trkpt>
      <trkpt lat="48.89533" lon="2.22589">
        <ele>58.599998474121</ele>
        <time>2016-03-14T20:42:09.000Z</time>
      </trkpt>
      <trkpt lat="48.89525" lon="2.22617">
        <ele>56.799999237061</ele>
        <time>2016-03-14T20:42:13.000Z</time>
      </trkpt>
      <trkpt lat="48.89516" lon="2.22644">
        <ele>55</ele>
        <time>2016-03-14T20:42:17.000Z</time>
      </trkpt>
      <trkpt lat="48.89514" lon="2.2265">
        <ele>54.599998474121</ele>
        <time>2016-03-14T20:42:18.000Z</time>
      </trkpt>
      <trkpt lat="48.89504" lon="2.22675">
        <ele>55</ele>
        <time>2016-03-14T20:42:22.000Z</time>
      </trkpt>
      <trkpt lat="48.89496" lon="2.22703">
        <ele>54.599998474121</ele>
        <time>2016-03-14T20:42:26.000Z</time>
      </trkpt>
      <trkpt lat="48.89483" lon="2.22732">
        <ele>54.799999237061</ele>
        <time>2016-03-14T20:42:31.000Z</time>
      </trkpt>
      <trkpt lat="48.89471" lon="2.22744">
        <ele>55.400001525879</ele>
        <time>2016-03-14T20:42:35.000Z</time>
      </trkpt>
      <trkpt lat="48.89469" lon="2.22747">
        <ele>55.599998474121</ele>
        <time>2016-03-14T20:42:36.000Z</time>
      </trkpt>
      <trkpt lat="48.89456" lon="2.22733">
        <ele>57</ele>
        <time>2016-03-14T20:43:03.000Z</time>
      </trkpt>
      <trkpt lat="48.89439" lon="2.2272">
        <ele>58.599998474121</ele>
        <time>2016-03-14T20:43:10.000Z</time>
      </trkpt>
      <trkpt lat="48.89419" lon="2.22716">
        <ele>59</ele>
        <time>2016-03-14T20:43:18.000Z</time>
      </trkpt>
      <trkpt lat="48.89399" lon="2.22717">
        <ele>58.799999237061</ele>
        <time>2016-03-14T20:43:25.000Z</time>
      </trkpt>
      <trkpt lat="48.89392" lon="2.22719">
        <ele>58.599998474121</ele>
        <time>2016-03-14T20:43:30.000Z</time>
      </trkpt>
      <trkpt lat="48.894" lon="2.22704">
        <ele>59.400001525879</ele>
        <time>2016-03-14T20:44:04.000Z</time>
      </trkpt>
      <trkpt lat="48.89389" lon="2.22691">
        <ele>60</ele>
        <time>2016-03-14T20:44:23.000Z</time>
      </trkpt>
      <trkpt lat="48.89374" lon="2.22673">
        <ele>60.599998474121</ele>
        <time>2016-03-14T20:44:32.000Z</time>
      </trkpt>
      <trkpt lat="48.89372" lon="2.2267">
        <ele>60.599998474121</ele>
        <time>2016-03-14T20:44:34.000Z</time>
      </trkpt>
      <trkpt lat="48.89372" lon="2.22662">
        <ele>60.799999237061</ele>
        <time>2016-03-14T20:44:39.000Z</time>
      </trkpt>
      <trkpt lat="48.89372" lon="2.22663">
        <ele>60.799999237061</ele>
        <time>2016-03-14T20:44:40.000Z</time>
      </trkpt>
      <trkpt lat="48.89378" lon="2.22636">
        <ele>60.400001525879</ele>
        <time>2016-03-14T20:45:09.000Z</time>
      </trkpt>
      <trkpt lat="48.89385" lon="2.22608">
        <ele>60</ele>
        <time>2016-03-14T20:45:15.000Z</time>
      </trkpt>
      <trkpt lat="48.89394" lon="2.2258">
        <ele>59.200000762939</ele>
        <time>2016-03-14T20:45:21.000Z</time>
      </trkpt>
      <trkpt lat="48.89405" lon="2.22553">
        <ele>58.200000762939</ele>
        <time>2016-03-14T20:45:27.000Z</time>
      </trkpt>
      <trkpt lat="48.89411" lon="2.22526">
        <ele>57.400001525879</ele>
        <time>2016-03-14T20:45:32.000Z</time>
      </trkpt>
      <trkpt lat="48.89418" lon="2.22499">
        <ele>56.599998474121</ele>
        <time>2016-03-14T20:45:37.000Z</time>
      </trkpt>
      <trkpt lat="48.89424" lon="2.22472">
        <ele>56.799999237061</ele>
        <time>2016-03-14T20:45:41.000Z</time>
      </trkpt>
      <trkpt lat="48.89432" lon="2.22447">
        <ele>57.799999237061</ele>
        <time>2016-03-14T20:45:45.000Z</time>
      </trkpt>
      <trkpt lat="48.89441" lon="2.22416">
        <ele>58.799999237061</ele>
        <time>2016-03-14T20:45:49.000Z</time>
      </trkpt>
      <trkpt lat="48.8945" lon="2.22386">
        <ele>59.400001525879</ele>
        <time>2016-03-14T20:45:53.000Z</time>
      </trkpt>
      <trkpt lat="48.89454" lon="2.22379">
        <ele>59.400001525879</ele>
        <time>2016-03-14T20:45:54.000Z</time>
      </trkpt>
      <trkpt lat="48.89467" lon="2.22356">
        <ele>59.599998474121</ele>
        <time>2016-03-14T20:45:58.000Z</time>
      </trkpt>
      <trkpt lat="48.89478" lon="2.22328">
        <ele>61.400001525879</ele>
        <time>2016-03-14T20:46:03.000Z</time>
      </trkpt>
      <trkpt lat="48.8948" lon="2.22323">
        <ele>61.400001525879</ele>
        <time>2016-03-14T20:46:04.000Z</time>
      </trkpt>
      <trkpt lat="48.89484" lon="2.22318">
        <ele>61.400001525879</ele>
        <time>2016-03-14T20:46:06.000Z</time>
      </trkpt>
      <trkpt lat="48.89503" lon="2.22318">
        <ele>62.200000762939</ele>
        <time>2016-03-14T20:46:29.000Z</time>
      </trkpt>
      <trkpt lat="48.89518" lon="2.22317">
        <ele>62.599998474121</ele>
        <time>2016-03-14T20:46:50.000Z</time>
      </trkpt>
      <trkpt lat="48.89524" lon="2.22309">
        <ele>62.200000762939</ele>
        <time>2016-03-14T20:47:18.000Z</time>
      </trkpt>
      <trkpt lat="48.89532" lon="2.22282">
        <ele>61</ele>
        <time>2016-03-14T20:47:29.000Z</time>
      </trkpt>
      <trkpt lat="48.89539" lon="2.22259">
        <ele>60</ele>
        <time>2016-03-14T20:47:39.000Z</time>
      </trkpt>
      <trkpt lat="48.89546" lon="2.22229">
        <ele>59.200000762939</ele>
        <time>2016-03-14T20:47:45.000Z</time>
      </trkpt>
      <trkpt lat="48.89556" lon="2.22203">
        <ele>58.200000762939</ele>
        <time>2016-03-14T20:47:50.000Z</time>
      </trkpt>
      <trkpt lat="48.89566" lon="2.22189">
        <ele>57.599998474121</ele>
        <time>2016-03-14T20:47:53.000Z</time>
      </trkpt>
      <trkpt lat="48.89574" lon="2.22165">
        <ele>57</ele>
        <time>2016-03-14T20:47:57.000Z</time>
      </trkpt>
      <trkpt lat="48.89582" lon="2.22139">
        <ele>57.200000762939</ele>
        <time>2016-03-14T20:48:01.000Z</time>
      </trkpt>
      <trkpt lat="48.89591" lon="2.22111">
        <ele>56.799999237061</ele>
        <time>2016-03-14T20:48:05.000Z</time>
      </trkpt>
      <trkpt lat="48.89603" lon="2.22083">
        <ele>56.200000762939</ele>
        <time>2016-03-14T20:48:09.000Z</time>
      </trkpt>
      <trkpt lat="48.89611" lon="2.22063">
        <ele>56.400001525879</ele>
        <time>2016-03-14T20:48:12.000Z</time>
      </trkpt>
      <trkpt lat="48.89622" lon="2.22034">
        <ele>56.799999237061</ele>
        <time>2016-03-14T20:48:16.000Z</time>
      </trkpt>
      <trkpt lat="48.89634" lon="2.22004">
        <ele>57</ele>
        <time>2016-03-14T20:48:20.000Z</time>
      </trkpt>
      <trkpt lat="48.89642" lon="2.21979">
        <ele>56.400001525879</ele>
        <time>2016-03-14T20:48:23.000Z</time>
      </trkpt>
      <trkpt lat="48.89646" lon="2.21973">
        <ele>56.200000762939</ele>
        <time>2016-03-14T20:48:24.000Z</time>
      </trkpt>
      <trkpt lat="48.89658" lon="2.21944">
        <ele>55.599998474121</ele>
        <time>2016-03-14T20:48:28.000Z</time>
      </trkpt>
      <trkpt lat="48.89667" lon="2.2192">
        <ele>55.200000762939</ele>
        <time>2016-03-14T20:48:31.000Z</time>
      </trkpt>
      <trkpt lat="48.89674" lon="2.21893">
        <ele>54.400001525879</ele>
        <time>2016-03-14T20:48:34.000Z</time>
      </trkpt>
      <trkpt lat="48.89678" lon="2.21878">
        <ele>54</ele>
        <time>2016-03-14T20:48:36.000Z</time>
      </trkpt>
      <trkpt lat="48.89686" lon="2.21853">
        <ele>53.400001525879</ele>
        <time>2016-03-14T20:48:40.000Z</time>
      </trkpt>
      <trkpt lat="48.89696" lon="2.21828">
        <ele>52.799999237061</ele>
        <time>2016-03-14T20:48:44.000Z</time>
      </trkpt>
      <trkpt lat="48.89688" lon="2.21805">
        <ele>52.400001525879</ele>
        <time>2016-03-14T20:48:48.000Z</time>
      </trkpt>
      <trkpt lat="48.89684" lon="2.21799">
        <ele>52.200000762939</ele>
        <time>2016-03-14T20:48:49.000Z</time>
      </trkpt>
      <trkpt lat="48.89671" lon="2.21773">
        <ele>51.599998474121</ele>
        <time>2016-03-14T20:48:53.000Z</time>
      </trkpt>
      <trkpt lat="48.89661" lon="2.21751">
        <ele>51.200000762939</ele>
        <time>2016-03-14T20:48:56.000Z</time>
      </trkpt>
      <trkpt lat="48.89648" lon="2.2173">
        <ele>49.799999237061</ele>
        <time>2016-03-14T20:48:59.000Z</time>
      </trkpt>
      <trkpt lat="48.89632" lon="2.21706">
        <ele>47.799999237061</ele>
        <time>2016-03-14T20:49:02.000Z</time>
      </trkpt>
      <trkpt lat="48.89624" lon="2.2169">
        <ele>46.400001525879</ele>
        <time>2016-03-14T20:49:04.000Z</time>
      </trkpt>
      <trkpt lat="48.89609" lon="2.21667">
        <ele>44.400001525879</ele>
        <time>2016-03-14T20:49:07.000Z</time>
      </trkpt>
      <trkpt lat="48.8959" lon="2.21644">
        <ele>44.599998474121</ele>
        <time>2016-03-14T20:49:10.000Z</time>
      </trkpt>
      <trkpt lat="48.89586" lon="2.21622">
        <ele>44.799999237061</ele>
        <time>2016-03-14T20:49:13.000Z</time>
      </trkpt>
      <trkpt lat="48.89585" lon="2.21609">
        <ele>44.799999237061</ele>
        <time>2016-03-14T20:49:16.000Z</time>
      </trkpt>
      <trkpt lat="48.89595" lon="2.21594">
        <ele>44.400001525879</ele>
        <time>2016-03-14T20:49:39.000Z</time>
      </trkpt>
      <trkpt lat="48.89598" lon="2.21568">
        <ele>44.200000762939</ele>
        <time>2016-03-14T20:49:43.000Z</time>
      </trkpt>
      <trkpt lat="48.89584" lon="2.21547">
        <ele>44.799999237061</ele>
        <time>2016-03-14T20:49:47.000Z</time>
      </trkpt>
      <trkpt lat="48.8958" lon="2.21542">
        <ele>44.799999237061</ele>
        <time>2016-03-14T20:49:48.000Z</time>
      </trkpt>
      <trkpt lat="48.89571" lon="2.21532">
        <ele>45.200000762939</ele>
        <time>2016-03-14T20:49:50.000Z</time>
      </trkpt>
      <trkpt lat="48.89559" lon="2.2151">
        <ele>45.599998474121</ele>
        <time>2016-03-14T20:49:53.000Z</time>
      </trkpt>
      <trkpt lat="48.89556" lon="2.21502">
        <ele>45.799999237061</ele>
        <time>2016-03-14T20:49:54.000Z</time>
      </trkpt>
      <trkpt lat="48.89548" lon="2.21488">
        <ele>46.400001525879</ele>
        <time>2016-03-14T20:49:56.000Z</time>
      </trkpt>
      <trkpt lat="48.89532" lon="2.21462">
        <ele>47.599998474121</ele>
        <time>2016-03-14T20:50:00.000Z</time>
      </trkpt>
      <trkpt lat="48.89516" lon="2.21435">
        <ele>48.599998474121</ele>
        <time>2016-03-14T20:50:04.000Z</time>
      </trkpt>
      <trkpt lat="48.89505" lon="2.21413">
        <ele>49</ele>
        <time>2016-03-14T20:50:07.000Z</time>
      </trkpt>
      <trkpt lat="48.89494" lon="2.21391">
        <ele>48.799999237061</ele>
        <time>2016-03-14T20:50:10.000Z</time>
      </trkpt>
      <trkpt lat="48.89482" lon="2.21368">
        <ele>48.400001525879</ele>
        <time>2016-03-14T20:50:13.000Z</time>
      </trkpt>
      <trkpt lat="48.89469" lon="2.21347">
        <ele>47.799999237061</ele>
        <time>2016-03-14T20:50:16.000Z</time>
      </trkpt>
      <trkpt lat="48.89457" lon="2.21324">
        <ele>47</ele>
        <time>2016-03-14T20:50:19.000Z</time>
      </trkpt>
      <trkpt lat="48.89444" lon="2.21301">
        <ele>46.400001525879</ele>
        <time>2016-03-14T20:50:22.000Z</time>
      </trkpt>
      <trkpt lat="48.89431" lon="2.21279">
        <ele>45.799999237061</ele>
        <time>2016-03-14T20:50:25.000Z</time>
      </trkpt>
      <trkpt lat="48.89417" lon="2.21258">
        <ele>45.400001525879</ele>
        <time>2016-03-14T20:50:28.000Z</time>
      </trkpt>
      <trkpt lat="48.89405" lon="2.21234">
        <ele>45</ele>
        <time>2016-03-14T20:50:31.000Z</time>
      </trkpt>
      <trkpt lat="48.89393" lon="2.21211">
        <ele>45</ele>
        <time>2016-03-14T20:50:34.000Z</time>
      </trkpt>
      <trkpt lat="48.89378" lon="2.2119">
        <ele>45</ele>
        <time>2016-03-14T20:50:37.000Z</time>
      </trkpt>
      <trkpt lat="48.89363" lon="2.21166">
        <ele>45</ele>
        <time>2016-03-14T20:50:40.000Z</time>
      </trkpt>
      <trkpt lat="48.89351" lon="2.21144">
        <ele>45</ele>
        <time>2016-03-14T20:50:43.000Z</time>
      </trkpt>
      <trkpt lat="48.89335" lon="2.21118">
        <ele>45</ele>
        <time>2016-03-14T20:50:47.000Z</time>
      </trkpt>
      <trkpt lat="48.89322" lon="2.21098">
        <ele>45</ele>
        <time>2016-03-14T20:50:50.000Z</time>
      </trkpt>
      <trkpt lat="48.89308" lon="2.21079">
        <ele>45</ele>
        <time>2016-03-14T20:50:53.000Z</time>
      </trkpt>
      <trkpt lat="48.89294" lon="2.21057">
        <ele>45.599998474121</ele>
        <time>2016-03-14T20:50:56.000Z</time>
      </trkpt>
      <trkpt lat="48.89281" lon="2.21033">
        <ele>46</ele>
        <time>2016-03-14T20:50:59.000Z</time>
      </trkpt>
      <trkpt lat="48.89268" lon="2.21007">
        <ele>46.799999237061</ele>
        <time>2016-03-14T20:51:02.000Z</time>
      </trkpt>
      <trkpt lat="48.89254" lon="2.2098">
        <ele>47.599998474121</ele>
        <time>2016-03-14T20:51:05.000Z</time>
      </trkpt>
      <trkpt lat="48.8924" lon="2.20953">
        <ele>48.599998474121</ele>
        <time>2016-03-14T20:51:08.000Z</time>
      </trkpt>
      <trkpt lat="48.89226" lon="2.20925">
        <ele>49.799999237061</ele>
        <time>2016-03-14T20:51:11.000Z</time>
      </trkpt>
      <trkpt lat="48.89211" lon="2.20897">
        <ele>51</ele>
        <time>2016-03-14T20:51:14.000Z</time>
      </trkpt>
      <trkpt lat="48.89197" lon="2.20868">
        <ele>52.200000762939</ele>
        <time>2016-03-14T20:51:17.000Z</time>
      </trkpt>
      <trkpt lat="48.89182" lon="2.20839">
        <ele>53</ele>
        <time>2016-03-14T20:51:20.000Z</time>
      </trkpt>
      <trkpt lat="48.89168" lon="2.20812">
        <ele>52.400001525879</ele>
        <time>2016-03-14T20:51:23.000Z</time>
      </trkpt>
      <trkpt lat="48.89154" lon="2.20785">
        <ele>51.400001525879</ele>
        <time>2016-03-14T20:51:26.000Z</time>
      </trkpt>
      <trkpt lat="48.8914" lon="2.20759">
        <ele>50.400001525879</ele>
        <time>2016-03-14T20:51:29.000Z</time>
      </trkpt>
      <trkpt lat="48.89125" lon="2.20737">
        <ele>49.400001525879</ele>
        <time>2016-03-14T20:51:32.000Z</time>
      </trkpt>
      <trkpt lat="48.89109" lon="2.20717">
        <ele>48.400001525879</ele>
        <time>2016-03-14T20:51:35.000Z</time>
      </trkpt>
      <trkpt lat="48.89096" lon="2.20696">
        <ele>49.200000762939</ele>
        <time>2016-03-14T20:51:38.000Z</time>
      </trkpt>
      <trkpt lat="48.89082" lon="2.20675">
        <ele>50.400001525879</ele>
        <time>2016-03-14T20:51:41.000Z</time>
      </trkpt>
      <trkpt lat="48.89068" lon="2.20653">
        <ele>50.799999237061</ele>
        <time>2016-03-14T20:51:44.000Z</time>
      </trkpt>
      <trkpt lat="48.89054" lon="2.20629">
        <ele>49.799999237061</ele>
        <time>2016-03-14T20:51:47.000Z</time>
      </trkpt>
      <trkpt lat="48.89039" lon="2.20603">
        <ele>48.799999237061</ele>
        <time>2016-03-14T20:51:50.000Z</time>
      </trkpt>
      <trkpt lat="48.89024" lon="2.20577">
        <ele>47.799999237061</ele>
        <time>2016-03-14T20:51:53.000Z</time>
      </trkpt>
      <trkpt lat="48.89009" lon="2.2055">
        <ele>46.799999237061</ele>
        <time>2016-03-14T20:51:56.000Z</time>
      </trkpt>
      <trkpt lat="48.88995" lon="2.20522">
        <ele>45.599998474121</ele>
        <time>2016-03-14T20:51:59.000Z</time>
      </trkpt>
      <trkpt lat="48.88982" lon="2.20494">
        <ele>44.400001525879</ele>
        <time>2016-03-14T20:52:02.000Z</time>
      </trkpt>
      <trkpt lat="48.88966" lon="2.20467">
        <ele>44.400001525879</ele>
        <time>2016-03-14T20:52:05.000Z</time>
      </trkpt>
      <trkpt lat="48.88954" lon="2.20441">
        <ele>44.200000762939</ele>
        <time>2016-03-14T20:52:08.000Z</time>
      </trkpt>
      <trkpt lat="48.88941" lon="2.20419">
        <ele>44.200000762939</ele>
        <time>2016-03-14T20:52:12.000Z</time>
      </trkpt>
      <trkpt lat="48.88936" lon="2.20411">
        <ele>44.200000762939</ele>
        <time>2016-03-14T20:52:15.000Z</time>
      </trkpt>
      <trkpt lat="48.8893" lon="2.20398">
        <ele>43.799999237061</ele>
        <time>2016-03-14T20:52:19.000Z</time>
      </trkpt>
      <trkpt lat="48.88925" lon="2.20386">
        <ele>43.400001525879</ele>
        <time>2016-03-14T20:52:22.000Z</time>
      </trkpt>
      <trkpt lat="48.8891" lon="2.2036">
        <ele>42.799999237061</ele>
        <time>2016-03-14T20:52:27.000Z</time>
      </trkpt>
      <trkpt lat="48.88906" lon="2.20355">
        <ele>42.799999237061</ele>
        <time>2016-03-14T20:52:28.000Z</time>
      </trkpt>
      <trkpt lat="48.8889" lon="2.20332">
        <ele>42.400001525879</ele>
        <time>2016-03-14T20:52:32.000Z</time>
      </trkpt>
      <trkpt lat="48.88875" lon="2.2031">
        <ele>42.200000762939</ele>
        <time>2016-03-14T20:52:35.000Z</time>
      </trkpt>
      <trkpt lat="48.88859" lon="2.20283">
        <ele>41.799999237061</ele>
        <time>2016-03-14T20:52:38.000Z</time>
      </trkpt>
      <trkpt lat="48.88843" lon="2.20255">
        <ele>42.200000762939</ele>
        <time>2016-03-14T20:52:41.000Z</time>
      </trkpt>
      <trkpt lat="48.88829" lon="2.20226">
        <ele>43.599998474121</ele>
        <time>2016-03-14T20:52:44.000Z</time>
      </trkpt>
      <trkpt lat="48.88814" lon="2.20197">
        <ele>45.599998474121</ele>
        <time>2016-03-14T20:52:47.000Z</time>
      </trkpt>
      <trkpt lat="48.88798" lon="2.20167">
        <ele>47.200000762939</ele>
        <time>2016-03-14T20:52:50.000Z</time>
      </trkpt>
      <trkpt lat="48.88782" lon="2.2014">
        <ele>47.400001525879</ele>
        <time>2016-03-14T20:52:53.000Z</time>
      </trkpt>
      <trkpt lat="48.88767" lon="2.2012">
        <ele>47</ele>
        <time>2016-03-14T20:52:56.000Z</time>
      </trkpt>
      <trkpt lat="48.8875" lon="2.20098">
        <ele>45.400001525879</ele>
        <time>2016-03-14T20:53:00.000Z</time>
      </trkpt>
      <trkpt lat="48.88736" lon="2.20072">
        <ele>43.599998474121</ele>
        <time>2016-03-14T20:53:04.000Z</time>
      </trkpt>
      <trkpt lat="48.88736" lon="2.20039">
        <ele>42.200000762939</ele>
        <time>2016-03-14T20:53:08.000Z</time>
      </trkpt>
      <trkpt lat="48.88737" lon="2.20024">
        <ele>41.400001525879</ele>
        <time>2016-03-14T20:53:11.000Z</time>
      </trkpt>
      <trkpt lat="48.88735" lon="2.20004">
        <ele>40.400001525879</ele>
        <time>2016-03-14T20:53:17.000Z</time>
      </trkpt>
      <trkpt lat="48.88737" lon="2.20005">
        <ele>40.400001525879</ele>
        <time>2016-03-14T20:53:21.000Z</time>
      </trkpt>
      <trkpt lat="48.88725" lon="2.19994">
        <ele>40</ele>
        <time>2016-03-14T20:53:52.000Z</time>
      </trkpt>
      <trkpt lat="48.88721" lon="2.1999">
        <ele>39.799999237061</ele>
        <time>2016-03-14T20:53:53.000Z</time>
      </trkpt>
      <trkpt lat="48.88703" lon="2.19986">
        <ele>39.599998474121</ele>
        <time>2016-03-14T20:53:57.000Z</time>
      </trkpt>
      <trkpt lat="48.88699" lon="2.19987">
        <ele>39.799999237061</ele>
        <time>2016-03-14T20:53:58.000Z</time>
      </trkpt>
      <trkpt lat="48.88693" lon="2.1999">
        <ele>39.799999237061</ele>
        <time>2016-03-14T20:54:01.000Z</time>
      </trkpt>
      <trkpt lat="48.88688" lon="2.20014">
        <ele>41</ele>
        <time>2016-03-14T20:54:21.000Z</time>
      </trkpt>
      <trkpt lat="48.88689" lon="2.20043">
        <ele>42.400001525879</ele>
        <time>2016-03-14T20:54:29.000Z</time>
      </trkpt>
      <trkpt lat="48.88691" lon="2.2007">
        <ele>43.599998474121</ele>
        <time>2016-03-14T20:54:39.000Z</time>
      </trkpt>
      <trkpt lat="48.88697" lon="2.20097">
        <ele>45</ele>
        <time>2016-03-14T20:54:47.000Z</time>
      </trkpt>
      <trkpt lat="48.887" lon="2.20126">
        <ele>46.599998474121</ele>
        <time>2016-03-14T20:54:52.000Z</time>
      </trkpt>
      <trkpt lat="48.887" lon="2.20158">
        <ele>48</ele>
        <time>2016-03-14T20:54:57.000Z</time>
      </trkpt>
      <trkpt lat="48.887" lon="2.20188">
        <ele>48.200000762939</ele>
        <time>2016-03-14T20:55:02.000Z</time>
      </trkpt>
      <trkpt lat="48.88697" lon="2.20219">
        <ele>49.200000762939</ele>
        <time>2016-03-14T20:55:07.000Z</time>
      </trkpt>
      <trkpt lat="48.88693" lon="2.20249">
        <ele>50</ele>
        <time>2016-03-14T20:55:11.000Z</time>
      </trkpt>
      <trkpt lat="48.88691" lon="2.20258">
        <ele>50</ele>
        <time>2016-03-14T20:55:12.000Z</time>
      </trkpt>
      <trkpt lat="48.8869" lon="2.20285">
        <ele>50</ele>
        <time>2016-03-14T20:55:15.000Z</time>
      </trkpt>
      <trkpt lat="48.88689" lon="2.20301">
        <ele>50</ele>
        <time>2016-03-14T20:55:17.000Z</time>
      </trkpt>
      <trkpt lat="48.88687" lon="2.20326">
        <ele>50</ele>
        <time>2016-03-14T20:55:20.000Z</time>
      </trkpt>
      <trkpt lat="48.88685" lon="2.20357">
        <ele>50.599998474121</ele>
        <time>2016-03-14T20:55:24.000Z</time>
      </trkpt>
      <trkpt lat="48.8868" lon="2.20387">
        <ele>51</ele>
        <time>2016-03-14T20:55:28.000Z</time>
      </trkpt>
      <trkpt lat="48.88676" lon="2.20416">
        <ele>51.400001525879</ele>
        <time>2016-03-14T20:55:32.000Z</time>
      </trkpt>
      <trkpt lat="48.88674" lon="2.20438">
        <ele>52.400001525879</ele>
        <time>2016-03-14T20:55:35.000Z</time>
      </trkpt>
      <trkpt lat="48.88671" lon="2.20465">
        <ele>53.400001525879</ele>
        <time>2016-03-14T20:55:39.000Z</time>
      </trkpt>
      <trkpt lat="48.88665" lon="2.20497">
        <ele>53.400001525879</ele>
        <time>2016-03-14T20:55:44.000Z</time>
      </trkpt>
      <trkpt lat="48.88663" lon="2.20515">
        <ele>53.599998474121</ele>
        <time>2016-03-14T20:55:47.000Z</time>
      </trkpt>
      <trkpt lat="48.88663" lon="2.20527">
        <ele>53.799999237061</ele>
        <time>2016-03-14T20:55:52.000Z</time>
      </trkpt>
      <trkpt lat="48.88663" lon="2.20527">
        <ele>53.799999237061</ele>
        <time>2016-03-14T20:55:53.000Z</time>
      </trkpt>
      <trkpt lat="48.88667" lon="2.20545">
        <ele>54</ele>
        <time>2016-03-14T20:56:40.000Z</time>
      </trkpt>
      <trkpt lat="48.88668" lon="2.20565">
        <ele>54.400001525879</ele>
        <time>2016-03-14T20:56:43.000Z</time>
      </trkpt>
      <trkpt lat="48.88664" lon="2.20594">
        <ele>54.599998474121</ele>
        <time>2016-03-14T20:56:48.000Z</time>
      </trkpt>
      <trkpt lat="48.88658" lon="2.20623">
        <ele>54.599998474121</ele>
        <time>2016-03-14T20:56:54.000Z</time>
      </trkpt>
      <trkpt lat="48.88655" lon="2.20654">
        <ele>55.200000762939</ele>
        <time>2016-03-14T20:56:59.000Z</time>
      </trkpt>
      <trkpt lat="48.88652" lon="2.20688">
        <ele>56.799999237061</ele>
        <time>2016-03-14T20:57:04.000Z</time>
      </trkpt>
      <trkpt lat="48.88648" lon="2.2072">
        <ele>57.599998474121</ele>
        <time>2016-03-14T20:57:09.000Z</time>
      </trkpt>
      <trkpt lat="48.88644" lon="2.20748">
        <ele>57.799999237061</ele>
        <time>2016-03-14T20:57:14.000Z</time>
      </trkpt>
      <trkpt lat="48.88642" lon="2.2078">
        <ele>57.799999237061</ele>
        <time>2016-03-14T20:57:19.000Z</time>
      </trkpt>
      <trkpt lat="48.8864" lon="2.20808">
        <ele>58.799999237061</ele>
        <time>2016-03-14T20:57:24.000Z</time>
      </trkpt>
      <trkpt lat="48.88637" lon="2.20836">
        <ele>59.599998474121</ele>
        <time>2016-03-14T20:57:29.000Z</time>
      </trkpt>
      <trkpt lat="48.88634" lon="2.20864">
        <ele>59.799999237061</ele>
        <time>2016-03-14T20:57:34.000Z</time>
      </trkpt>
      <trkpt lat="48.88632" lon="2.20893">
        <ele>60.200000762939</ele>
        <time>2016-03-14T20:57:39.000Z</time>
      </trkpt>
      <trkpt lat="48.88631" lon="2.2092">
        <ele>60.599998474121</ele>
        <time>2016-03-14T20:57:43.000Z</time>
      </trkpt>
      <trkpt lat="48.8863" lon="2.20953">
        <ele>61.200000762939</ele>
        <time>2016-03-14T20:57:49.000Z</time>
      </trkpt>
      <trkpt lat="48.88628" lon="2.20983">
        <ele>61.599998474121</ele>
        <time>2016-03-14T20:57:54.000Z</time>
      </trkpt>
      <trkpt lat="48.88627" lon="2.21014">
        <ele>62.200000762939</ele>
        <time>2016-03-14T20:57:59.000Z</time>
      </trkpt>
      <trkpt lat="48.88621" lon="2.21044">
        <ele>63.400001525879</ele>
        <time>2016-03-14T20:58:05.000Z</time>
      </trkpt>
      <trkpt lat="48.88619" lon="2.21074">
        <ele>64.599998474121</ele>
        <time>2016-03-14T20:58:10.000Z</time>
      </trkpt>
      <trkpt lat="48.88618" lon="2.21101">
        <ele>65.199996948242</ele>
        <time>2016-03-14T20:58:14.000Z</time>
      </trkpt>
      <trkpt lat="48.88615" lon="2.21134">
        <ele>66</ele>
        <time>2016-03-14T20:58:19.000Z</time>
      </trkpt>
      <trkpt lat="48.88614" lon="2.21161">
        <ele>66.800003051758</ele>
        <time>2016-03-14T20:58:23.000Z</time>
      </trkpt>
      <trkpt lat="48.88612" lon="2.21193">
        <ele>66.800003051758</ele>
        <time>2016-03-14T20:58:28.000Z</time>
      </trkpt>
      <trkpt lat="48.88608" lon="2.21224">
        <ele>67</ele>
        <time>2016-03-14T20:58:33.000Z</time>
      </trkpt>
      <trkpt lat="48.88607" lon="2.2124">
        <ele>67</ele>
        <time>2016-03-14T20:58:36.000Z</time>
      </trkpt>
      <trkpt lat="48.88606" lon="2.2125">
        <ele>67</ele>
        <time>2016-03-14T20:58:38.000Z</time>
      </trkpt>
      <trkpt lat="48.88604" lon="2.21267">
        <ele>67.400001525879</ele>
        <time>2016-03-14T20:58:41.000Z</time>
      </trkpt>
      <trkpt lat="48.88604" lon="2.21295">
        <ele>67.599998474121</ele>
        <time>2016-03-14T20:58:45.000Z</time>
      </trkpt>
      <trkpt lat="48.88599" lon="2.21328">
        <ele>68.400001525879</ele>
        <time>2016-03-14T20:58:50.000Z</time>
      </trkpt>
      <trkpt lat="48.88598" lon="2.21358">
        <ele>68.400001525879</ele>
        <time>2016-03-14T20:58:54.000Z</time>
      </trkpt>
      <trkpt lat="48.88599" lon="2.21371">
        <ele>68.400001525879</ele>
        <time>2016-03-14T20:58:56.000Z</time>
      </trkpt>
      <trkpt lat="48.88596" lon="2.21395">
        <ele>68.599998474121</ele>
        <time>2016-03-14T20:59:00.000Z</time>
      </trkpt>
      <trkpt lat="48.88596" lon="2.21427">
        <ele>68.599998474121</ele>
        <time>2016-03-14T20:59:05.000Z</time>
      </trkpt>
      <trkpt lat="48.88594" lon="2.21457">
        <ele>68.400001525879</ele>
        <time>2016-03-14T20:59:10.000Z</time>
      </trkpt>
      <trkpt lat="48.88591" lon="2.21485">
        <ele>68</ele>
        <time>2016-03-14T20:59:15.000Z</time>
      </trkpt>
      <trkpt lat="48.88588" lon="2.21516">
        <ele>68.199996948242</ele>
        <time>2016-03-14T20:59:20.000Z</time>
      </trkpt>
      <trkpt lat="48.88584" lon="2.21547">
        <ele>69</ele>
        <time>2016-03-14T20:59:25.000Z</time>
      </trkpt>
      <trkpt lat="48.88581" lon="2.21575">
        <ele>69</ele>
        <time>2016-03-14T20:59:29.000Z</time>
      </trkpt>
      <trkpt lat="48.88578" lon="2.21608">
        <ele>68.599998474121</ele>
        <time>2016-03-14T20:59:34.000Z</time>
      </trkpt>
      <trkpt lat="48.88577" lon="2.21636">
        <ele>68.599998474121</ele>
        <time>2016-03-14T20:59:38.000Z</time>
      </trkpt>
      <trkpt lat="48.88575" lon="2.21666">
        <ele>69.800003051758</ele>
        <time>2016-03-14T20:59:42.000Z</time>
      </trkpt>
      <trkpt lat="48.88573" lon="2.21693">
        <ele>70</ele>
        <time>2016-03-14T20:59:46.000Z</time>
      </trkpt>
      <trkpt lat="48.88572" lon="2.21706">
        <ele>70</ele>
        <time>2016-03-14T20:59:48.000Z</time>
      </trkpt>
      <trkpt lat="48.88571" lon="2.2172">
        <ele>70.199996948242</ele>
        <time>2016-03-14T20:59:50.000Z</time>
      </trkpt>
      <trkpt lat="48.88568" lon="2.21748">
        <ele>70.400001525879</ele>
        <time>2016-03-14T20:59:54.000Z</time>
      </trkpt>
      <trkpt lat="48.88565" lon="2.21767">
        <ele>71</ele>
        <time>2016-03-14T20:59:57.000Z</time>
      </trkpt>
      <trkpt lat="48.88562" lon="2.218">
        <ele>71.800003051758</ele>
        <time>2016-03-14T21:00:02.000Z</time>
      </trkpt>
      <trkpt lat="48.88559" lon="2.21825">
        <ele>72.199996948242</ele>
        <time>2016-03-14T21:00:06.000Z</time>
      </trkpt>
      <trkpt lat="48.88557" lon="2.2186">
        <ele>73.400001525879</ele>
        <time>2016-03-14T21:00:11.000Z</time>
      </trkpt>
      <trkpt lat="48.88558" lon="2.21872">
        <ele>73.599998474121</ele>
        <time>2016-03-14T21:00:12.000Z</time>
      </trkpt>
      <trkpt lat="48.88557" lon="2.219">
        <ele>74</ele>
        <time>2016-03-14T21:00:16.000Z</time>
      </trkpt>
      <trkpt lat="48.88555" lon="2.21912">
        <ele>74.199996948242</ele>
        <time>2016-03-14T21:00:18.000Z</time>
      </trkpt>
      <trkpt lat="48.88551" lon="2.2194">
        <ele>75</ele>
        <time>2016-03-14T21:00:23.000Z</time>
      </trkpt>
      <trkpt lat="48.88551" lon="2.21947">
        <ele>75</ele>
        <time>2016-03-14T21:00:24.000Z</time>
      </trkpt>
      <trkpt lat="48.88551" lon="2.21959">
        <ele>74.800003051758</ele>
        <time>2016-03-14T21:00:26.000Z</time>
      </trkpt>
      <trkpt lat="48.88551" lon="2.21974">
        <ele>74.599998474121</ele>
        <time>2016-03-14T21:00:28.000Z</time>
      </trkpt>
      <trkpt lat="48.88548" lon="2.22006">
        <ele>74.199996948242</ele>
        <time>2016-03-14T21:00:33.000Z</time>
      </trkpt>
      <trkpt lat="48.88546" lon="2.22012">
        <ele>74.199996948242</ele>
        <time>2016-03-14T21:00:34.000Z</time>
      </trkpt>
      <trkpt lat="48.88546" lon="2.22026">
        <ele>74.199996948242</ele>
        <time>2016-03-14T21:00:36.000Z</time>
      </trkpt>
      <trkpt lat="48.88542" lon="2.22058">
        <ele>73.599998474121</ele>
        <time>2016-03-14T21:00:41.000Z</time>
      </trkpt>
      <trkpt lat="48.88539" lon="2.22081">
        <ele>73.400001525879</ele>
        <time>2016-03-14T21:00:45.000Z</time>
      </trkpt>
      <trkpt lat="48.88537" lon="2.22107">
        <ele>73.599998474121</ele>
        <time>2016-03-14T21:00:49.000Z</time>
      </trkpt>
      <trkpt lat="48.88535" lon="2.22126">
        <ele>73.599998474121</ele>
        <time>2016-03-14T21:00:52.000Z</time>
      </trkpt>
      <trkpt lat="48.88533" lon="2.22147">
        <ele>73.400001525879</ele>
        <time>2016-03-14T21:00:55.000Z</time>
      </trkpt>
      <trkpt lat="48.88528" lon="2.22173">
        <ele>73.199996948242</ele>
        <time>2016-03-14T21:01:00.000Z</time>
      </trkpt>
      <trkpt lat="48.88527" lon="2.22179">
        <ele>73.199996948242</ele>
        <time>2016-03-14T21:01:01.000Z</time>
      </trkpt>
      <trkpt lat="48.88525" lon="2.22198">
        <ele>73.400001525879</ele>
        <time>2016-03-14T21:01:04.000Z</time>
      </trkpt>
      <trkpt lat="48.88525" lon="2.2221">
        <ele>73.599998474121</ele>
        <time>2016-03-14T21:01:06.000Z</time>
      </trkpt>
      <trkpt lat="48.88522" lon="2.22237">
        <ele>74</ele>
        <time>2016-03-14T21:01:10.000Z</time>
      </trkpt>
      <trkpt lat="48.88521" lon="2.22257">
        <ele>74.199996948242</ele>
        <time>2016-03-14T21:01:13.000Z</time>
      </trkpt>
      <trkpt lat="48.88517" lon="2.22287">
        <ele>74.800003051758</ele>
        <time>2016-03-14T21:01:18.000Z</time>
      </trkpt>
      <trkpt lat="48.88517" lon="2.22322">
        <ele>75.199996948242</ele>
        <time>2016-03-14T21:01:23.000Z</time>
      </trkpt>
      <trkpt lat="48.88519" lon="2.2234">
        <ele>75.199996948242</ele>
        <time>2016-03-14T21:01:26.000Z</time>
      </trkpt>
      <trkpt lat="48.88517" lon="2.22369">
        <ele>75.599998474121</ele>
        <time>2016-03-14T21:01:31.000Z</time>
      </trkpt>
      <trkpt lat="48.88524" lon="2.22399">
        <ele>75.800003051758</ele>
        <time>2016-03-14T21:01:35.000Z</time>
      </trkpt>
      <trkpt lat="48.88527" lon="2.22413">
        <ele>76</ele>
        <time>2016-03-14T21:01:37.000Z</time>
      </trkpt>
      <trkpt lat="48.88527" lon="2.22418">
        <ele>76</ele>
        <time>2016-03-14T21:01:38.000Z</time>
      </trkpt>
      <trkpt lat="48.88521" lon="2.22444">
        <ele>75.199996948242</ele>
        <time>2016-03-14T21:01:43.000Z</time>
      </trkpt>
      <trkpt lat="48.8852" lon="2.22456">
        <ele>75</ele>
        <time>2016-03-14T21:01:45.000Z</time>
      </trkpt>
      <trkpt lat="48.88516" lon="2.22482">
        <ele>74.400001525879</ele>
        <time>2016-03-14T21:01:50.000Z</time>
      </trkpt>
      <trkpt lat="48.88511" lon="2.22514">
        <ele>74</ele>
        <time>2016-03-14T21:01:55.000Z</time>
      </trkpt>
      <trkpt lat="48.88508" lon="2.22544">
        <ele>74</ele>
        <time>2016-03-14T21:01:59.000Z</time>
      </trkpt>
      <trkpt lat="48.88508" lon="2.22563">
        <ele>74</ele>
        <time>2016-03-14T21:02:01.000Z</time>
      </trkpt>
      <trkpt lat="48.88509" lon="2.22592">
        <ele>74.400001525879</ele>
        <time>2016-03-14T21:02:05.000Z</time>
      </trkpt>
      <trkpt lat="48.88508" lon="2.22624">
        <ele>74.800003051758</ele>
        <time>2016-03-14T21:02:10.000Z</time>
      </trkpt>
      <trkpt lat="48.88508" lon="2.22657">
        <ele>75.199996948242</ele>
        <time>2016-03-14T21:02:15.000Z</time>
      </trkpt>
      <trkpt lat="48.88506" lon="2.22678">
        <ele>74.400001525879</ele>
        <time>2016-03-14T21:02:18.000Z</time>
      </trkpt>
      <trkpt lat="48.88507" lon="2.2271">
        <ele>73</ele>
        <time>2016-03-14T21:02:23.000Z</time>
      </trkpt>
      <trkpt lat="48.88511" lon="2.22737">
        <ele>71.800003051758</ele>
        <time>2016-03-14T21:02:28.000Z</time>
      </trkpt>
      <trkpt lat="48.88519" lon="2.22765">
        <ele>71.199996948242</ele>
        <time>2016-03-14T21:02:33.000Z</time>
      </trkpt>
      <trkpt lat="48.88526" lon="2.22782">
        <ele>71</ele>
        <time>2016-03-14T21:02:38.000Z</time>
      </trkpt>
      <trkpt lat="48.88535" lon="2.228">
        <ele>71.199996948242</ele>
        <time>2016-03-14T21:03:07.000Z</time>
      </trkpt>
      <trkpt lat="48.88539" lon="2.2281">
        <ele>71.199996948242</ele>
        <time>2016-03-14T21:03:10.000Z</time>
      </trkpt>
      <trkpt lat="48.88543" lon="2.2282">
        <ele>71.199996948242</ele>
        <time>2016-03-14T21:03:13.000Z</time>
      </trkpt>
      <trkpt lat="48.88555" lon="2.22843">
        <ele>71.599998474121</ele>
        <time>2016-03-14T21:03:19.000Z</time>
      </trkpt>
      <trkpt lat="48.88561" lon="2.22859">
        <ele>71.800003051758</ele>
        <time>2016-03-14T21:03:22.000Z</time>
      </trkpt>
      <trkpt lat="48.8857" lon="2.22886">
        <ele>72.199996948242</ele>
        <time>2016-03-14T21:03:27.000Z</time>
      </trkpt>
      <trkpt lat="48.88581" lon="2.22911">
        <ele>72.599998474121</ele>
        <time>2016-03-14T21:03:31.000Z</time>
      </trkpt>
      <trkpt lat="48.88583" lon="2.22917">
        <ele>73</ele>
        <time>2016-03-14T21:03:32.000Z</time>
      </trkpt>
      <trkpt lat="48.88595" lon="2.22947">
        <ele>74.199996948242</ele>
        <time>2016-03-14T21:03:37.000Z</time>
      </trkpt>
      <trkpt lat="48.88607" lon="2.22974">
        <ele>75.199996948242</ele>
        <time>2016-03-14T21:03:41.000Z</time>
      </trkpt>
      <trkpt lat="48.88619" lon="2.23">
        <ele>76.199996948242</ele>
        <time>2016-03-14T21:03:44.000Z</time>
      </trkpt>
      <trkpt lat="48.88631" lon="2.23028">
        <ele>75.400001525879</ele>
        <time>2016-03-14T21:03:47.000Z</time>
      </trkpt>
      <trkpt lat="48.88644" lon="2.23057">
        <ele>75.199996948242</ele>
        <time>2016-03-14T21:03:50.000Z</time>
      </trkpt>
      <trkpt lat="48.88657" lon="2.23088">
        <ele>74.800003051758</ele>
        <time>2016-03-14T21:03:53.000Z</time>
      </trkpt>
      <trkpt lat="48.88668" lon="2.23116">
        <ele>74.599998474121</ele>
        <time>2016-03-14T21:03:56.000Z</time>
      </trkpt>
      <trkpt lat="48.88678" lon="2.23142">
        <ele>74.199996948242</ele>
        <time>2016-03-14T21:03:59.000Z</time>
      </trkpt>
      <trkpt lat="48.88689" lon="2.23167">
        <ele>74</ele>
        <time>2016-03-14T21:04:02.000Z</time>
      </trkpt>
      <trkpt lat="48.88703" lon="2.23196">
        <ele>72.800003051758</ele>
        <time>2016-03-14T21:04:06.000Z</time>
      </trkpt>
      <trkpt lat="48.88714" lon="2.23218">
        <ele>72</ele>
        <time>2016-03-14T21:04:10.000Z</time>
      </trkpt>
      <trkpt lat="48.88716" lon="2.23225">
        <ele>71.800003051758</ele>
        <time>2016-03-14T21:04:11.000Z</time>
      </trkpt>
      <trkpt lat="48.88727" lon="2.23254">
        <ele>71.199996948242</ele>
        <time>2016-03-14T21:04:15.000Z</time>
      </trkpt>
      <trkpt lat="48.88737" lon="2.23281">
        <ele>71.199996948242</ele>
        <time>2016-03-14T21:04:19.000Z</time>
      </trkpt>
      <trkpt lat="48.88739" lon="2.23287">
        <ele>71.400001525879</ele>
        <time>2016-03-14T21:04:20.000Z</time>
      </trkpt>
      <trkpt lat="48.88748" lon="2.23315">
        <ele>71.199996948242</ele>
        <time>2016-03-14T21:04:24.000Z</time>
      </trkpt>
      <trkpt lat="48.88758" lon="2.23342">
        <ele>71</ele>
        <time>2016-03-14T21:04:28.000Z</time>
      </trkpt>
      <trkpt lat="48.88769" lon="2.23372">
        <ele>71</ele>
        <time>2016-03-14T21:04:32.000Z</time>
      </trkpt>
      <trkpt lat="48.88778" lon="2.23396">
        <ele>71.199996948242</ele>
        <time>2016-03-14T21:04:36.000Z</time>
      </trkpt>
      <trkpt lat="48.88791" lon="2.23424">
        <ele>72.199996948242</ele>
        <time>2016-03-14T21:04:41.000Z</time>
      </trkpt>
      <trkpt lat="48.88794" lon="2.23429">
        <ele>72.400001525879</ele>
        <time>2016-03-14T21:04:42.000Z</time>
      </trkpt>
      <trkpt lat="48.88802" lon="2.23452">
        <ele>72.800003051758</ele>
        <time>2016-03-14T21:04:46.000Z</time>
      </trkpt>
      <trkpt lat="48.88806" lon="2.2348">
        <ele>72.400001525879</ele>
        <time>2016-03-14T21:04:51.000Z</time>
      </trkpt>
      <trkpt lat="48.88809" lon="2.23499">
        <ele>72.199996948242</ele>
        <time>2016-03-14T21:04:54.000Z</time>
      </trkpt>
      <trkpt lat="48.88813" lon="2.23511">
        <ele>71.800003051758</ele>
        <time>2016-03-14T21:04:56.000Z</time>
      </trkpt>
      <trkpt lat="48.88824" lon="2.23536">
        <ele>71</ele>
        <time>2016-03-14T21:05:00.000Z</time>
      </trkpt>
      <trkpt lat="48.88834" lon="2.2356">
        <ele>70.400001525879</ele>
        <time>2016-03-14T21:05:04.000Z</time>
      </trkpt>
      <trkpt lat="48.88844" lon="2.23585">
        <ele>70.400001525879</ele>
        <time>2016-03-14T21:05:08.000Z</time>
      </trkpt>
      <trkpt lat="48.88852" lon="2.23611">
        <ele>69</ele>
        <time>2016-03-14T21:05:13.000Z</time>
      </trkpt>
      <trkpt lat="48.88853" lon="2.23614">
        <ele>68.800003051758</ele>
        <time>2016-03-14T21:05:14.000Z</time>
      </trkpt>
      <trkpt lat="48.88855" lon="2.23622">
        <ele>68.400001525879</ele>
        <time>2016-03-14T21:05:16.000Z</time>
      </trkpt>
      <trkpt lat="48.88866" lon="2.23649">
        <ele>67.800003051758</ele>
        <time>2016-03-14T21:05:22.000Z</time>
      </trkpt>
      <trkpt lat="48.8887" lon="2.2366">
        <ele>67.599998474121</ele>
        <time>2016-03-14T21:05:25.000Z</time>
      </trkpt>
      <trkpt lat="48.88882" lon="2.23684">
        <ele>67.400001525879</ele>
        <time>2016-03-14T21:05:32.000Z</time>
      </trkpt>
      <trkpt lat="48.8889" lon="2.23704">
        <ele>67.599998474121</ele>
        <time>2016-03-14T21:05:42.000Z</time>
      </trkpt>
      <trkpt lat="48.88877" lon="2.23725">
        <ele>67</ele>
        <time>2016-03-14T21:06:03.000Z</time>
      </trkpt>
      <trkpt lat="48.88891" lon="2.23746">
        <ele>67.599998474121</ele>
        <time>2016-03-14T21:06:13.000Z</time>
      </trkpt>
      <trkpt lat="48.88906" lon="2.23767">
        <ele>67.400001525879</ele>
        <time>2016-03-14T21:06:18.000Z</time>
      </trkpt>
      <trkpt lat="48.88918" lon="2.23795">
        <ele>66.599998474121</ele>
        <time>2016-03-14T21:06:22.000Z</time>
      </trkpt>
      <trkpt lat="48.88929" lon="2.23819">
        <ele>66</ele>
        <time>2016-03-14T21:06:26.000Z</time>
      </trkpt>
      <trkpt lat="48.88942" lon="2.23839">
        <ele>66.599998474121</ele>
        <time>2016-03-14T21:06:32.000Z</time>
      </trkpt>
      <trkpt lat="48.88945" lon="2.23856">
        <ele>67.400001525879</ele>
        <time>2016-03-14T21:06:38.000Z</time>
      </trkpt>
      <trkpt lat="48.88955" lon="2.23872">
        <ele>68.599998474121</ele>
        <time>2016-03-14T21:06:50.000Z</time>
      </trkpt>
      <trkpt lat="48.8895" lon="2.23877">
        <ele>68.400001525879</ele>
        <time>2016-03-14T21:06:55.000Z</time>
      </trkpt>
      <trkpt lat="48.88931" lon="2.23884">
        <ele>68</ele>
        <time>2016-03-14T21:07:02.000Z</time>
      </trkpt>
      <trkpt lat="48.8894" lon="2.24227">
        <ele>63.400001525879</ele>
        <time>2016-03-14T21:07:44.000Z</time>
      </trkpt>
      <trkpt lat="48.88931" lon="2.24249">
        <ele>62.400001525879</ele>
        <time>2016-03-14T21:07:45.000Z</time>
      </trkpt>
      <trkpt lat="48.88948" lon="2.24267">
        <ele>60.599998474121</ele>
        <time>2016-03-14T21:07:52.000Z</time>
      </trkpt>
      <trkpt lat="48.88921" lon="2.25104">
        <ele>43.799999237061</ele>
        <time>2016-03-14T21:10:31.000Z</time>
      </trkpt>
      <trkpt lat="48.88926" lon="2.25106">
        <ele>43.599998474121</ele>
        <time>2016-03-14T21:10:36.000Z</time>
      </trkpt>
      <trkpt lat="48.88911" lon="2.25071">
        <ele>44.799999237061</ele>
        <time>2016-03-14T21:10:40.000Z</time>
      </trkpt>
      <trkpt lat="48.88902" lon="2.25045">
        <ele>45.599998474121</ele>
        <time>2016-03-14T21:10:42.000Z</time>
      </trkpt>
      <trkpt lat="48.88898" lon="2.25039">
        <ele>46</ele>
        <time>2016-03-14T21:10:43.000Z</time>
      </trkpt>
      <trkpt lat="48.88883" lon="2.25009">
        <ele>48.400001525879</ele>
        <time>2016-03-14T21:10:47.000Z</time>
      </trkpt>
      <trkpt lat="48.88872" lon="2.24997">
        <ele>49.200000762939</ele>
        <time>2016-03-14T21:10:50.000Z</time>
      </trkpt>
      <trkpt lat="48.88866" lon="2.25011">
        <ele>48.200000762939</ele>
        <time>2016-03-14T21:10:55.000Z</time>
      </trkpt>
      <trkpt lat="48.88851" lon="2.25032">
        <ele>47.799999237061</ele>
        <time>2016-03-14T21:11:02.000Z</time>
      </trkpt>
      <trkpt lat="48.88845" lon="2.25037">
        <ele>46.799999237061</ele>
        <time>2016-03-14T21:11:04.000Z</time>
      </trkpt>
      <trkpt lat="48.88839" lon="2.25044">
        <ele>45.799999237061</ele>
        <time>2016-03-14T21:11:07.000Z</time>
      </trkpt>
      <trkpt lat="48.88831" lon="2.25052">
        <ele>44.599998474121</ele>
        <time>2016-03-14T21:11:11.000Z</time>
      </trkpt>
      <trkpt lat="48.8883" lon="2.2507">
        <ele>45</ele>
        <time>2016-03-14T21:11:15.000Z</time>
      </trkpt>
      <trkpt lat="48.8883" lon="2.25085">
        <ele>45.400001525879</ele>
        <time>2016-03-14T21:11:21.000Z</time>
      </trkpt>
      <trkpt lat="48.88838" lon="2.25104">
        <ele>46.200000762939</ele>
        <time>2016-03-14T21:11:27.000Z</time>
      </trkpt>
      <trkpt lat="48.88832" lon="2.25136">
        <ele>45.599998474121</ele>
        <time>2016-03-14T21:11:33.000Z</time>
      </trkpt>
      <trkpt lat="48.88825" lon="2.25165">
        <ele>44.400001525879</ele>
        <time>2016-03-14T21:11:38.000Z</time>
      </trkpt>
      <trkpt lat="48.88814" lon="2.25187">
        <ele>41.599998474121</ele>
        <time>2016-03-14T21:11:40.000Z</time>
      </trkpt>
      <trkpt lat="48.88802" lon="2.2521">
        <ele>39.799999237061</ele>
        <time>2016-03-14T21:11:43.000Z</time>
      </trkpt>
      <trkpt lat="48.88793" lon="2.25238">
        <ele>39</ele>
        <time>2016-03-14T21:11:48.000Z</time>
      </trkpt>
      <trkpt lat="48.88784" lon="2.25266">
        <ele>38.599998474121</ele>
        <time>2016-03-14T21:11:53.000Z</time>
      </trkpt>
      <trkpt lat="48.88782" lon="2.25271">
        <ele>38.200000762939</ele>
        <time>2016-03-14T21:11:54.000Z</time>
      </trkpt>
      <trkpt lat="48.88777" lon="2.25295">
        <ele>36.200000762939</ele>
        <time>2016-03-14T21:11:58.000Z</time>
      </trkpt>
      <trkpt lat="48.88777" lon="2.25304">
        <ele>35.799999237061</ele>
        <time>2016-03-14T21:12:00.000Z</time>
      </trkpt>
      <trkpt lat="48.88762" lon="2.2532">
        <ele>33.799999237061</ele>
        <time>2016-03-14T21:12:07.000Z</time>
      </trkpt>
      <trkpt lat="48.88755" lon="2.25316">
        <ele>33.799999237061</ele>
        <time>2016-03-14T21:12:10.000Z</time>
      </trkpt>
      <trkpt lat="48.88741" lon="2.25304">
        <ele>33.599998474121</ele>
        <time>2016-03-14T21:12:17.000Z</time>
      </trkpt>
      <trkpt lat="48.8874" lon="2.25303">
        <ele>33.599998474121</ele>
        <time>2016-03-14T21:13:02.000Z</time>
      </trkpt>
      <trkpt lat="48.88731" lon="2.25329">
        <ele>33.400001525879</ele>
        <time>2016-03-14T21:13:12.000Z</time>
      </trkpt>
      <trkpt lat="48.88723" lon="2.25357">
        <ele>33</ele>
        <time>2016-03-14T21:13:19.000Z</time>
      </trkpt>
      <trkpt lat="48.88715" lon="2.25384">
        <ele>33</ele>
        <time>2016-03-14T21:13:25.000Z</time>
      </trkpt>
      <trkpt lat="48.88706" lon="2.25411">
        <ele>33</ele>
        <time>2016-03-14T21:13:31.000Z</time>
      </trkpt>
      <trkpt lat="48.88695" lon="2.25439">
        <ele>31</ele>
        <time>2016-03-14T21:13:37.000Z</time>
      </trkpt>
      <trkpt lat="48.88687" lon="2.25465">
        <ele>28</ele>
        <time>2016-03-14T21:13:43.000Z</time>
      </trkpt>
      <trkpt lat="48.88678" lon="2.2549">
        <ele>26</ele>
        <time>2016-03-14T21:13:48.000Z</time>
      </trkpt>
      <trkpt lat="48.88669" lon="2.25515">
        <ele>27.39999961853</ele>
        <time>2016-03-14T21:13:54.000Z</time>
      </trkpt>
      <trkpt lat="48.88661" lon="2.2554">
        <ele>29.39999961853</ele>
        <time>2016-03-14T21:14:00.000Z</time>
      </trkpt>
      <trkpt lat="48.88653" lon="2.25565">
        <ele>31.60000038147</ele>
        <time>2016-03-14T21:14:06.000Z</time>
      </trkpt>
      <trkpt lat="48.88646" lon="2.25592">
        <ele>34</ele>
        <time>2016-03-14T21:14:12.000Z</time>
      </trkpt>
      <trkpt lat="48.88637" lon="2.25617">
        <ele>36.400001525879</ele>
        <time>2016-03-14T21:14:20.000Z</time>
      </trkpt>
      <trkpt lat="48.88635" lon="2.25649">
        <ele>38.400001525879</ele>
        <time>2016-03-14T21:14:27.000Z</time>
      </trkpt>
      <trkpt lat="48.88627" lon="2.25673">
        <ele>40</ele>
        <time>2016-03-14T21:14:32.000Z</time>
      </trkpt>
      <trkpt lat="48.88618" lon="2.25698">
        <ele>40.599998474121</ele>
        <time>2016-03-14T21:14:37.000Z</time>
      </trkpt>
      <trkpt lat="48.88608" lon="2.25726">
        <ele>41</ele>
        <time>2016-03-14T21:14:42.000Z</time>
      </trkpt>
      <trkpt lat="48.88597" lon="2.25749">
        <ele>41.200000762939</ele>
        <time>2016-03-14T21:14:47.000Z</time>
      </trkpt>
      <trkpt lat="48.88582" lon="2.25771">
        <ele>41</ele>
        <time>2016-03-14T21:14:53.000Z</time>
      </trkpt>
      <trkpt lat="48.88567" lon="2.2579">
        <ele>40.799999237061</ele>
        <time>2016-03-14T21:14:59.000Z</time>
      </trkpt>
      <trkpt lat="48.88558" lon="2.25803">
        <ele>39.599998474121</ele>
        <time>2016-03-14T21:15:05.000Z</time>
      </trkpt>
      <trkpt lat="48.8855" lon="2.25809">
        <ele>39</ele>
        <time>2016-03-14T21:15:09.000Z</time>
      </trkpt>
      <trkpt lat="48.88543" lon="2.2581">
        <ele>38.799999237061</ele>
        <time>2016-03-14T21:15:15.000Z</time>
      </trkpt>
      <trkpt lat="48.88538" lon="2.25817">
        <ele>38.200000762939</ele>
        <time>2016-03-14T21:15:23.000Z</time>
      </trkpt>
      <trkpt lat="48.88538" lon="2.25823">
        <ele>37.799999237061</ele>
        <time>2016-03-14T21:15:24.000Z</time>
      </trkpt>
      <trkpt lat="48.88532" lon="2.25852">
        <ele>37.400001525879</ele>
        <time>2016-03-14T21:15:29.000Z</time>
      </trkpt>
      <trkpt lat="48.88523" lon="2.25876">
        <ele>37.599998474121</ele>
        <time>2016-03-14T21:15:32.000Z</time>
      </trkpt>
      <trkpt lat="48.88511" lon="2.25906">
        <ele>38.400001525879</ele>
        <time>2016-03-14T21:15:36.000Z</time>
      </trkpt>
      <trkpt lat="48.88501" lon="2.25933">
        <ele>40.400001525879</ele>
        <time>2016-03-14T21:15:40.000Z</time>
      </trkpt>
      <trkpt lat="48.88492" lon="2.25961">
        <ele>43</ele>
        <time>2016-03-14T21:15:44.000Z</time>
      </trkpt>
      <trkpt lat="48.88481" lon="2.2599">
        <ele>44.200000762939</ele>
        <time>2016-03-14T21:15:48.000Z</time>
      </trkpt>
      <trkpt lat="48.88474" lon="2.26019">
        <ele>44.400001525879</ele>
        <time>2016-03-14T21:15:52.000Z</time>
      </trkpt>
      <trkpt lat="48.88463" lon="2.26046">
        <ele>43.799999237061</ele>
        <time>2016-03-14T21:15:56.000Z</time>
      </trkpt>
      <trkpt lat="48.88448" lon="2.26069">
        <ele>43.200000762939</ele>
        <time>2016-03-14T21:16:00.000Z</time>
      </trkpt>
      <trkpt lat="48.88441" lon="2.26089">
        <ele>42.799999237061</ele>
        <time>2016-03-14T21:16:03.000Z</time>
      </trkpt>
      <trkpt lat="48.88432" lon="2.26116">
        <ele>42.400001525879</ele>
        <time>2016-03-14T21:16:07.000Z</time>
      </trkpt>
      <trkpt lat="48.88418" lon="2.26144">
        <ele>42</ele>
        <time>2016-03-14T21:16:11.000Z</time>
      </trkpt>
      <trkpt lat="48.88416" lon="2.26153">
        <ele>42</ele>
        <time>2016-03-14T21:16:12.000Z</time>
      </trkpt>
      <trkpt lat="48.88407" lon="2.26186">
        <ele>42.799999237061</ele>
        <time>2016-03-14T21:16:16.000Z</time>
      </trkpt>
      <trkpt lat="48.88398" lon="2.26211">
        <ele>43.400001525879</ele>
        <time>2016-03-14T21:16:19.000Z</time>
      </trkpt>
      <trkpt lat="48.8839" lon="2.26236">
        <ele>42.599998474121</ele>
        <time>2016-03-14T21:16:22.000Z</time>
      </trkpt>
      <trkpt lat="48.8838" lon="2.26261">
        <ele>42</ele>
        <time>2016-03-14T21:16:25.000Z</time>
      </trkpt>
      <trkpt lat="48.8837" lon="2.26289">
        <ele>41.799999237061</ele>
        <time>2016-03-14T21:16:28.000Z</time>
      </trkpt>
      <trkpt lat="48.88363" lon="2.26319">
        <ele>42</ele>
        <time>2016-03-14T21:16:31.000Z</time>
      </trkpt>
      <trkpt lat="48.88355" lon="2.26347">
        <ele>42.799999237061</ele>
        <time>2016-03-14T21:16:34.000Z</time>
      </trkpt>
      <trkpt lat="48.88348" lon="2.26364">
        <ele>43.599998474121</ele>
        <time>2016-03-14T21:16:36.000Z</time>
      </trkpt>
      <trkpt lat="48.8834" lon="2.26389">
        <ele>44.599998474121</ele>
        <time>2016-03-14T21:16:39.000Z</time>
      </trkpt>
      <trkpt lat="48.88329" lon="2.26419">
        <ele>45.599998474121</ele>
        <time>2016-03-14T21:16:43.000Z</time>
      </trkpt>
      <trkpt lat="48.88314" lon="2.26439">
        <ele>45.400001525879</ele>
        <time>2016-03-14T21:16:47.000Z</time>
      </trkpt>
      <trkpt lat="48.88311" lon="2.26445">
        <ele>45.400001525879</ele>
        <time>2016-03-14T21:16:48.000Z</time>
      </trkpt>
      <trkpt lat="48.88305" lon="2.26474">
        <ele>44.200000762939</ele>
        <time>2016-03-14T21:16:53.000Z</time>
      </trkpt>
      <trkpt lat="48.88293" lon="2.26496">
        <ele>43</ele>
        <time>2016-03-14T21:16:57.000Z</time>
      </trkpt>
      <trkpt lat="48.88291" lon="2.26502">
        <ele>42.799999237061</ele>
        <time>2016-03-14T21:16:58.000Z</time>
      </trkpt>
      <trkpt lat="48.88282" lon="2.26523">
        <ele>42</ele>
        <time>2016-03-14T21:17:01.000Z</time>
      </trkpt>
      <trkpt lat="48.8827" lon="2.26555">
        <ele>40.599998474121</ele>
        <time>2016-03-14T21:17:05.000Z</time>
      </trkpt>
      <trkpt lat="48.88262" lon="2.26583">
        <ele>39.599998474121</ele>
        <time>2016-03-14T21:17:08.000Z</time>
      </trkpt>
      <trkpt lat="48.88254" lon="2.26611">
        <ele>39.200000762939</ele>
        <time>2016-03-14T21:17:11.000Z</time>
      </trkpt>
      <trkpt lat="48.88247" lon="2.26639">
        <ele>38.599998474121</ele>
        <time>2016-03-14T21:17:14.000Z</time>
      </trkpt>
      <trkpt lat="48.8824" lon="2.26667">
        <ele>38.599998474121</ele>
        <time>2016-03-14T21:17:17.000Z</time>
      </trkpt>
      <trkpt lat="48.88231" lon="2.26693">
        <ele>38.799999237061</ele>
        <time>2016-03-14T21:17:20.000Z</time>
      </trkpt>
      <trkpt lat="48.88224" lon="2.26719">
        <ele>39.599998474121</ele>
        <time>2016-03-14T21:17:23.000Z</time>
      </trkpt>
      <trkpt lat="48.88217" lon="2.26746">
        <ele>40.599998474121</ele>
        <time>2016-03-14T21:17:26.000Z</time>
      </trkpt>
      <trkpt lat="48.88211" lon="2.26776">
        <ele>41</ele>
        <time>2016-03-14T21:17:29.000Z</time>
      </trkpt>
      <trkpt lat="48.88202" lon="2.26801">
        <ele>39.200000762939</ele>
        <time>2016-03-14T21:17:32.000Z</time>
      </trkpt>
      <trkpt lat="48.88195" lon="2.26826">
        <ele>37.599998474121</ele>
        <time>2016-03-14T21:17:35.000Z</time>
      </trkpt>
      <trkpt lat="48.88185" lon="2.26857">
        <ele>38.599998474121</ele>
        <time>2016-03-14T21:17:39.000Z</time>
      </trkpt>
      <trkpt lat="48.88181" lon="2.26862">
        <ele>39.200000762939</ele>
        <time>2016-03-14T21:17:40.000Z</time>
      </trkpt>
      <trkpt lat="48.88171" lon="2.26886">
        <ele>41</ele>
        <time>2016-03-14T21:17:43.000Z</time>
      </trkpt>
      <trkpt lat="48.88162" lon="2.26912">
        <ele>43.200000762939</ele>
        <time>2016-03-14T21:17:46.000Z</time>
      </trkpt>
      <trkpt lat="48.88158" lon="2.2692">
        <ele>44</ele>
        <time>2016-03-14T21:17:47.000Z</time>
      </trkpt>
      <trkpt lat="48.88149" lon="2.26945">
        <ele>46</ele>
        <time>2016-03-14T21:17:50.000Z</time>
      </trkpt>
      <trkpt lat="48.88139" lon="2.2697">
        <ele>47.400001525879</ele>
        <time>2016-03-14T21:17:53.000Z</time>
      </trkpt>
      <trkpt lat="48.88128" lon="2.26994">
        <ele>48.599998474121</ele>
        <time>2016-03-14T21:17:56.000Z</time>
      </trkpt>
      <trkpt lat="48.88118" lon="2.27019">
        <ele>49.200000762939</ele>
        <time>2016-03-14T21:17:59.000Z</time>
      </trkpt>
      <trkpt lat="48.88109" lon="2.27044">
        <ele>49.200000762939</ele>
        <time>2016-03-14T21:18:02.000Z</time>
      </trkpt>
      <trkpt lat="48.88103" lon="2.27073">
        <ele>49</ele>
        <time>2016-03-14T21:18:05.000Z</time>
      </trkpt>
      <trkpt lat="48.88098" lon="2.27101">
        <ele>47.599998474121</ele>
        <time>2016-03-14T21:18:08.000Z</time>
      </trkpt>
      <trkpt lat="48.88089" lon="2.27134">
        <ele>45.799999237061</ele>
        <time>2016-03-14T21:18:12.000Z</time>
      </trkpt>
      <trkpt lat="48.88081" lon="2.27167">
        <ele>45.599998474121</ele>
        <time>2016-03-14T21:18:16.000Z</time>
      </trkpt>
      <trkpt lat="48.88067" lon="2.27188">
        <ele>45.599998474121</ele>
        <time>2016-03-14T21:18:19.000Z</time>
      </trkpt>
      <trkpt lat="48.88057" lon="2.27211">
        <ele>45.599998474121</ele>
        <time>2016-03-14T21:18:22.000Z</time>
      </trkpt>
      <trkpt lat="48.8805" lon="2.27239">
        <ele>45.400001525879</ele>
        <time>2016-03-14T21:18:25.000Z</time>
      </trkpt>
      <trkpt lat="48.88041" lon="2.27267">
        <ele>45.799999237061</ele>
        <time>2016-03-14T21:18:28.000Z</time>
      </trkpt>
      <trkpt lat="48.88035" lon="2.27293">
        <ele>45</ele>
        <time>2016-03-14T21:18:31.000Z</time>
      </trkpt>
      <trkpt lat="48.88027" lon="2.27321">
        <ele>44.200000762939</ele>
        <time>2016-03-14T21:18:34.000Z</time>
      </trkpt>
      <trkpt lat="48.8802" lon="2.27349">
        <ele>43.799999237061</ele>
        <time>2016-03-14T21:18:37.000Z</time>
      </trkpt>
      <trkpt lat="48.88013" lon="2.27376">
        <ele>43.400001525879</ele>
        <time>2016-03-14T21:18:40.000Z</time>
      </trkpt>
      <trkpt lat="48.88004" lon="2.27402">
        <ele>43.200000762939</ele>
        <time>2016-03-14T21:18:43.000Z</time>
      </trkpt>
      <trkpt lat="48.87997" lon="2.27427">
        <ele>43.400001525879</ele>
        <time>2016-03-14T21:18:46.000Z</time>
      </trkpt>
      <trkpt lat="48.8799" lon="2.27456">
        <ele>44</ele>
        <time>2016-03-14T21:18:49.000Z</time>
      </trkpt>
      <trkpt lat="48.87981" lon="2.27483">
        <ele>44.400001525879</ele>
        <time>2016-03-14T21:18:52.000Z</time>
      </trkpt>
      <trkpt lat="48.87975" lon="2.27512">
        <ele>44.400001525879</ele>
        <time>2016-03-14T21:18:55.000Z</time>
      </trkpt>
      <trkpt lat="48.87966" lon="2.27537">
        <ele>44.799999237061</ele>
        <time>2016-03-14T21:18:58.000Z</time>
      </trkpt>
      <trkpt lat="48.87957" lon="2.27562">
        <ele>45.799999237061</ele>
        <time>2016-03-14T21:19:01.000Z</time>
      </trkpt>
      <trkpt lat="48.87947" lon="2.2759">
        <ele>46.799999237061</ele>
        <time>2016-03-14T21:19:04.000Z</time>
      </trkpt>
      <trkpt lat="48.87937" lon="2.27617">
        <ele>46</ele>
        <time>2016-03-14T21:19:07.000Z</time>
      </trkpt>
      <trkpt lat="48.87928" lon="2.27646">
        <ele>45.400001525879</ele>
        <time>2016-03-14T21:19:10.000Z</time>
      </trkpt>
      <trkpt lat="48.87919" lon="2.27675">
        <ele>44.799999237061</ele>
        <time>2016-03-14T21:19:13.000Z</time>
      </trkpt>
      <trkpt lat="48.8791" lon="2.27701">
        <ele>44.599998474121</ele>
        <time>2016-03-14T21:19:16.000Z</time>
      </trkpt>
      <trkpt lat="48.879" lon="2.27729">
        <ele>44.799999237061</ele>
        <time>2016-03-14T21:19:19.000Z</time>
      </trkpt>
      <trkpt lat="48.87892" lon="2.27756">
        <ele>45.400001525879</ele>
        <time>2016-03-14T21:19:22.000Z</time>
      </trkpt>
      <trkpt lat="48.87884" lon="2.27783">
        <ele>46.200000762939</ele>
        <time>2016-03-14T21:19:25.000Z</time>
      </trkpt>
      <trkpt lat="48.87879" lon="2.27811">
        <ele>47</ele>
        <time>2016-03-14T21:19:28.000Z</time>
      </trkpt>
      <trkpt lat="48.87871" lon="2.27837">
        <ele>47.799999237061</ele>
        <time>2016-03-14T21:19:31.000Z</time>
      </trkpt>
      <trkpt lat="48.87863" lon="2.27862">
        <ele>48</ele>
        <time>2016-03-14T21:19:34.000Z</time>
      </trkpt>
      <trkpt lat="48.87854" lon="2.27894">
        <ele>48</ele>
        <time>2016-03-14T21:19:38.000Z</time>
      </trkpt>
      <trkpt lat="48.87846" lon="2.27922">
        <ele>47</ele>
        <time>2016-03-14T21:19:42.000Z</time>
      </trkpt>
      <trkpt lat="48.87842" lon="2.27934">
        <ele>46</ele>
        <time>2016-03-14T21:19:44.000Z</time>
      </trkpt>
      <trkpt lat="48.87845" lon="2.27956">
        <ele>44.799999237061</ele>
        <time>2016-03-14T21:19:48.000Z</time>
      </trkpt>
      <trkpt lat="48.87838" lon="2.27961">
        <ele>44.200000762939</ele>
        <time>2016-03-14T21:19:51.000Z</time>
      </trkpt>
      <trkpt lat="48.87837" lon="2.27963">
        <ele>44</ele>
        <time>2016-03-14T21:19:54.000Z</time>
      </trkpt>
      <trkpt lat="48.87842" lon="2.27956">
        <ele>44.799999237061</ele>
        <time>2016-03-14T21:21:32.000Z</time>
      </trkpt>
      <trkpt lat="48.87835" lon="2.27983">
        <ele>42.599998474121</ele>
        <time>2016-03-14T21:21:57.000Z</time>
      </trkpt>
      <trkpt lat="48.8783" lon="2.2801">
        <ele>40.400001525879</ele>
        <time>2016-03-14T21:22:04.000Z</time>
      </trkpt>
      <trkpt lat="48.87823" lon="2.28039">
        <ele>38</ele>
        <time>2016-03-14T21:22:11.000Z</time>
      </trkpt>
      <trkpt lat="48.87813" lon="2.28063">
        <ele>37.599998474121</ele>
        <time>2016-03-14T21:22:17.000Z</time>
      </trkpt>
      <trkpt lat="48.87799" lon="2.28084">
        <ele>37.599998474121</ele>
        <time>2016-03-14T21:22:25.000Z</time>
      </trkpt>
      <trkpt lat="48.87779" lon="2.28094">
        <ele>37.599998474121</ele>
        <time>2016-03-14T21:22:33.000Z</time>
      </trkpt>
      <trkpt lat="48.87761" lon="2.28102">
        <ele>38</ele>
        <time>2016-03-14T21:22:38.000Z</time>
      </trkpt>
      <trkpt lat="48.87744" lon="2.28117">
        <ele>38.200000762939</ele>
        <time>2016-03-14T21:22:43.000Z</time>
      </trkpt>
      <trkpt lat="48.87729" lon="2.28133">
        <ele>39</ele>
        <time>2016-03-14T21:22:47.000Z</time>
      </trkpt>
      <trkpt lat="48.87716" lon="2.28156">
        <ele>40.200000762939</ele>
        <time>2016-03-14T21:22:51.000Z</time>
      </trkpt>
      <trkpt lat="48.87706" lon="2.28183">
        <ele>41</ele>
        <time>2016-03-14T21:22:55.000Z</time>
      </trkpt>
      <trkpt lat="48.87698" lon="2.28209">
        <ele>40.599998474121</ele>
        <time>2016-03-14T21:22:59.000Z</time>
      </trkpt>
      <trkpt lat="48.87696" lon="2.28229">
        <ele>40.200000762939</ele>
        <time>2016-03-14T21:23:02.000Z</time>
      </trkpt>
      <trkpt lat="48.87696" lon="2.28262">
        <ele>40.799999237061</ele>
        <time>2016-03-14T21:23:07.000Z</time>
      </trkpt>
      <trkpt lat="48.87696" lon="2.28289">
        <ele>43.200000762939</ele>
        <time>2016-03-14T21:23:11.000Z</time>
      </trkpt>
      <trkpt lat="48.877" lon="2.28319">
        <ele>45.599998474121</ele>
        <time>2016-03-14T21:23:16.000Z</time>
      </trkpt>
      <trkpt lat="48.87702" lon="2.28342">
        <ele>47.599998474121</ele>
        <time>2016-03-14T21:23:20.000Z</time>
      </trkpt>
      <trkpt lat="48.87698" lon="2.28354">
        <ele>47.799999237061</ele>
        <time>2016-03-14T21:23:26.000Z</time>
      </trkpt>
      <trkpt lat="48.87698" lon="2.28357">
        <ele>48</ele>
        <time>2016-03-14T21:23:36.000Z</time>
      </trkpt>
      <trkpt lat="48.87701" lon="2.28382">
        <ele>48</ele>
        <time>2016-03-14T21:23:49.000Z</time>
      </trkpt>
      <trkpt lat="48.87697" lon="2.28415">
        <ele>48.799999237061</ele>
        <time>2016-03-14T21:23:55.000Z</time>
      </trkpt>
      <trkpt lat="48.87698" lon="2.28422">
        <ele>49</ele>
        <time>2016-03-14T21:23:56.000Z</time>
      </trkpt>
      <trkpt lat="48.87691" lon="2.28448">
        <ele>49.799999237061</ele>
        <time>2016-03-14T21:24:01.000Z</time>
      </trkpt>
      <trkpt lat="48.87683" lon="2.28474">
        <ele>51.200000762939</ele>
        <time>2016-03-14T21:24:06.000Z</time>
      </trkpt>
      <trkpt lat="48.87674" lon="2.285">
        <ele>52.200000762939</ele>
        <time>2016-03-14T21:24:10.000Z</time>
      </trkpt>
      <trkpt lat="48.87671" lon="2.28506">
        <ele>52.400001525879</ele>
        <time>2016-03-14T21:24:11.000Z</time>
      </trkpt>
      <trkpt lat="48.87664" lon="2.28516">
        <ele>53.200000762939</ele>
        <time>2016-03-14T21:24:13.000Z</time>
      </trkpt>
      <trkpt lat="48.87658" lon="2.28528">
        <ele>53.599998474121</ele>
        <time>2016-03-14T21:24:15.000Z</time>
      </trkpt>
      <trkpt lat="48.87645" lon="2.28553">
        <ele>54.799999237061</ele>
        <time>2016-03-14T21:24:19.000Z</time>
      </trkpt>
      <trkpt lat="48.87633" lon="2.2858">
        <ele>56</ele>
        <time>2016-03-14T21:24:23.000Z</time>
      </trkpt>
      <trkpt lat="48.87627" lon="2.28612">
        <ele>56.400001525879</ele>
        <time>2016-03-14T21:24:27.000Z</time>
      </trkpt>
      <trkpt lat="48.87626" lon="2.28628">
        <ele>55.799999237061</ele>
        <time>2016-03-14T21:24:29.000Z</time>
      </trkpt>
      <trkpt lat="48.87621" lon="2.28647">
        <ele>55.200000762939</ele>
        <time>2016-03-14T21:24:32.000Z</time>
      </trkpt>
      <trkpt lat="48.8761" lon="2.28672">
        <ele>55</ele>
        <time>2016-03-14T21:24:37.000Z</time>
      </trkpt>
      <trkpt lat="48.87605" lon="2.28701">
        <ele>55</ele>
        <time>2016-03-14T21:24:41.000Z</time>
      </trkpt>
      <trkpt lat="48.87598" lon="2.28728">
        <ele>55.599998474121</ele>
        <time>2016-03-14T21:24:46.000Z</time>
      </trkpt>
      <trkpt lat="48.87597" lon="2.2874">
        <ele>55.599998474121</ele>
        <time>2016-03-14T21:24:48.000Z</time>
      </trkpt>
      <trkpt lat="48.87593" lon="2.2877">
        <ele>57</ele>
        <time>2016-03-14T21:24:55.000Z</time>
      </trkpt>
      <trkpt lat="48.87591" lon="2.28776">
        <ele>57.400001525879</ele>
        <time>2016-03-14T21:24:57.000Z</time>
      </trkpt>
      <trkpt lat="48.87587" lon="2.28812">
        <ele>58.799999237061</ele>
        <time>2016-03-14T21:25:05.000Z</time>
      </trkpt>
      <trkpt lat="48.87578" lon="2.28836">
        <ele>58.400001525879</ele>
        <time>2016-03-14T21:25:10.000Z</time>
      </trkpt>
      <trkpt lat="48.87575" lon="2.28867">
        <ele>59.200000762939</ele>
        <time>2016-03-14T21:25:15.000Z</time>
      </trkpt>
      <trkpt lat="48.87568" lon="2.28894">
        <ele>60.400001525879</ele>
        <time>2016-03-14T21:25:20.000Z</time>
      </trkpt>
      <trkpt lat="48.87571" lon="2.28927">
        <ele>61.200000762939</ele>
        <time>2016-03-14T21:25:24.000Z</time>
      </trkpt>
      <trkpt lat="48.87567" lon="2.28962">
        <ele>61.799999237061</ele>
        <time>2016-03-14T21:25:29.000Z</time>
      </trkpt>
      <trkpt lat="48.87563" lon="2.28977">
        <ele>63</ele>
        <time>2016-03-14T21:25:31.000Z</time>
      </trkpt>
      <trkpt lat="48.87557" lon="2.29007">
        <ele>64.800003051758</ele>
        <time>2016-03-14T21:25:35.000Z</time>
      </trkpt>
      <trkpt lat="48.87555" lon="2.29022">
        <ele>65.199996948242</ele>
        <time>2016-03-14T21:25:37.000Z</time>
      </trkpt>
      <trkpt lat="48.87552" lon="2.29042">
        <ele>65.400001525879</ele>
        <time>2016-03-14T21:25:39.000Z</time>
      </trkpt>
      <trkpt lat="48.87539" lon="2.29066">
        <ele>66</ele>
        <time>2016-03-14T21:25:43.000Z</time>
      </trkpt>
      <trkpt lat="48.87529" lon="2.29092">
        <ele>67</ele>
        <time>2016-03-14T21:25:47.000Z</time>
      </trkpt>
      <trkpt lat="48.87524" lon="2.29106">
        <ele>66.599998474121</ele>
        <time>2016-03-14T21:25:49.000Z</time>
      </trkpt>
      <trkpt lat="48.87513" lon="2.2913">
        <ele>66.800003051758</ele>
        <time>2016-03-14T21:25:52.000Z</time>
      </trkpt>
      <trkpt lat="48.87504" lon="2.29154">
        <ele>66.599998474121</ele>
        <time>2016-03-14T21:25:55.000Z</time>
      </trkpt>
      <trkpt lat="48.87503" lon="2.29162">
        <ele>66.199996948242</ele>
        <time>2016-03-14T21:25:56.000Z</time>
      </trkpt>
      <trkpt lat="48.87492" lon="2.29186">
        <ele>67.199996948242</ele>
        <time>2016-03-14T21:25:59.000Z</time>
      </trkpt>
      <trkpt lat="48.87487" lon="2.29193">
        <ele>67.400001525879</ele>
        <time>2016-03-14T21:26:00.000Z</time>
      </trkpt>
      <trkpt lat="48.87481" lon="2.29208">
        <ele>67.800003051758</ele>
        <time>2016-03-14T21:26:02.000Z</time>
      </trkpt>
      <trkpt lat="48.8747" lon="2.29235">
        <ele>65.800003051758</ele>
        <time>2016-03-14T21:26:06.000Z</time>
      </trkpt>
      <trkpt lat="48.8746" lon="2.29263">
        <ele>64.400001525879</ele>
        <time>2016-03-14T21:26:10.000Z</time>
      </trkpt>
      <trkpt lat="48.87456" lon="2.29279">
        <ele>63.799999237061</ele>
        <time>2016-03-14T21:26:12.000Z</time>
      </trkpt>
      <trkpt lat="48.87452" lon="2.293">
        <ele>63</ele>
        <time>2016-03-14T21:26:15.000Z</time>
      </trkpt>
      <trkpt lat="48.87443" lon="2.29311">
        <ele>61.799999237061</ele>
        <time>2016-03-14T21:26:19.000Z</time>
      </trkpt>
      <trkpt lat="48.87441" lon="2.29313">
        <ele>61.599998474121</ele>
        <time>2016-03-14T21:26:20.000Z</time>
      </trkpt>
      <trkpt lat="48.87441" lon="2.29315">
        <ele>61.400001525879</ele>
        <time>2016-03-14T21:26:26.000Z</time>
      </trkpt>
      <trkpt lat="48.87432" lon="2.29298">
        <ele>62.200000762939</ele>
        <time>2016-03-14T21:27:06.000Z</time>
      </trkpt>
      <trkpt lat="48.87428" lon="2.29293">
        <ele>62.400001525879</ele>
        <time>2016-03-14T21:27:27.000Z</time>
      </trkpt>
      <trkpt lat="48.87416" lon="2.29287">
        <ele>63.200000762939</ele>
        <time>2016-03-14T21:27:39.000Z</time>
      </trkpt>
      <trkpt lat="48.87405" lon="2.29298">
        <ele>63.400001525879</ele>
        <time>2016-03-14T21:28:10.000Z</time>
      </trkpt>
      <trkpt lat="48.87391" lon="2.293">
        <ele>64</ele>
        <time>2016-03-14T21:28:18.000Z</time>
      </trkpt>
      <trkpt lat="48.87374" lon="2.29282">
        <ele>65.199996948242</ele>
        <time>2016-03-14T21:28:29.000Z</time>
      </trkpt>
      <trkpt lat="48.87368" lon="2.29278">
        <ele>65.599998474121</ele>
        <time>2016-03-14T21:28:38.000Z</time>
      </trkpt>
      <trkpt lat="48.8735" lon="2.29288">
        <ele>66.599998474121</ele>
        <time>2016-03-14T21:28:45.000Z</time>
      </trkpt>
      <trkpt lat="48.87331" lon="2.29297">
        <ele>67.800003051758</ele>
        <time>2016-03-14T21:28:53.000Z</time>
      </trkpt>
      <trkpt lat="48.87315" lon="2.29312">
        <ele>67.599998474121</ele>
        <time>2016-03-14T21:28:59.000Z</time>
      </trkpt>
      <trkpt lat="48.87299" lon="2.29327">
        <ele>66.599998474121</ele>
        <time>2016-03-14T21:29:06.000Z</time>
      </trkpt>
      <trkpt lat="48.87286" lon="2.29348">
        <ele>66.800003051758</ele>
        <time>2016-03-14T21:29:11.000Z</time>
      </trkpt>
      <trkpt lat="48.87274" lon="2.2937">
        <ele>66</ele>
        <time>2016-03-14T21:29:16.000Z</time>
      </trkpt>
      <trkpt lat="48.87259" lon="2.29387">
        <ele>65.800003051758</ele>
        <time>2016-03-14T21:29:21.000Z</time>
      </trkpt>
      <trkpt lat="48.87252" lon="2.29389">
        <ele>65.800003051758</ele>
        <time>2016-03-14T21:29:24.000Z</time>
      </trkpt>
      <trkpt lat="48.87246" lon="2.2939">
        <ele>65.800003051758</ele>
        <time>2016-03-14T21:29:31.000Z</time>
      </trkpt>
      <trkpt lat="48.87234" lon="2.29415">
        <ele>65.400001525879</ele>
        <time>2016-03-14T21:29:53.000Z</time>
      </trkpt>
      <trkpt lat="48.87229" lon="2.29442">
        <ele>64.800003051758</ele>
        <time>2016-03-14T21:29:57.000Z</time>
      </trkpt>
      <trkpt lat="48.87224" lon="2.29471">
        <ele>64.800003051758</ele>
        <time>2016-03-14T21:30:02.000Z</time>
      </trkpt>
      <trkpt lat="48.87225" lon="2.29499">
        <ele>64.599998474121</ele>
        <time>2016-03-14T21:30:06.000Z</time>
      </trkpt>
      <trkpt lat="48.87226" lon="2.29527">
        <ele>64</ele>
        <time>2016-03-14T21:30:10.000Z</time>
      </trkpt>
      <trkpt lat="48.87229" lon="2.2956">
        <ele>63.599998474121</ele>
        <time>2016-03-14T21:30:15.000Z</time>
      </trkpt>
      <trkpt lat="48.87237" lon="2.2959">
        <ele>63.599998474121</ele>
        <time>2016-03-14T21:30:20.000Z</time>
      </trkpt>
      <trkpt lat="48.87249" lon="2.29614">
        <ele>64</ele>
        <time>2016-03-14T21:30:25.000Z</time>
      </trkpt>
      <trkpt lat="48.87267" lon="2.29628">
        <ele>63.599998474121</ele>
        <time>2016-03-14T21:30:28.000Z</time>
      </trkpt>
      <trkpt lat="48.87275" lon="2.29643">
        <ele>64</ele>
        <time>2016-03-14T21:30:32.000Z</time>
      </trkpt>
      <trkpt lat="48.87291" lon="2.29654">
        <ele>64</ele>
        <time>2016-03-14T21:30:39.000Z</time>
      </trkpt>
      <trkpt lat="48.87298" lon="2.29682">
        <ele>64.400001525879</ele>
        <time>2016-03-14T21:30:46.000Z</time>
      </trkpt>
      <trkpt lat="48.87301" lon="2.29687">
        <ele>64.400001525879</ele>
        <time>2016-03-14T21:30:51.000Z</time>
      </trkpt>
      <trkpt lat="48.873" lon="2.29687">
        <ele>64.400001525879</ele>
        <time>2016-03-14T21:30:53.000Z</time>
      </trkpt>
      <trkpt lat="48.873" lon="2.29693">
        <ele>64.599998474121</ele>
        <time>2016-03-14T21:31:04.000Z</time>
      </trkpt>
      <trkpt lat="48.87302" lon="2.29704">
        <ele>65</ele>
        <time>2016-03-14T21:31:16.000Z</time>
      </trkpt>
      <trkpt lat="48.873" lon="2.29715">
        <ele>65.800003051758</ele>
        <time>2016-03-14T21:31:22.000Z</time>
      </trkpt>
      <trkpt lat="48.87301" lon="2.29743">
        <ele>67.400001525879</ele>
        <time>2016-03-14T21:31:29.000Z</time>
      </trkpt>
      <trkpt lat="48.873" lon="2.29775">
        <ele>69</ele>
        <time>2016-03-14T21:31:35.000Z</time>
      </trkpt>
      <trkpt lat="48.87296" lon="2.29807">
        <ele>67.800003051758</ele>
        <time>2016-03-14T21:31:40.000Z</time>
      </trkpt>
      <trkpt lat="48.87292" lon="2.29843">
        <ele>67.199996948242</ele>
        <time>2016-03-14T21:31:46.000Z</time>
      </trkpt>
      <trkpt lat="48.87284" lon="2.29872">
        <ele>65.599998474121</ele>
        <time>2016-03-14T21:31:50.000Z</time>
      </trkpt>
      <trkpt lat="48.87281" lon="2.299">
        <ele>64</ele>
        <time>2016-03-14T21:31:54.000Z</time>
      </trkpt>
      <trkpt lat="48.87271" lon="2.29929">
        <ele>62.799999237061</ele>
        <time>2016-03-14T21:31:58.000Z</time>
      </trkpt>
      <trkpt lat="48.8726" lon="2.29956">
        <ele>62.799999237061</ele>
        <time>2016-03-14T21:32:03.000Z</time>
      </trkpt>
      <trkpt lat="48.87257" lon="2.29965">
        <ele>62.799999237061</ele>
        <time>2016-03-14T21:32:05.000Z</time>
      </trkpt>
      <trkpt lat="48.87251" lon="2.29992">
        <ele>62</ele>
        <time>2016-03-14T21:32:09.000Z</time>
      </trkpt>
      <trkpt lat="48.87244" lon="2.30021">
        <ele>62.599998474121</ele>
        <time>2016-03-14T21:32:13.000Z</time>
      </trkpt>
      <trkpt lat="48.87236" lon="2.30047">
        <ele>63</ele>
        <time>2016-03-14T21:32:17.000Z</time>
      </trkpt>
      <trkpt lat="48.87229" lon="2.30064">
        <ele>61.599998474121</ele>
        <time>2016-03-14T21:32:20.000Z</time>
      </trkpt>
      <trkpt lat="48.87227" lon="2.30091">
        <ele>60.200000762939</ele>
        <time>2016-03-14T21:32:24.000Z</time>
      </trkpt>
      <trkpt lat="48.8721" lon="2.30111">
        <ele>58</ele>
        <time>2016-03-14T21:32:29.000Z</time>
      </trkpt>
      <trkpt lat="48.87206" lon="2.30115">
        <ele>57.599998474121</ele>
        <time>2016-03-14T21:32:30.000Z</time>
      </trkpt>
      <trkpt lat="48.872" lon="2.30133">
        <ele>56.599998474121</ele>
        <time>2016-03-14T21:32:33.000Z</time>
      </trkpt>
      <trkpt lat="48.87193" lon="2.3015">
        <ele>55.599998474121</ele>
        <time>2016-03-14T21:32:36.000Z</time>
      </trkpt>
      <trkpt lat="48.87189" lon="2.3017">
        <ele>55</ele>
        <time>2016-03-14T21:32:39.000Z</time>
      </trkpt>
      <trkpt lat="48.87181" lon="2.30192">
        <ele>54.599998474121</ele>
        <time>2016-03-14T21:32:43.000Z</time>
      </trkpt>
      <trkpt lat="48.87171" lon="2.30219">
        <ele>54.400001525879</ele>
        <time>2016-03-14T21:32:47.000Z</time>
      </trkpt>
      <trkpt lat="48.87163" lon="2.30245">
        <ele>54.400001525879</ele>
        <time>2016-03-14T21:32:51.000Z</time>
      </trkpt>
      <trkpt lat="48.87154" lon="2.30276">
        <ele>54.799999237061</ele>
        <time>2016-03-14T21:32:56.000Z</time>
      </trkpt>
      <trkpt lat="48.87153" lon="2.30282">
        <ele>55</ele>
        <time>2016-03-14T21:32:57.000Z</time>
      </trkpt>
      <trkpt lat="48.87148" lon="2.30313">
        <ele>55.599998474121</ele>
        <time>2016-03-14T21:33:02.000Z</time>
      </trkpt>
      <trkpt lat="48.87146" lon="2.30331">
        <ele>56</ele>
        <time>2016-03-14T21:33:05.000Z</time>
      </trkpt>
      <trkpt lat="48.87138" lon="2.30356">
        <ele>56</ele>
        <time>2016-03-14T21:33:09.000Z</time>
      </trkpt>
      <trkpt lat="48.8713" lon="2.30371">
        <ele>55.799999237061</ele>
        <time>2016-03-14T21:33:13.000Z</time>
      </trkpt>
      <trkpt lat="48.87124" lon="2.3039">
        <ele>55.599998474121</ele>
        <time>2016-03-14T21:33:17.000Z</time>
      </trkpt>
      <trkpt lat="48.8712" lon="2.30417">
        <ele>55.400001525879</ele>
        <time>2016-03-14T21:33:21.000Z</time>
      </trkpt>
      <trkpt lat="48.87114" lon="2.30446">
        <ele>54</ele>
        <time>2016-03-14T21:33:25.000Z</time>
      </trkpt>
      <trkpt lat="48.87109" lon="2.30477">
        <ele>52.799999237061</ele>
        <time>2016-03-14T21:33:29.000Z</time>
      </trkpt>
      <trkpt lat="48.87099" lon="2.30504">
        <ele>51.799999237061</ele>
        <time>2016-03-14T21:33:33.000Z</time>
      </trkpt>
      <trkpt lat="48.87088" lon="2.30527">
        <ele>51.400001525879</ele>
        <time>2016-03-14T21:33:37.000Z</time>
      </trkpt>
      <trkpt lat="48.87086" lon="2.30533">
        <ele>51.400001525879</ele>
        <time>2016-03-14T21:33:38.000Z</time>
      </trkpt>
      <trkpt lat="48.8708" lon="2.30558">
        <ele>50.799999237061</ele>
        <time>2016-03-14T21:33:42.000Z</time>
      </trkpt>
      <trkpt lat="48.87078" lon="2.30564">
        <ele>50.400001525879</ele>
        <time>2016-03-14T21:33:43.000Z</time>
      </trkpt>
      <trkpt lat="48.87068" lon="2.3059">
        <ele>49</ele>
        <time>2016-03-14T21:33:47.000Z</time>
      </trkpt>
      <trkpt lat="48.87064" lon="2.30616">
        <ele>48.599998474121</ele>
        <time>2016-03-14T21:33:52.000Z</time>
      </trkpt>
      <trkpt lat="48.87054" lon="2.30639">
        <ele>49.400001525879</ele>
        <time>2016-03-14T21:33:58.000Z</time>
      </trkpt>
      <trkpt lat="48.87049" lon="2.30652">
        <ele>50.200000762939</ele>
        <time>2016-03-14T21:34:02.000Z</time>
      </trkpt>
      <trkpt lat="48.87042" lon="2.30677">
        <ele>50.200000762939</ele>
        <time>2016-03-14T21:34:08.000Z</time>
      </trkpt>
      <trkpt lat="48.87032" lon="2.30703">
        <ele>50.200000762939</ele>
        <time>2016-03-14T21:34:14.000Z</time>
      </trkpt>
      <trkpt lat="48.87025" lon="2.3073">
        <ele>50.200000762939</ele>
        <time>2016-03-14T21:34:19.000Z</time>
      </trkpt>
      <trkpt lat="48.87015" lon="2.30761">
        <ele>48.400001525879</ele>
        <time>2016-03-14T21:34:24.000Z</time>
      </trkpt>
      <trkpt lat="48.87007" lon="2.30789">
        <ele>45.599998474121</ele>
        <time>2016-03-14T21:34:28.000Z</time>
      </trkpt>
      <trkpt lat="48.87002" lon="2.30816">
        <ele>43.799999237061</ele>
        <time>2016-03-14T21:34:32.000Z</time>
      </trkpt>
      <trkpt lat="48.86993" lon="2.3084">
        <ele>43.599998474121</ele>
        <time>2016-03-14T21:34:36.000Z</time>
      </trkpt>
      <trkpt lat="48.86984" lon="2.30867">
        <ele>43</ele>
        <time>2016-03-14T21:34:40.000Z</time>
      </trkpt>
      <trkpt lat="48.86976" lon="2.30885">
        <ele>43</ele>
        <time>2016-03-14T21:34:43.000Z</time>
      </trkpt>
      <trkpt lat="48.86971" lon="2.30902">
        <ele>43</ele>
        <time>2016-03-14T21:34:47.000Z</time>
      </trkpt>
      <trkpt lat="48.86965" lon="2.30906">
        <ele>43</ele>
        <time>2016-03-14T21:34:51.000Z</time>
      </trkpt>
      <trkpt lat="48.86965" lon="2.30906">
        <ele>43</ele>
        <time>2016-03-14T21:34:52.000Z</time>
      </trkpt>
      <trkpt lat="48.86964" lon="2.30906">
        <ele>43</ele>
        <time>2016-03-14T21:34:54.000Z</time>
      </trkpt>
      <trkpt lat="48.86962" lon="2.30904">
        <ele>43</ele>
        <time>2016-03-14T21:35:14.000Z</time>
      </trkpt>
      <trkpt lat="48.86956" lon="2.30904">
        <ele>43</ele>
        <time>2016-03-14T21:35:20.000Z</time>
      </trkpt>
      <trkpt lat="48.86953" lon="2.30904">
        <ele>43</ele>
        <time>2016-03-14T21:35:24.000Z</time>
      </trkpt>
      <trkpt lat="48.86951" lon="2.30913">
        <ele>43</ele>
        <time>2016-03-14T21:35:57.000Z</time>
      </trkpt>
      <trkpt lat="48.86936" lon="2.30933">
        <ele>43.200000762939</ele>
        <time>2016-03-14T21:36:03.000Z</time>
      </trkpt>
      <trkpt lat="48.86921" lon="2.30945">
        <ele>43</ele>
        <time>2016-03-14T21:36:09.000Z</time>
      </trkpt>
      <trkpt lat="48.86905" lon="2.30945">
        <ele>42.599998474121</ele>
        <time>2016-03-14T21:36:14.000Z</time>
      </trkpt>
      <trkpt lat="48.86888" lon="2.30954">
        <ele>41.799999237061</ele>
        <time>2016-03-14T21:36:20.000Z</time>
      </trkpt>
      <trkpt lat="48.86883" lon="2.30962">
        <ele>41.200000762939</ele>
        <time>2016-03-14T21:36:25.000Z</time>
      </trkpt>
      <trkpt lat="48.86877" lon="2.30963">
        <ele>40.799999237061</ele>
        <time>2016-03-14T21:36:35.000Z</time>
      </trkpt>
      <trkpt lat="48.86865" lon="2.30988">
        <ele>39</ele>
        <time>2016-03-14T21:36:43.000Z</time>
      </trkpt>
      <trkpt lat="48.86856" lon="2.31012">
        <ele>37.200000762939</ele>
        <time>2016-03-14T21:36:50.000Z</time>
      </trkpt>
      <trkpt lat="48.86837" lon="2.3102">
        <ele>37.200000762939</ele>
        <time>2016-03-14T21:36:57.000Z</time>
      </trkpt>
      <trkpt lat="48.86816" lon="2.31022">
        <ele>37.200000762939</ele>
        <time>2016-03-14T21:37:01.000Z</time>
      </trkpt>
      <trkpt lat="48.86793" lon="2.31021">
        <ele>37.599998474121</ele>
        <time>2016-03-14T21:37:05.000Z</time>
      </trkpt>
      <trkpt lat="48.86772" lon="2.3102">
        <ele>38.400001525879</ele>
        <time>2016-03-14T21:37:09.000Z</time>
      </trkpt>
      <trkpt lat="48.86751" lon="2.3102">
        <ele>39.200000762939</ele>
        <time>2016-03-14T21:37:13.000Z</time>
      </trkpt>
      <trkpt lat="48.86728" lon="2.31021">
        <ele>40</ele>
        <time>2016-03-14T21:37:17.000Z</time>
      </trkpt>
      <trkpt lat="48.86709" lon="2.31024">
        <ele>41</ele>
        <time>2016-03-14T21:37:21.000Z</time>
      </trkpt>
      <trkpt lat="48.8669" lon="2.31033">
        <ele>42.400001525879</ele>
        <time>2016-03-14T21:37:25.000Z</time>
      </trkpt>
      <trkpt lat="48.86667" lon="2.31039">
        <ele>43</ele>
        <time>2016-03-14T21:37:28.000Z</time>
      </trkpt>
      <trkpt lat="48.86644" lon="2.31043">
        <ele>43.400001525879</ele>
        <time>2016-03-14T21:37:31.000Z</time>
      </trkpt>
      <trkpt lat="48.86618" lon="2.31045">
        <ele>43</ele>
        <time>2016-03-14T21:37:34.000Z</time>
      </trkpt>
      <trkpt lat="48.86595" lon="2.31051">
        <ele>42.400001525879</ele>
        <time>2016-03-14T21:37:37.000Z</time>
      </trkpt>
      <trkpt lat="48.86568" lon="2.31049">
        <ele>41</ele>
        <time>2016-03-14T21:37:40.000Z</time>
      </trkpt>
      <trkpt lat="48.86545" lon="2.31051">
        <ele>39.400001525879</ele>
        <time>2016-03-14T21:37:43.000Z</time>
      </trkpt>
      <trkpt lat="48.86534" lon="2.31055">
        <ele>38.400001525879</ele>
        <time>2016-03-14T21:37:45.000Z</time>
      </trkpt>
      <trkpt lat="48.86524" lon="2.31062">
        <ele>37.200000762939</ele>
        <time>2016-03-14T21:37:48.000Z</time>
      </trkpt>
      <trkpt lat="48.86522" lon="2.31068">
        <ele>36.599998474121</ele>
        <time>2016-03-14T21:37:51.000Z</time>
      </trkpt>
      <trkpt lat="48.86521" lon="2.31068">
        <ele>36.400001525879</ele>
        <time>2016-03-14T21:37:53.000Z</time>
      </trkpt>
      <trkpt lat="48.86507" lon="2.31076">
        <ele>34.599998474121</ele>
        <time>2016-03-14T21:38:25.000Z</time>
      </trkpt>
      <trkpt lat="48.86483" lon="2.31083">
        <ele>31.60000038147</ele>
        <time>2016-03-14T21:38:39.000Z</time>
      </trkpt>
      <trkpt lat="48.86455" lon="2.31089">
        <ele>28.799999237061</ele>
        <time>2016-03-14T21:38:44.000Z</time>
      </trkpt>
      <trkpt lat="48.86451" lon="2.31119">
        <ele>28.39999961853</ele>
        <time>2016-03-14T21:38:52.000Z</time>
      </trkpt>
      <trkpt lat="48.86446" lon="2.31148">
        <ele>27.799999237061</ele>
        <time>2016-03-14T21:39:00.000Z</time>
      </trkpt>
      <trkpt lat="48.86442" lon="2.31178">
        <ele>28.60000038147</ele>
        <time>2016-03-14T21:39:07.000Z</time>
      </trkpt>
      <trkpt lat="48.86439" lon="2.3121">
        <ele>31.39999961853</ele>
        <time>2016-03-14T21:39:12.000Z</time>
      </trkpt>
      <trkpt lat="48.86447" lon="2.31268">
        <ele>35.200000762939</ele>
        <time>2016-03-14T21:39:14.000Z</time>
      </trkpt>
      <trkpt lat="48.86442" lon="2.31296">
        <ele>33.599998474121</ele>
        <time>2016-03-14T21:39:19.000Z</time>
      </trkpt>
      <trkpt lat="48.86441" lon="2.31303">
        <ele>33.200000762939</ele>
        <time>2016-03-14T21:39:21.000Z</time>
      </trkpt>
      <trkpt lat="48.86437" lon="2.31316">
        <ele>32.400001525879</ele>
        <time>2016-03-14T21:39:24.000Z</time>
      </trkpt>
      <trkpt lat="48.8644" lon="2.31348">
        <ele>31.60000038147</ele>
        <time>2016-03-14T21:39:28.000Z</time>
      </trkpt>
      <trkpt lat="48.86441" lon="2.31355">
        <ele>31.60000038147</ele>
        <time>2016-03-14T21:39:29.000Z</time>
      </trkpt>
      <trkpt lat="48.86451" lon="2.31378">
        <ele>31.799999237061</ele>
        <time>2016-03-14T21:39:33.000Z</time>
      </trkpt>
      <trkpt lat="48.86458" lon="2.31404">
        <ele>31.799999237061</ele>
        <time>2016-03-14T21:39:37.000Z</time>
      </trkpt>
      <trkpt lat="48.86459" lon="2.31419">
        <ele>32.200000762939</ele>
        <time>2016-03-14T21:39:39.000Z</time>
      </trkpt>
      <trkpt lat="48.8646" lon="2.31427">
        <ele>32.799999237061</ele>
        <time>2016-03-14T21:39:40.000Z</time>
      </trkpt>
      <trkpt lat="48.8646" lon="2.31455">
        <ele>33.200000762939</ele>
        <time>2016-03-14T21:39:44.000Z</time>
      </trkpt>
      <trkpt lat="48.86459" lon="2.3149">
        <ele>32.599998474121</ele>
        <time>2016-03-14T21:39:49.000Z</time>
      </trkpt>
      <trkpt lat="48.86457" lon="2.3152">
        <ele>30</ele>
        <time>2016-03-14T21:39:53.000Z</time>
      </trkpt>
      <trkpt lat="48.86455" lon="2.31537">
        <ele>29.200000762939</ele>
        <time>2016-03-14T21:39:55.000Z</time>
      </trkpt>
      <trkpt lat="48.86453" lon="2.31573">
        <ele>27.799999237061</ele>
        <time>2016-03-14T21:39:59.000Z</time>
      </trkpt>
      <trkpt lat="48.86452" lon="2.31608">
        <ele>26.39999961853</ele>
        <time>2016-03-14T21:40:03.000Z</time>
      </trkpt>
      <trkpt lat="48.86452" lon="2.31637">
        <ele>26.39999961853</ele>
        <time>2016-03-14T21:40:06.000Z</time>
      </trkpt>
      <trkpt lat="48.86452" lon="2.31667">
        <ele>26.60000038147</ele>
        <time>2016-03-14T21:40:09.000Z</time>
      </trkpt>
      <trkpt lat="48.86452" lon="2.31688">
        <ele>29.39999961853</ele>
        <time>2016-03-14T21:40:11.000Z</time>
      </trkpt>
      <trkpt lat="48.86454" lon="2.31719">
        <ele>34.799999237061</ele>
        <time>2016-03-14T21:40:14.000Z</time>
      </trkpt>
      <trkpt lat="48.86458" lon="2.3176">
        <ele>39.400001525879</ele>
        <time>2016-03-14T21:40:18.000Z</time>
      </trkpt>
      <trkpt lat="48.86461" lon="2.31788">
        <ele>37.400001525879</ele>
        <time>2016-03-14T21:40:20.000Z</time>
      </trkpt>
      <trkpt lat="48.8646" lon="2.31803">
        <ele>35.799999237061</ele>
        <time>2016-03-14T21:40:22.000Z</time>
      </trkpt>
      <trkpt lat="48.86448" lon="2.31835">
        <ele>33</ele>
        <time>2016-03-14T21:40:26.000Z</time>
      </trkpt>
      <trkpt lat="48.86445" lon="2.31845">
        <ele>32.200000762939</ele>
        <time>2016-03-14T21:40:27.000Z</time>
      </trkpt>
      <trkpt lat="48.8644" lon="2.31855">
        <ele>31.200000762939</ele>
        <time>2016-03-14T21:40:29.000Z</time>
      </trkpt>
      <trkpt lat="48.86433" lon="2.31871">
        <ele>31</ele>
        <time>2016-03-14T21:40:33.000Z</time>
      </trkpt>
      <trkpt lat="48.86431" lon="2.31876">
        <ele>30.799999237061</ele>
        <time>2016-03-14T21:40:34.000Z</time>
      </trkpt>
      <trkpt lat="48.86424" lon="2.31903">
        <ele>29</ele>
        <time>2016-03-14T21:40:39.000Z</time>
      </trkpt>
      <trkpt lat="48.86414" lon="2.31928">
        <ele>27.200000762939</ele>
        <time>2016-03-14T21:40:44.000Z</time>
      </trkpt>
      <trkpt lat="48.8641" lon="2.31944">
        <ele>27.799999237061</ele>
        <time>2016-03-14T21:40:47.000Z</time>
      </trkpt>
      <trkpt lat="48.86408" lon="2.31957">
        <ele>28.200000762939</ele>
        <time>2016-03-14T21:40:50.000Z</time>
      </trkpt>
      <trkpt lat="48.86404" lon="2.31978">
        <ele>28.60000038147</ele>
        <time>2016-03-14T21:40:56.000Z</time>
      </trkpt>
      <trkpt lat="48.86408" lon="2.31988">
        <ele>29</ele>
        <time>2016-03-14T21:41:18.000Z</time>
      </trkpt>
      <trkpt lat="48.86408" lon="2.3201">
        <ele>29.799999237061</ele>
        <time>2016-03-14T21:42:03.000Z</time>
      </trkpt>
      <trkpt lat="48.86401" lon="2.32036">
        <ele>30.60000038147</ele>
        <time>2016-03-14T21:42:09.000Z</time>
      </trkpt>
      <trkpt lat="48.86391" lon="2.32066">
        <ele>30</ele>
        <time>2016-03-14T21:42:14.000Z</time>
      </trkpt>
      <trkpt lat="48.86385" lon="2.3208">
        <ele>29.799999237061</ele>
        <time>2016-03-14T21:42:16.000Z</time>
      </trkpt>
      <trkpt lat="48.86377" lon="2.32106">
        <ele>30</ele>
        <time>2016-03-14T21:42:20.000Z</time>
      </trkpt>
      <trkpt lat="48.86367" lon="2.32134">
        <ele>29.60000038147</ele>
        <time>2016-03-14T21:42:24.000Z</time>
      </trkpt>
      <trkpt lat="48.86358" lon="2.32159">
        <ele>29</ele>
        <time>2016-03-14T21:42:27.000Z</time>
      </trkpt>
      <trkpt lat="48.86348" lon="2.32186">
        <ele>29.799999237061</ele>
        <time>2016-03-14T21:42:30.000Z</time>
      </trkpt>
      <trkpt lat="48.86338" lon="2.32216">
        <ele>31</ele>
        <time>2016-03-14T21:42:33.000Z</time>
      </trkpt>
      <trkpt lat="48.86329" lon="2.32247">
        <ele>31.60000038147</ele>
        <time>2016-03-14T21:42:36.000Z</time>
      </trkpt>
      <trkpt lat="48.86319" lon="2.32279">
        <ele>30.799999237061</ele>
        <time>2016-03-14T21:42:39.000Z</time>
      </trkpt>
      <trkpt lat="48.86308" lon="2.32309">
        <ele>30.200000762939</ele>
        <time>2016-03-14T21:42:42.000Z</time>
      </trkpt>
      <trkpt lat="48.86297" lon="2.32338">
        <ele>29.799999237061</ele>
        <time>2016-03-14T21:42:45.000Z</time>
      </trkpt>
      <trkpt lat="48.86287" lon="2.32368">
        <ele>29</ele>
        <time>2016-03-14T21:42:48.000Z</time>
      </trkpt>
      <trkpt lat="48.86277" lon="2.32399">
        <ele>27.60000038147</ele>
        <time>2016-03-14T21:42:51.000Z</time>
      </trkpt>
      <trkpt lat="48.86268" lon="2.32431">
        <ele>27.39999961853</ele>
        <time>2016-03-14T21:42:54.000Z</time>
      </trkpt>
      <trkpt lat="48.86258" lon="2.32463">
        <ele>28.200000762939</ele>
        <time>2016-03-14T21:42:57.000Z</time>
      </trkpt>
      <trkpt lat="48.86247" lon="2.32492">
        <ele>28.799999237061</ele>
        <time>2016-03-14T21:43:00.000Z</time>
      </trkpt>
      <trkpt lat="48.86244" lon="2.32502">
        <ele>29.200000762939</ele>
        <time>2016-03-14T21:43:01.000Z</time>
      </trkpt>
      <trkpt lat="48.86236" lon="2.32531">
        <ele>29.799999237061</ele>
        <time>2016-03-14T21:43:04.000Z</time>
      </trkpt>
      <trkpt lat="48.86226" lon="2.32558">
        <ele>30.200000762939</ele>
        <time>2016-03-14T21:43:07.000Z</time>
      </trkpt>
      <trkpt lat="48.86217" lon="2.32586">
        <ele>30.39999961853</ele>
        <time>2016-03-14T21:43:10.000Z</time>
      </trkpt>
      <trkpt lat="48.86207" lon="2.32614">
        <ele>30.39999961853</ele>
        <time>2016-03-14T21:43:13.000Z</time>
      </trkpt>
      <trkpt lat="48.86198" lon="2.32643">
        <ele>29.60000038147</ele>
        <time>2016-03-14T21:43:16.000Z</time>
      </trkpt>
      <trkpt lat="48.86188" lon="2.32673">
        <ele>29.39999961853</ele>
        <time>2016-03-14T21:43:19.000Z</time>
      </trkpt>
      <trkpt lat="48.86179" lon="2.327">
        <ele>30.39999961853</ele>
        <time>2016-03-14T21:43:22.000Z</time>
      </trkpt>
      <trkpt lat="48.8617" lon="2.32727">
        <ele>31.200000762939</ele>
        <time>2016-03-14T21:43:25.000Z</time>
      </trkpt>
      <trkpt lat="48.8616" lon="2.32755">
        <ele>30.60000038147</ele>
        <time>2016-03-14T21:43:28.000Z</time>
      </trkpt>
      <trkpt lat="48.8615" lon="2.32783">
        <ele>31.39999961853</ele>
        <time>2016-03-14T21:43:31.000Z</time>
      </trkpt>
      <trkpt lat="48.86141" lon="2.32813">
        <ele>30.39999961853</ele>
        <time>2016-03-14T21:43:34.000Z</time>
      </trkpt>
      <trkpt lat="48.86133" lon="2.32842">
        <ele>29.39999961853</ele>
        <time>2016-03-14T21:43:37.000Z</time>
      </trkpt>
      <trkpt lat="48.86123" lon="2.3287">
        <ele>30.200000762939</ele>
        <time>2016-03-14T21:43:40.000Z</time>
      </trkpt>
      <trkpt lat="48.86113" lon="2.32899">
        <ele>32</ele>
        <time>2016-03-14T21:43:43.000Z</time>
      </trkpt>
      <trkpt lat="48.86105" lon="2.32926">
        <ele>34.599998474121</ele>
        <time>2016-03-14T21:43:46.000Z</time>
      </trkpt>
      <trkpt lat="48.86096" lon="2.32958">
        <ele>39.599998474121</ele>
        <time>2016-03-14T21:43:50.000Z</time>
      </trkpt>
      <trkpt lat="48.8609" lon="2.32978">
        <ele>42.599998474121</ele>
        <time>2016-03-14T21:43:53.000Z</time>
      </trkpt>
      <trkpt lat="48.86083" lon="2.32999">
        <ele>42.799999237061</ele>
        <time>2016-03-14T21:43:57.000Z</time>
      </trkpt>
      <trkpt lat="48.86087" lon="2.33005">
        <ele>42.599998474121</ele>
        <time>2016-03-14T21:44:36.000Z</time>
      </trkpt>
      <trkpt lat="48.86105" lon="2.33012">
        <ele>43</ele>
        <time>2016-03-14T21:44:45.000Z</time>
      </trkpt>
      <trkpt lat="48.86107" lon="2.33013">
        <ele>43</ele>
        <time>2016-03-14T21:44:49.000Z</time>
      </trkpt>
      <trkpt lat="48.86118" lon="2.33023">
        <ele>42</ele>
        <time>2016-03-14T21:45:12.000Z</time>
      </trkpt>
      <trkpt lat="48.86124" lon="2.33027">
        <ele>41.599998474121</ele>
        <time>2016-03-14T21:45:13.000Z</time>
      </trkpt>
      <trkpt lat="48.86141" lon="2.33041">
        <ele>40.200000762939</ele>
        <time>2016-03-14T21:45:16.000Z</time>
      </trkpt>
      <trkpt lat="48.8616" lon="2.33057">
        <ele>38.400001525879</ele>
        <time>2016-03-14T21:45:19.000Z</time>
      </trkpt>
      <trkpt lat="48.86185" lon="2.33074">
        <ele>36.400001525879</ele>
        <time>2016-03-14T21:45:22.000Z</time>
      </trkpt>
      <trkpt lat="48.86203" lon="2.33088">
        <ele>36</ele>
        <time>2016-03-14T21:45:24.000Z</time>
      </trkpt>
      <trkpt lat="48.86221" lon="2.33101">
        <ele>36</ele>
        <time>2016-03-14T21:45:26.000Z</time>
      </trkpt>
      <trkpt lat="48.8624" lon="2.33114">
        <ele>36</ele>
        <time>2016-03-14T21:45:28.000Z</time>
      </trkpt>
      <trkpt lat="48.86318" lon="2.33161">
        <ele>38</ele>
        <time>2016-03-14T21:45:37.000Z</time>
      </trkpt>
      <trkpt lat="48.86334" lon="2.33175">
        <ele>39.200000762939</ele>
        <time>2016-03-14T21:45:41.000Z</time>
      </trkpt>
      <trkpt lat="48.86345" lon="2.33187">
        <ele>40.200000762939</ele>
        <time>2016-03-14T21:45:45.000Z</time>
      </trkpt>
      <trkpt lat="48.86362" lon="2.33205">
        <ele>41.599998474121</ele>
        <time>2016-03-14T21:45:51.000Z</time>
      </trkpt>
      <trkpt lat="48.86378" lon="2.3322">
        <ele>43.200000762939</ele>
        <time>2016-03-14T21:45:59.000Z</time>
      </trkpt>
      <trkpt lat="48.86379" lon="2.33222">
        <ele>43.400001525879</ele>
        <time>2016-03-14T21:46:01.000Z</time>
      </trkpt>
      <trkpt lat="48.86382" lon="2.33223">
        <ele>43.400001525879</ele>
        <time>2016-03-14T21:46:05.000Z</time>
      </trkpt>
      <trkpt lat="48.86401" lon="2.33232">
        <ele>44.799999237061</ele>
        <time>2016-03-14T21:46:24.000Z</time>
      </trkpt>
      <trkpt lat="48.86418" lon="2.33244">
        <ele>46</ele>
        <time>2016-03-14T21:46:28.000Z</time>
      </trkpt>
      <trkpt lat="48.86435" lon="2.33254">
        <ele>47</ele>
        <time>2016-03-14T21:46:32.000Z</time>
      </trkpt>
      <trkpt lat="48.86452" lon="2.33269">
        <ele>47.200000762939</ele>
        <time>2016-03-14T21:46:37.000Z</time>
      </trkpt>
      <trkpt lat="48.86451" lon="2.33277">
        <ele>47.400001525879</ele>
        <time>2016-03-14T21:46:38.000Z</time>
      </trkpt>
      <trkpt lat="48.86439" lon="2.33303">
        <ele>47.599998474121</ele>
        <time>2016-03-14T21:46:43.000Z</time>
      </trkpt>
      <trkpt lat="48.86426" lon="2.33325">
        <ele>47.799999237061</ele>
        <time>2016-03-14T21:46:47.000Z</time>
      </trkpt>
      <trkpt lat="48.8641" lon="2.33346">
        <ele>48.400001525879</ele>
        <time>2016-03-14T21:46:51.000Z</time>
      </trkpt>
      <trkpt lat="48.86396" lon="2.33372">
        <ele>49</ele>
        <time>2016-03-14T21:46:55.000Z</time>
      </trkpt>
      <trkpt lat="48.86383" lon="2.33398">
        <ele>50</ele>
        <time>2016-03-14T21:46:59.000Z</time>
      </trkpt>
      <trkpt lat="48.86379" lon="2.33413">
        <ele>50.599998474121</ele>
        <time>2016-03-14T21:47:03.000Z</time>
      </trkpt>
      <trkpt lat="48.86376" lon="2.33414">
        <ele>50.799999237061</ele>
        <time>2016-03-14T21:47:06.000Z</time>
      </trkpt>
      <trkpt lat="48.86367" lon="2.33444">
        <ele>50.200000762939</ele>
        <time>2016-03-14T21:47:16.000Z</time>
      </trkpt>
      <trkpt lat="48.86357" lon="2.33466">
        <ele>49.200000762939</ele>
        <time>2016-03-14T21:47:19.000Z</time>
      </trkpt>
      <trkpt lat="48.86346" lon="2.33493">
        <ele>47.400001525879</ele>
        <time>2016-03-14T21:47:23.000Z</time>
      </trkpt>
      <trkpt lat="48.8634" lon="2.33505">
        <ele>47.200000762939</ele>
        <time>2016-03-14T21:47:25.000Z</time>
      </trkpt>
      <trkpt lat="48.86329" lon="2.33527">
        <ele>46.400001525879</ele>
        <time>2016-03-14T21:47:30.000Z</time>
      </trkpt>
      <trkpt lat="48.86324" lon="2.33533">
        <ele>46</ele>
        <time>2016-03-14T21:47:36.000Z</time>
      </trkpt>
      <trkpt lat="48.86316" lon="2.33556">
        <ele>46.400001525879</ele>
        <time>2016-03-14T21:47:44.000Z</time>
      </trkpt>
      <trkpt lat="48.86315" lon="2.33584">
        <ele>47.400001525879</ele>
        <time>2016-03-14T21:47:50.000Z</time>
      </trkpt>
      <trkpt lat="48.86315" lon="2.33616">
        <ele>46.200000762939</ele>
        <time>2016-03-14T21:47:55.000Z</time>
      </trkpt>
      <trkpt lat="48.86308" lon="2.33646">
        <ele>46</ele>
        <time>2016-03-14T21:48:00.000Z</time>
      </trkpt>
      <trkpt lat="48.86304" lon="2.33673">
        <ele>45.799999237061</ele>
        <time>2016-03-14T21:48:04.000Z</time>
      </trkpt>
      <trkpt lat="48.86297" lon="2.33704">
        <ele>45.599998474121</ele>
        <time>2016-03-14T21:48:09.000Z</time>
      </trkpt>
      <trkpt lat="48.86278" lon="2.33728">
        <ele>46</ele>
        <time>2016-03-14T21:48:14.000Z</time>
      </trkpt>
      <trkpt lat="48.86268" lon="2.33753">
        <ele>46</ele>
        <time>2016-03-14T21:48:18.000Z</time>
      </trkpt>
      <trkpt lat="48.86262" lon="2.33764">
        <ele>46</ele>
        <time>2016-03-14T21:48:20.000Z</time>
      </trkpt>
      <trkpt lat="48.86251" lon="2.33775">
        <ele>46</ele>
        <time>2016-03-14T21:48:23.000Z</time>
      </trkpt>
      <trkpt lat="48.86239" lon="2.33797">
        <ele>45.799999237061</ele>
        <time>2016-03-14T21:48:27.000Z</time>
      </trkpt>
      <trkpt lat="48.86225" lon="2.33817">
        <ele>44.400001525879</ele>
        <time>2016-03-14T21:48:31.000Z</time>
      </trkpt>
      <trkpt lat="48.86212" lon="2.33845">
        <ele>44</ele>
        <time>2016-03-14T21:48:35.000Z</time>
      </trkpt>
      <trkpt lat="48.86207" lon="2.33868">
        <ele>44.599998474121</ele>
        <time>2016-03-14T21:48:38.000Z</time>
      </trkpt>
      <trkpt lat="48.86211" lon="2.33893">
        <ele>45.200000762939</ele>
        <time>2016-03-14T21:48:40.000Z</time>
      </trkpt>
      <trkpt lat="48.86199" lon="2.33919">
        <ele>45.400001525879</ele>
        <time>2016-03-14T21:48:43.000Z</time>
      </trkpt>
      <trkpt lat="48.86191" lon="2.33946">
        <ele>46.599998474121</ele>
        <time>2016-03-14T21:48:46.000Z</time>
      </trkpt>
      <trkpt lat="48.86183" lon="2.33978">
        <ele>48.599998474121</ele>
        <time>2016-03-14T21:48:50.000Z</time>
      </trkpt>
      <trkpt lat="48.86173" lon="2.34006">
        <ele>48.599998474121</ele>
        <time>2016-03-14T21:48:54.000Z</time>
      </trkpt>
      <trkpt lat="48.86163" lon="2.34032">
        <ele>48.400001525879</ele>
        <time>2016-03-14T21:48:58.000Z</time>
      </trkpt>
      <trkpt lat="48.86147" lon="2.34053">
        <ele>47.799999237061</ele>
        <time>2016-03-14T21:49:02.000Z</time>
      </trkpt>
      <trkpt lat="48.86142" lon="2.34063">
        <ele>47.599998474121</ele>
        <time>2016-03-14T21:49:04.000Z</time>
      </trkpt>
      <trkpt lat="48.86139" lon="2.34068">
        <ele>47.400001525879</ele>
        <time>2016-03-14T21:49:06.000Z</time>
      </trkpt>
      <trkpt lat="48.86138" lon="2.34073">
        <ele>47.200000762939</ele>
        <time>2016-03-14T21:49:11.000Z</time>
      </trkpt>
      <trkpt lat="48.86142" lon="2.341">
        <ele>47.599998474121</ele>
        <time>2016-03-14T21:49:35.000Z</time>
      </trkpt>
      <trkpt lat="48.86138" lon="2.3413">
        <ele>48</ele>
        <time>2016-03-14T21:49:40.000Z</time>
      </trkpt>
      <trkpt lat="48.86132" lon="2.34167">
        <ele>48.599998474121</ele>
        <time>2016-03-14T21:49:44.000Z</time>
      </trkpt>
      <trkpt lat="48.86132" lon="2.34207">
        <ele>48.799999237061</ele>
        <time>2016-03-14T21:49:48.000Z</time>
      </trkpt>
      <trkpt lat="48.86132" lon="2.3424">
        <ele>49.200000762939</ele>
        <time>2016-03-14T21:49:51.000Z</time>
      </trkpt>
      <trkpt lat="48.86124" lon="2.34269">
        <ele>49</ele>
        <time>2016-03-14T21:49:55.000Z</time>
      </trkpt>
      <trkpt lat="48.86118" lon="2.34298">
        <ele>50</ele>
        <time>2016-03-14T21:49:59.000Z</time>
      </trkpt>
      <trkpt lat="48.86114" lon="2.34334">
        <ele>50.599998474121</ele>
        <time>2016-03-14T21:50:03.000Z</time>
      </trkpt>
      <trkpt lat="48.86109" lon="2.34367">
        <ele>50.400001525879</ele>
        <time>2016-03-14T21:50:07.000Z</time>
      </trkpt>
      <trkpt lat="48.8611" lon="2.344">
        <ele>50</ele>
        <time>2016-03-14T21:50:11.000Z</time>
      </trkpt>
      <trkpt lat="48.86106" lon="2.34434">
        <ele>50.200000762939</ele>
        <time>2016-03-14T21:50:16.000Z</time>
      </trkpt>
      <trkpt lat="48.86102" lon="2.34449">
        <ele>50.599998474121</ele>
        <time>2016-03-14T21:50:18.000Z</time>
      </trkpt>
      <trkpt lat="48.86094" lon="2.34475">
        <ele>51.400001525879</ele>
        <time>2016-03-14T21:50:22.000Z</time>
      </trkpt>
      <trkpt lat="48.8609" lon="2.34486">
        <ele>51.599998474121</ele>
        <time>2016-03-14T21:50:24.000Z</time>
      </trkpt>
      <trkpt lat="48.86087" lon="2.34504">
        <ele>51.400001525879</ele>
        <time>2016-03-14T21:50:28.000Z</time>
      </trkpt>
      <trkpt lat="48.86084" lon="2.34536">
        <ele>51</ele>
        <time>2016-03-14T21:50:32.000Z</time>
      </trkpt>
      <trkpt lat="48.86076" lon="2.34566">
        <ele>50.400001525879</ele>
        <time>2016-03-14T21:50:36.000Z</time>
      </trkpt>
      <trkpt lat="48.86075" lon="2.34573">
        <ele>50</ele>
        <time>2016-03-14T21:50:37.000Z</time>
      </trkpt>
      <trkpt lat="48.86063" lon="2.34592">
        <ele>48.599998474121</ele>
        <time>2016-03-14T21:50:41.000Z</time>
      </trkpt>
      <trkpt lat="48.86059" lon="2.34601">
        <ele>47.799999237061</ele>
        <time>2016-03-14T21:50:43.000Z</time>
      </trkpt>
      <trkpt lat="48.86052" lon="2.34613">
        <ele>46.799999237061</ele>
        <time>2016-03-14T21:50:46.000Z</time>
      </trkpt>
      <trkpt lat="48.86049" lon="2.34621">
        <ele>46.599998474121</ele>
        <time>2016-03-14T21:50:48.000Z</time>
      </trkpt>
      <trkpt lat="48.86036" lon="2.34642">
        <ele>46.400001525879</ele>
        <time>2016-03-14T21:50:52.000Z</time>
      </trkpt>
      <trkpt lat="48.86022" lon="2.3466">
        <ele>46.200000762939</ele>
        <time>2016-03-14T21:50:56.000Z</time>
      </trkpt>
      <trkpt lat="48.86018" lon="2.34663">
        <ele>46.200000762939</ele>
        <time>2016-03-14T21:50:57.000Z</time>
      </trkpt>
      <trkpt lat="48.86" lon="2.34676">
        <ele>46.200000762939</ele>
        <time>2016-03-14T21:51:01.000Z</time>
      </trkpt>
      <trkpt lat="48.85998" lon="2.34679">
        <ele>46.200000762939</ele>
        <time>2016-03-14T21:51:02.000Z</time>
      </trkpt>
      <trkpt lat="48.85988" lon="2.34689">
        <ele>46.200000762939</ele>
        <time>2016-03-14T21:51:05.000Z</time>
      </trkpt>
      <trkpt lat="48.8597" lon="2.34696">
        <ele>46.200000762939</ele>
        <time>2016-03-14T21:51:10.000Z</time>
      </trkpt>
      <trkpt lat="48.85953" lon="2.34707">
        <ele>45.599998474121</ele>
        <time>2016-03-14T21:51:16.000Z</time>
      </trkpt>
      <trkpt lat="48.85949" lon="2.34715">
        <ele>45.200000762939</ele>
        <time>2016-03-14T21:51:22.000Z</time>
      </trkpt>
      <trkpt lat="48.85956" lon="2.34718">
        <ele>45.200000762939</ele>
        <time>2016-03-14T21:51:29.000Z</time>
      </trkpt>
      <trkpt lat="48.85958" lon="2.34719">
        <ele>45.200000762939</ele>
        <time>2016-03-14T21:51:31.000Z</time>
      </trkpt>
      <trkpt lat="48.85968" lon="2.34708">
        <ele>45.799999237061</ele>
        <time>2016-03-14T21:51:57.000Z</time>
      </trkpt>
      <trkpt lat="48.85969" lon="2.34708">
        <ele>45.799999237061</ele>
        <time>2016-03-14T21:51:58.000Z</time>
      </trkpt>
    </trkseg>
  </trk>
</gpx>